<?xml version='1.0' encoding='UTF-8'?>
<gpx version="1.1" creator="https://www.komoot.de" xmlns="http://www.topografix.com/GPX/1/1" xmlns:xsi="http://www.w3.org/2001/XMLSchema-instance" xsi:schemaLocation="http://www.topografix.com/GPX/1/1 http://www.topografix.com/GPX/1/1/gpx.xsd">
  <metadata>
    <name>75_1000Oberboelchen</name>
    <author>
      <link href="https://www.komoot.de">
        <text>komoot</text>
        <type>text/html</type>
      </link>
    </author>
  </metadata>
  <trk>
    <name>75_1000Oberboelchen</name>
    <trkseg>
      <trkpt lat="47.542487" lon="7.869587">
        <ele>337.704843</ele>
        <time>2021-11-21T08:41:29.623Z</time>
      </trkpt>
      <trkpt lat="47.542565" lon="7.869480">
        <ele>337.704843</ele>
        <time>2021-11-21T08:41:30.976Z</time>
      </trkpt>
      <trkpt lat="47.542657" lon="7.869354">
        <ele>337.704843</ele>
        <time>2021-11-21T08:41:32.401Z</time>
      </trkpt>
      <trkpt lat="47.542696" lon="7.869257">
        <ele>337.704843</ele>
        <time>2021-11-21T08:41:33.348Z</time>
      </trkpt>
      <trkpt lat="47.542722" lon="7.869201">
        <ele>337.704843</ele>
        <time>2021-11-21T08:41:33.992Z</time>
      </trkpt>
      <trkpt lat="47.543049" lon="7.868759">
        <ele>337.704843</ele>
        <time>2021-11-21T08:41:38.964Z</time>
      </trkpt>
      <trkpt lat="47.543105" lon="7.868711">
        <ele>337.704843</ele>
        <time>2021-11-21T08:41:39.701Z</time>
      </trkpt>
      <trkpt lat="47.543201" lon="7.868657">
        <ele>337.614820</ele>
        <time>2021-11-21T08:41:40.770Z</time>
      </trkpt>
      <trkpt lat="47.543657" lon="7.868359">
        <ele>336.918369</ele>
        <time>2021-11-21T08:41:46.492Z</time>
      </trkpt>
      <trkpt lat="47.543801" lon="7.868269">
        <ele>336.699971</ele>
        <time>2021-11-21T08:41:48.971Z</time>
      </trkpt>
      <trkpt lat="47.544214" lon="7.867988">
        <ele>336.064897</ele>
        <time>2021-11-21T08:41:56.588Z</time>
      </trkpt>
      <trkpt lat="47.544246" lon="7.867967">
        <ele>336.015990</ele>
        <time>2021-11-21T08:41:57.185Z</time>
      </trkpt>
      <trkpt lat="47.544410" lon="7.867825">
        <ele>335.750548</ele>
        <time>2021-11-21T08:42:00.438Z</time>
      </trkpt>
      <trkpt lat="47.544469" lon="7.867776">
        <ele>335.656031</ele>
        <time>2021-11-21T08:42:01.460Z</time>
      </trkpt>
      <trkpt lat="47.544568" lon="7.867693">
        <ele>335.497073</ele>
        <time>2021-11-21T08:42:03.387Z</time>
      </trkpt>
      <trkpt lat="47.545003" lon="7.867278">
        <ele>335.395034</ele>
        <time>2021-11-21T08:42:12.235Z</time>
      </trkpt>
      <trkpt lat="47.545160" lon="7.866985">
        <ele>335.567142</ele>
        <time>2021-11-21T08:42:16.886Z</time>
      </trkpt>
      <trkpt lat="47.545240" lon="7.866887">
        <ele>335.637893</ele>
        <time>2021-11-21T08:42:19.159Z</time>
      </trkpt>
      <trkpt lat="47.546096" lon="7.866147">
        <ele>336.313380</ele>
        <time>2021-11-21T08:42:44.229Z</time>
      </trkpt>
      <trkpt lat="47.546327" lon="7.865959">
        <ele>336.638455</ele>
        <time>2021-11-21T08:42:51.966Z</time>
      </trkpt>
      <trkpt lat="47.546510" lon="7.865766">
        <ele>337.085860</ele>
        <time>2021-11-21T08:42:59.068Z</time>
      </trkpt>
      <trkpt lat="47.546819" lon="7.865489">
        <ele>337.805196</ele>
        <time>2021-11-21T08:43:09.299Z</time>
      </trkpt>
      <trkpt lat="47.546889" lon="7.865225">
        <ele>338.186514</ele>
        <time>2021-11-21T08:43:14.490Z</time>
      </trkpt>
      <trkpt lat="47.546894" lon="7.864837">
        <ele>338.708229</ele>
        <time>2021-11-21T08:43:21.910Z</time>
      </trkpt>
      <trkpt lat="47.546885" lon="7.864500">
        <ele>339.161639</ele>
        <time>2021-11-21T08:43:28.698Z</time>
      </trkpt>
      <trkpt lat="47.546877" lon="7.864345">
        <ele>339.370627</ele>
        <time>2021-11-21T08:43:31.592Z</time>
      </trkpt>
      <trkpt lat="47.546592" lon="7.863006">
        <ele>340.559922</ele>
        <time>2021-11-21T08:43:57.601Z</time>
      </trkpt>
      <trkpt lat="47.546526" lon="7.861665">
        <ele>341.364596</ele>
        <time>2021-11-21T08:44:18.333Z</time>
      </trkpt>
      <trkpt lat="47.546487" lon="7.859119">
        <ele>341.173857</ele>
        <time>2021-11-21T08:44:50.954Z</time>
      </trkpt>
      <trkpt lat="47.546537" lon="7.857497">
        <ele>340.875254</ele>
        <time>2021-11-21T08:45:11.965Z</time>
      </trkpt>
      <trkpt lat="47.546582" lon="7.856413">
        <ele>340.680676</ele>
        <time>2021-11-21T08:45:26.319Z</time>
      </trkpt>
      <trkpt lat="47.546945" lon="7.851719">
        <ele>339.231130</ele>
        <time>2021-11-21T08:46:27.354Z</time>
      </trkpt>
      <trkpt lat="47.547141" lon="7.850355">
        <ele>338.216636</ele>
        <time>2021-11-21T08:46:42.919Z</time>
      </trkpt>
      <trkpt lat="47.547143" lon="7.849985">
        <ele>337.732503</ele>
        <time>2021-11-21T08:46:46.827Z</time>
      </trkpt>
      <trkpt lat="47.547124" lon="7.848795">
        <ele>336.175041</ele>
        <time>2021-11-21T08:46:59.426Z</time>
      </trkpt>
      <trkpt lat="47.547274" lon="7.845536">
        <ele>332.078212</ele>
        <time>2021-11-21T08:47:34.184Z</time>
      </trkpt>
      <trkpt lat="47.547295" lon="7.844722">
        <ele>331.639551</ele>
        <time>2021-11-21T08:47:43.681Z</time>
      </trkpt>
      <trkpt lat="47.547313" lon="7.843735">
        <ele>331.289516</ele>
        <time>2021-11-21T08:47:56.088Z</time>
      </trkpt>
      <trkpt lat="47.547354" lon="7.842839">
        <ele>330.971140</ele>
        <time>2021-11-21T08:48:08.249Z</time>
      </trkpt>
      <trkpt lat="47.547372" lon="7.842732">
        <ele>330.932047</ele>
        <time>2021-11-21T08:48:09.836Z</time>
      </trkpt>
      <trkpt lat="47.547448" lon="7.842262">
        <ele>330.764352</ele>
        <time>2021-11-21T08:48:16.595Z</time>
      </trkpt>
      <trkpt lat="47.547362" lon="7.841665">
        <ele>330.552783</ele>
        <time>2021-11-21T08:48:24.857Z</time>
      </trkpt>
      <trkpt lat="47.547339" lon="7.841072">
        <ele>330.346921</ele>
        <time>2021-11-21T08:48:32.389Z</time>
      </trkpt>
      <trkpt lat="47.547332" lon="7.840572">
        <ele>330.173593</ele>
        <time>2021-11-21T08:48:38.482Z</time>
      </trkpt>
      <trkpt lat="47.547300" lon="7.838688">
        <ele>328.481499</ele>
        <time>2021-11-21T08:48:59.695Z</time>
      </trkpt>
      <trkpt lat="47.547276" lon="7.837287">
        <ele>326.924098</ele>
        <time>2021-11-21T08:49:14.571Z</time>
      </trkpt>
      <trkpt lat="47.547240" lon="7.836221">
        <ele>325.581601</ele>
        <time>2021-11-21T08:49:25.990Z</time>
      </trkpt>
      <trkpt lat="47.547190" lon="7.835066">
        <ele>324.125849</ele>
        <time>2021-11-21T08:49:38.496Z</time>
      </trkpt>
      <trkpt lat="47.547020" lon="7.831965">
        <ele>320.367230</ele>
        <time>2021-11-21T08:50:12.296Z</time>
      </trkpt>
      <trkpt lat="47.546946" lon="7.830852">
        <ele>318.900068</ele>
        <time>2021-11-21T08:50:24.328Z</time>
      </trkpt>
      <trkpt lat="47.546823" lon="7.829336">
        <ele>316.879083</ele>
        <time>2021-11-21T08:50:40.520Z</time>
      </trkpt>
      <trkpt lat="47.546721" lon="7.828140">
        <ele>315.096544</ele>
        <time>2021-11-21T08:50:53.231Z</time>
      </trkpt>
      <trkpt lat="47.546592" lon="7.826850">
        <ele>313.168247</ele>
        <time>2021-11-21T08:51:06.697Z</time>
      </trkpt>
      <trkpt lat="47.546574" lon="7.826239">
        <ele>312.451546</ele>
        <time>2021-11-21T08:51:13.143Z</time>
      </trkpt>
      <trkpt lat="47.546589" lon="7.825597">
        <ele>311.715473</ele>
        <time>2021-11-21T08:51:19.965Z</time>
      </trkpt>
      <trkpt lat="47.546589" lon="7.825597">
        <ele>311.715473</ele>
        <time>2021-11-21T08:51:20.028Z</time>
      </trkpt>
      <trkpt lat="47.546589" lon="7.825597">
        <ele>311.715473</ele>
        <time>2021-11-21T08:51:20.034Z</time>
      </trkpt>
      <trkpt lat="47.546693" lon="7.825618">
        <ele>311.537294</ele>
        <time>2021-11-21T08:51:21.701Z</time>
      </trkpt>
      <trkpt lat="47.547233" lon="7.825872">
        <ele>310.575513</ele>
        <time>2021-11-21T08:51:30.824Z</time>
      </trkpt>
      <trkpt lat="47.547666" lon="7.826091">
        <ele>310.109101</ele>
        <time>2021-11-21T08:51:38.524Z</time>
      </trkpt>
      <trkpt lat="47.548237" lon="7.826410">
        <ele>310.383218</ele>
        <time>2021-11-21T08:51:50.687Z</time>
      </trkpt>
      <trkpt lat="47.548679" lon="7.826710">
        <ele>310.601604</ele>
        <time>2021-11-21T08:52:01.900Z</time>
      </trkpt>
      <trkpt lat="47.549105" lon="7.827067">
        <ele>310.821449</ele>
        <time>2021-11-21T08:52:14.388Z</time>
      </trkpt>
      <trkpt lat="47.550183" lon="7.828277">
        <ele>312.788834</ele>
        <time>2021-11-21T08:52:52.438Z</time>
      </trkpt>
      <trkpt lat="47.550522" lon="7.828744">
        <ele>313.486947</ele>
        <time>2021-11-21T08:53:04.498Z</time>
      </trkpt>
      <trkpt lat="47.550675" lon="7.828955">
        <ele>313.503812</ele>
        <time>2021-11-21T08:53:09.117Z</time>
      </trkpt>
      <trkpt lat="47.551640" lon="7.830558">
        <ele>312.942888</ele>
        <time>2021-11-21T08:53:36.387Z</time>
      </trkpt>
      <trkpt lat="47.552065" lon="7.831350">
        <ele>311.929984</ele>
        <time>2021-11-21T08:53:47.410Z</time>
      </trkpt>
      <trkpt lat="47.552251" lon="7.831814">
        <ele>311.234183</ele>
        <time>2021-11-21T08:53:53.150Z</time>
      </trkpt>
      <trkpt lat="47.552368" lon="7.832305">
        <ele>310.562839</ele>
        <time>2021-11-21T08:53:58.620Z</time>
      </trkpt>
      <trkpt lat="47.552458" lon="7.832824">
        <ele>309.871958</ele>
        <time>2021-11-21T08:54:04.221Z</time>
      </trkpt>
      <trkpt lat="47.552508" lon="7.832936">
        <ele>309.698826</ele>
        <time>2021-11-21T08:54:05.680Z</time>
      </trkpt>
      <trkpt lat="47.552556" lon="7.832977">
        <ele>309.592985</ele>
        <time>2021-11-21T08:54:06.600Z</time>
      </trkpt>
      <trkpt lat="47.552556" lon="7.832977">
        <ele>309.592985</ele>
        <time>2021-11-21T08:54:06.641Z</time>
      </trkpt>
      <trkpt lat="47.552616" lon="7.832891">
        <ele>309.433512</ele>
        <time>2021-11-21T08:54:07.447Z</time>
      </trkpt>
      <trkpt lat="47.552690" lon="7.832598">
        <ele>308.926102</ele>
        <time>2021-11-21T08:54:09.770Z</time>
      </trkpt>
      <trkpt lat="47.552645" lon="7.830686">
        <ele>305.822033</ele>
        <time>2021-11-21T08:54:23.463Z</time>
      </trkpt>
      <trkpt lat="47.552554" lon="7.829266">
        <ele>303.909849</ele>
        <time>2021-11-21T08:54:33.750Z</time>
      </trkpt>
      <trkpt lat="47.552416" lon="7.828822">
        <ele>303.315919</ele>
        <time>2021-11-21T08:54:37.414Z</time>
      </trkpt>
      <trkpt lat="47.552404" lon="7.828582">
        <ele>303.023512</ele>
        <time>2021-11-21T08:54:39.329Z</time>
      </trkpt>
      <trkpt lat="47.552421" lon="7.828481">
        <ele>302.897035</ele>
        <time>2021-11-21T08:54:40.084Z</time>
      </trkpt>
      <trkpt lat="47.552477" lon="7.828294">
        <ele>302.648461</ele>
        <time>2021-11-21T08:54:41.659Z</time>
      </trkpt>
      <trkpt lat="47.552515" lon="7.828094">
        <ele>302.396009</ele>
        <time>2021-11-21T08:54:43.378Z</time>
      </trkpt>
      <trkpt lat="47.552491" lon="7.827227">
        <ele>301.643554</ele>
        <time>2021-11-21T08:54:50.285Z</time>
      </trkpt>
      <trkpt lat="47.552567" lon="7.824508">
        <ele>300.227361</ele>
        <time>2021-11-21T08:55:14.134Z</time>
      </trkpt>
      <trkpt lat="47.552896" lon="7.820699">
        <ele>298.248191</ele>
        <time>2021-11-21T08:55:46.737Z</time>
      </trkpt>
      <trkpt lat="47.552948" lon="7.819358">
        <ele>297.665149</ele>
        <time>2021-11-21T08:55:58.230Z</time>
      </trkpt>
      <trkpt lat="47.552939" lon="7.819124">
        <ele>297.620273</ele>
        <time>2021-11-21T08:56:00.228Z</time>
      </trkpt>
      <trkpt lat="47.552844" lon="7.816432">
        <ele>297.395906</ele>
        <time>2021-11-21T08:56:25.977Z</time>
      </trkpt>
      <trkpt lat="47.552711" lon="7.812955">
        <ele>298.597329</ele>
        <time>2021-11-21T08:57:06.937Z</time>
      </trkpt>
      <trkpt lat="47.552566" lon="7.810386">
        <ele>299.740531</ele>
        <time>2021-11-21T08:57:36.968Z</time>
      </trkpt>
      <trkpt lat="47.552398" lon="7.808880">
        <ele>300.398944</ele>
        <time>2021-11-21T08:57:55.449Z</time>
      </trkpt>
      <trkpt lat="47.552068" lon="7.806445">
        <ele>301.038996</ele>
        <time>2021-11-21T08:58:23.789Z</time>
      </trkpt>
      <trkpt lat="47.552015" lon="7.806307">
        <ele>300.967158</ele>
        <time>2021-11-21T08:58:25.512Z</time>
      </trkpt>
      <trkpt lat="47.551895" lon="7.806278">
        <ele>300.885651</ele>
        <time>2021-11-21T08:58:26.821Z</time>
      </trkpt>
      <trkpt lat="47.551651" lon="7.806246">
        <ele>300.721444</ele>
        <time>2021-11-21T08:58:30.584Z</time>
      </trkpt>
      <trkpt lat="47.551671" lon="7.806117">
        <ele>300.661558</ele>
        <time>2021-11-21T08:58:31.898Z</time>
      </trkpt>
      <trkpt lat="47.551681" lon="7.805477">
        <ele>300.371916</ele>
        <time>2021-11-21T08:58:39.596Z</time>
      </trkpt>
      <trkpt lat="47.551709" lon="7.805000">
        <ele>300.155286</ele>
        <time>2021-11-21T08:58:45.240Z</time>
      </trkpt>
      <trkpt lat="47.551731" lon="7.804667">
        <ele>300.003902</ele>
        <time>2021-11-21T08:58:49.876Z</time>
      </trkpt>
      <trkpt lat="47.551744" lon="7.804473">
        <ele>299.915696</ele>
        <time>2021-11-21T08:58:51.881Z</time>
      </trkpt>
      <trkpt lat="47.551741" lon="7.804294">
        <ele>299.839309</ele>
        <time>2021-11-21T08:58:54.261Z</time>
      </trkpt>
      <trkpt lat="47.551692" lon="7.803510">
        <ele>299.689957</ele>
        <time>2021-11-21T08:59:03.410Z</time>
      </trkpt>
      <trkpt lat="47.551751" lon="7.803369">
        <ele>299.658488</ele>
        <time>2021-11-21T08:59:05.415Z</time>
      </trkpt>
      <trkpt lat="47.551744" lon="7.803277">
        <ele>299.640926</ele>
        <time>2021-11-21T08:59:06.233Z</time>
      </trkpt>
      <trkpt lat="47.551732" lon="7.803125">
        <ele>299.611897</ele>
        <time>2021-11-21T08:59:07.621Z</time>
      </trkpt>
      <trkpt lat="47.551666" lon="7.803144">
        <ele>299.593000</ele>
        <time>2021-11-21T08:59:12.288Z</time>
      </trkpt>
      <trkpt lat="47.551598" lon="7.803160">
        <ele>299.573650</ele>
        <time>2021-11-21T08:59:17.033Z</time>
      </trkpt>
      <trkpt lat="47.551163" lon="7.803129">
        <ele>299.451251</ele>
        <time>2021-11-21T08:59:26.058Z</time>
      </trkpt>
      <trkpt lat="47.550981" lon="7.803132">
        <ele>299.400097</ele>
        <time>2021-11-21T08:59:30.071Z</time>
      </trkpt>
      <trkpt lat="47.550196" lon="7.803120">
        <ele>299.534026</ele>
        <time>2021-11-21T08:59:47.397Z</time>
      </trkpt>
      <trkpt lat="47.550134" lon="7.803051">
        <ele>299.561239</ele>
        <time>2021-11-21T08:59:49.079Z</time>
      </trkpt>
      <trkpt lat="47.550146" lon="7.802262">
        <ele>299.748176</ele>
        <time>2021-11-21T09:00:00.467Z</time>
      </trkpt>
      <trkpt lat="47.549879" lon="7.802247">
        <ele>299.841945</ele>
        <time>2021-11-21T09:00:06.249Z</time>
      </trkpt>
      <trkpt lat="47.549481" lon="7.802234">
        <ele>299.973539</ele>
        <time>2021-11-21T09:00:14.972Z</time>
      </trkpt>
      <trkpt lat="47.549410" lon="7.802226">
        <ele>299.983274</ele>
        <time>2021-11-21T09:00:16.570Z</time>
      </trkpt>
      <trkpt lat="47.548877" lon="7.802168">
        <ele>300.056338</ele>
        <time>2021-11-21T09:00:27.779Z</time>
      </trkpt>
      <trkpt lat="47.548791" lon="7.802155">
        <ele>300.068156</ele>
        <time>2021-11-21T09:00:29.593Z</time>
      </trkpt>
      <trkpt lat="47.548626" lon="7.802129">
        <ele>300.090841</ele>
        <time>2021-11-21T09:00:32.986Z</time>
      </trkpt>
      <trkpt lat="47.548626" lon="7.802129">
        <ele>300.090841</ele>
        <time>2021-11-21T09:00:32.990Z</time>
      </trkpt>
      <trkpt lat="47.548626" lon="7.802129">
        <ele>300.090841</ele>
        <time>2021-11-21T09:00:32.998Z</time>
      </trkpt>
      <trkpt lat="47.548607" lon="7.801690">
        <ele>300.131434</ele>
        <time>2021-11-21T09:00:39.075Z</time>
      </trkpt>
      <trkpt lat="47.548596" lon="7.801213">
        <ele>300.175475</ele>
        <time>2021-11-21T09:00:45.610Z</time>
      </trkpt>
      <trkpt lat="47.548576" lon="7.800968">
        <ele>300.198247</ele>
        <time>2021-11-21T09:00:48.966Z</time>
      </trkpt>
      <trkpt lat="47.548569" lon="7.800838">
        <ele>300.210281</ele>
        <time>2021-11-21T09:00:50.737Z</time>
      </trkpt>
      <trkpt lat="47.548560" lon="7.800672">
        <ele>300.231234</ele>
        <time>2021-11-21T09:00:53.053Z</time>
      </trkpt>
      <trkpt lat="47.548545" lon="7.800404">
        <ele>300.268218</ele>
        <time>2021-11-21T09:00:56.694Z</time>
      </trkpt>
      <trkpt lat="47.548519" lon="7.799896">
        <ele>300.338281</ele>
        <time>2021-11-21T09:01:03.810Z</time>
      </trkpt>
      <trkpt lat="47.548514" lon="7.799795">
        <ele>300.352209</ele>
        <time>2021-11-21T09:01:05.213Z</time>
      </trkpt>
      <trkpt lat="47.548535" lon="7.799720">
        <ele>300.363376</ele>
        <time>2021-11-21T09:01:06.364Z</time>
      </trkpt>
      <trkpt lat="47.548459" lon="7.799691">
        <ele>300.379366</ele>
        <time>2021-11-21T09:01:08.011Z</time>
      </trkpt>
      <trkpt lat="47.547912" lon="7.799646">
        <ele>300.490990</ele>
        <time>2021-11-21T09:01:19.253Z</time>
      </trkpt>
      <trkpt lat="47.547540" lon="7.799538">
        <ele>300.568228</ele>
        <time>2021-11-21T09:01:27.214Z</time>
      </trkpt>
      <trkpt lat="47.546418" lon="7.798980">
        <ele>301.001791</ele>
        <time>2021-11-21T09:01:55.135Z</time>
      </trkpt>
      <trkpt lat="47.545807" lon="7.798846">
        <ele>301.233552</ele>
        <time>2021-11-21T09:02:07.354Z</time>
      </trkpt>
      <trkpt lat="47.545731" lon="7.798810">
        <ele>301.252889</ele>
        <time>2021-11-21T09:02:09.203Z</time>
      </trkpt>
      <trkpt lat="47.545664" lon="7.798714">
        <ele>301.240688</ele>
        <time>2021-11-21T09:02:10.880Z</time>
      </trkpt>
      <trkpt lat="47.545610" lon="7.798623">
        <ele>301.229982</ele>
        <time>2021-11-21T09:02:12.277Z</time>
      </trkpt>
      <trkpt lat="47.545590" lon="7.798505">
        <ele>301.219232</ele>
        <time>2021-11-21T09:02:13.871Z</time>
      </trkpt>
      <trkpt lat="47.545716" lon="7.797282">
        <ele>301.109920</ele>
        <time>2021-11-21T09:02:30.066Z</time>
      </trkpt>
      <trkpt lat="47.545768" lon="7.797090">
        <ele>301.091641</ele>
        <time>2021-11-21T09:02:32.509Z</time>
      </trkpt>
      <trkpt lat="47.545816" lon="7.796914">
        <ele>301.074869</ele>
        <time>2021-11-21T09:02:35.013Z</time>
      </trkpt>
      <trkpt lat="47.545914" lon="7.796629">
        <ele>301.046608</ele>
        <time>2021-11-21T09:02:39.896Z</time>
      </trkpt>
      <trkpt lat="47.546090" lon="7.796144">
        <ele>301.117668</ele>
        <time>2021-11-21T09:02:47.304Z</time>
      </trkpt>
      <trkpt lat="47.546173" lon="7.795918">
        <ele>301.217324</ele>
        <time>2021-11-21T09:02:51.000Z</time>
      </trkpt>
      <trkpt lat="47.546227" lon="7.795865">
        <ele>301.254494</ele>
        <time>2021-11-21T09:02:52.385Z</time>
      </trkpt>
      <trkpt lat="47.546254" lon="7.795798">
        <ele>301.284718</ele>
        <time>2021-11-21T09:02:53.408Z</time>
      </trkpt>
      <trkpt lat="47.546154" lon="7.795747">
        <ele>301.345406</ele>
        <time>2021-11-21T09:02:55.107Z</time>
      </trkpt>
      <trkpt lat="47.546170" lon="7.795612">
        <ele>301.398496</ele>
        <time>2021-11-21T09:02:57.112Z</time>
      </trkpt>
      <trkpt lat="47.546165" lon="7.795511">
        <ele>301.437722</ele>
        <time>2021-11-21T09:02:59.018Z</time>
      </trkpt>
      <trkpt lat="47.546019" lon="7.795020">
        <ele>301.645539</ele>
        <time>2021-11-21T09:03:07.518Z</time>
      </trkpt>
      <trkpt lat="47.545947" lon="7.794710">
        <ele>301.772522</ele>
        <time>2021-11-21T09:03:12.726Z</time>
      </trkpt>
      <trkpt lat="47.545921" lon="7.794468">
        <ele>301.867437</ele>
        <time>2021-11-21T09:03:16.837Z</time>
      </trkpt>
      <trkpt lat="47.545954" lon="7.793907">
        <ele>302.030566</ele>
        <time>2021-11-21T09:03:25.833Z</time>
      </trkpt>
      <trkpt lat="47.545969" lon="7.793663">
        <ele>301.968508</ele>
        <time>2021-11-21T09:03:29.603Z</time>
      </trkpt>
      <trkpt lat="47.546027" lon="7.793254">
        <ele>301.862651</ele>
        <time>2021-11-21T09:03:35.959Z</time>
      </trkpt>
      <trkpt lat="47.546253" lon="7.791998">
        <ele>301.533411</ele>
        <time>2021-11-21T09:03:52.019Z</time>
      </trkpt>
      <trkpt lat="47.546435" lon="7.790667">
        <ele>300.900234</ele>
        <time>2021-11-21T09:04:07.288Z</time>
      </trkpt>
      <trkpt lat="47.546673" lon="7.788921">
        <ele>299.754810</ele>
        <time>2021-11-21T09:04:28.433Z</time>
      </trkpt>
      <trkpt lat="47.546695" lon="7.788763">
        <ele>299.668920</ele>
        <time>2021-11-21T09:04:30.355Z</time>
      </trkpt>
      <trkpt lat="47.546764" lon="7.788206">
        <ele>299.813133</ele>
        <time>2021-11-21T09:04:37.600Z</time>
      </trkpt>
      <trkpt lat="47.546897" lon="7.787133">
        <ele>300.090947</ele>
        <time>2021-11-21T09:04:52.046Z</time>
      </trkpt>
      <trkpt lat="47.546959" lon="7.786598">
        <ele>300.229181</ele>
        <time>2021-11-21T09:04:59.710Z</time>
      </trkpt>
      <trkpt lat="47.546952" lon="7.786540">
        <ele>300.244186</ele>
        <time>2021-11-21T09:05:00.668Z</time>
      </trkpt>
      <trkpt lat="47.546913" lon="7.786470">
        <ele>300.267300</ele>
        <time>2021-11-21T09:05:02.451Z</time>
      </trkpt>
      <trkpt lat="47.546526" lon="7.786353">
        <ele>301.339607</ele>
        <time>2021-11-21T09:05:13.810Z</time>
      </trkpt>
      <trkpt lat="47.546464" lon="7.786335">
        <ele>301.661346</ele>
        <time>2021-11-21T09:05:15.601Z</time>
      </trkpt>
      <trkpt lat="47.546417" lon="7.786331">
        <ele>301.901088</ele>
        <time>2021-11-21T09:05:16.830Z</time>
      </trkpt>
      <trkpt lat="47.546102" lon="7.786217">
        <ele>303.552391</ele>
        <time>2021-11-21T09:05:28.336Z</time>
      </trkpt>
      <trkpt lat="47.545856" lon="7.785973">
        <ele>305.059990</ele>
        <time>2021-11-21T09:05:40.476Z</time>
      </trkpt>
      <trkpt lat="47.545672" lon="7.785654">
        <ele>306.502351</ele>
        <time>2021-11-21T09:05:51.802Z</time>
      </trkpt>
      <trkpt lat="47.545624" lon="7.785548">
        <ele>306.941117</ele>
        <time>2021-11-21T09:05:58.467Z</time>
      </trkpt>
      <trkpt lat="47.545250" lon="7.784778">
        <ele>309.942182</ele>
        <time>2021-11-21T09:06:29.993Z</time>
      </trkpt>
      <trkpt lat="47.545240" lon="7.784746">
        <ele>310.018407</ele>
        <time>2021-11-21T09:06:32.672Z</time>
      </trkpt>
      <trkpt lat="47.545054" lon="7.784227">
        <ele>311.288616</ele>
        <time>2021-11-21T09:06:50.822Z</time>
      </trkpt>
      <trkpt lat="47.544950" lon="7.784008">
        <ele>311.867433</ele>
        <time>2021-11-21T09:06:57.152Z</time>
      </trkpt>
      <trkpt lat="47.544627" lon="7.783499">
        <ele>313.377580</ele>
        <time>2021-11-21T09:07:13.016Z</time>
      </trkpt>
      <trkpt lat="47.544555" lon="7.783372">
        <ele>313.736092</ele>
        <time>2021-11-21T09:07:15.092Z</time>
      </trkpt>
      <trkpt lat="47.544490" lon="7.783060">
        <ele>314.441923</ele>
        <time>2021-11-21T09:07:19.838Z</time>
      </trkpt>
      <trkpt lat="47.544474" lon="7.782623">
        <ele>315.052686</ele>
        <time>2021-11-21T09:07:24.846Z</time>
      </trkpt>
      <trkpt lat="47.544469" lon="7.782455">
        <ele>314.448952</ele>
        <time>2021-11-21T09:07:26.145Z</time>
      </trkpt>
      <trkpt lat="47.544461" lon="7.782254">
        <ele>313.726075</ele>
        <time>2021-11-21T09:07:27.410Z</time>
      </trkpt>
      <trkpt lat="47.544100" lon="7.779438">
        <ele>303.858721</ele>
        <time>2021-11-21T09:07:44.899Z</time>
      </trkpt>
      <trkpt lat="47.543933" lon="7.778374">
        <ele>300.671345</ele>
        <time>2021-11-21T09:07:51.970Z</time>
      </trkpt>
      <trkpt lat="47.543707" lon="7.777394">
        <ele>297.864942</ele>
        <time>2021-11-21T09:07:59.190Z</time>
      </trkpt>
      <trkpt lat="47.543527" lon="7.776532">
        <ele>297.321626</ele>
        <time>2021-11-21T09:08:06.334Z</time>
      </trkpt>
      <trkpt lat="47.543482" lon="7.776095">
        <ele>297.055444</ele>
        <time>2021-11-21T09:08:10.211Z</time>
      </trkpt>
      <trkpt lat="47.543449" lon="7.775478">
        <ele>296.682755</ele>
        <time>2021-11-21T09:08:15.953Z</time>
      </trkpt>
      <trkpt lat="47.543402" lon="7.775016">
        <ele>296.401422</ele>
        <time>2021-11-21T09:08:20.622Z</time>
      </trkpt>
      <trkpt lat="47.543350" lon="7.774507">
        <ele>296.278527</ele>
        <time>2021-11-21T09:08:25.860Z</time>
      </trkpt>
      <trkpt lat="47.543145" lon="7.773277">
        <ele>296.149823</ele>
        <time>2021-11-21T09:08:38.759Z</time>
      </trkpt>
      <trkpt lat="47.543108" lon="7.773069">
        <ele>296.127972</ele>
        <time>2021-11-21T09:08:40.939Z</time>
      </trkpt>
      <trkpt lat="47.542720" lon="7.770771">
        <ele>295.762146</ele>
        <time>2021-11-21T09:09:02.161Z</time>
      </trkpt>
      <trkpt lat="47.542450" lon="7.769311">
        <ele>296.037138</ele>
        <time>2021-11-21T09:09:17.249Z</time>
      </trkpt>
      <trkpt lat="47.542317" lon="7.768533">
        <ele>296.969981</ele>
        <time>2021-11-21T09:09:25.699Z</time>
      </trkpt>
      <trkpt lat="47.542262" lon="7.768261">
        <ele>297.300015</ele>
        <time>2021-11-21T09:09:29.201Z</time>
      </trkpt>
      <trkpt lat="47.542249" lon="7.768199">
        <ele>297.375476</ele>
        <time>2021-11-21T09:09:29.871Z</time>
      </trkpt>
      <trkpt lat="47.541697" lon="7.765479">
        <ele>304.971702</ele>
        <time>2021-11-21T09:10:27.568Z</time>
      </trkpt>
      <trkpt lat="47.541552" lon="7.764869">
        <ele>307.322868</ele>
        <time>2021-11-21T09:10:46.837Z</time>
      </trkpt>
      <trkpt lat="47.541443" lon="7.764512">
        <ele>309.050066</ele>
        <time>2021-11-21T09:11:00.465Z</time>
      </trkpt>
      <trkpt lat="47.541364" lon="7.764150">
        <ele>311.474069</ele>
        <time>2021-11-21T09:11:11.282Z</time>
      </trkpt>
      <trkpt lat="47.541377" lon="7.764045">
        <ele>312.154233</ele>
        <time>2021-11-21T09:11:15.804Z</time>
      </trkpt>
      <trkpt lat="47.541334" lon="7.764020">
        <ele>312.590224</ele>
        <time>2021-11-21T09:11:20.646Z</time>
      </trkpt>
      <trkpt lat="47.541219" lon="7.763853">
        <ele>314.110195</ele>
        <time>2021-11-21T09:11:27.187Z</time>
      </trkpt>
      <trkpt lat="47.541023" lon="7.762922">
        <ele>320.323838</ele>
        <time>2021-11-21T09:12:05.463Z</time>
      </trkpt>
      <trkpt lat="47.541004" lon="7.762306">
        <ele>324.252790</ele>
        <time>2021-11-21T09:12:28.281Z</time>
      </trkpt>
      <trkpt lat="47.540921" lon="7.761599">
        <ele>327.557283</ele>
        <time>2021-11-21T09:12:52.950Z</time>
      </trkpt>
      <trkpt lat="47.540567" lon="7.759901">
        <ele>334.783125</ele>
        <time>2021-11-21T09:13:37.624Z</time>
      </trkpt>
      <trkpt lat="47.540447" lon="7.759585">
        <ele>336.156247</ele>
        <time>2021-11-21T09:13:45.207Z</time>
      </trkpt>
      <trkpt lat="47.539949" lon="7.758688">
        <ele>336.217731</ele>
        <time>2021-11-21T09:14:03.451Z</time>
      </trkpt>
      <trkpt lat="47.539722" lon="7.758107">
        <ele>336.253270</ele>
        <time>2021-11-21T09:14:09.741Z</time>
      </trkpt>
      <trkpt lat="47.539595" lon="7.757548">
        <ele>336.284496</ele>
        <time>2021-11-21T09:14:14.134Z</time>
      </trkpt>
      <trkpt lat="47.539346" lon="7.755736">
        <ele>330.566743</ele>
        <time>2021-11-21T09:14:25.879Z</time>
      </trkpt>
      <trkpt lat="47.539230" lon="7.755294">
        <ele>328.902425</ele>
        <time>2021-11-21T09:14:28.770Z</time>
      </trkpt>
      <trkpt lat="47.539079" lon="7.754976">
        <ele>327.537957</ele>
        <time>2021-11-21T09:14:31.161Z</time>
      </trkpt>
      <trkpt lat="47.538792" lon="7.754549">
        <ele>325.897630</ele>
        <time>2021-11-21T09:14:34.896Z</time>
      </trkpt>
      <trkpt lat="47.538723" lon="7.754445">
        <ele>325.545360</ele>
        <time>2021-11-21T09:14:35.793Z</time>
      </trkpt>
      <trkpt lat="47.538494" lon="7.754103">
        <ele>324.381661</ele>
        <time>2021-11-21T09:14:38.953Z</time>
      </trkpt>
      <trkpt lat="47.538359" lon="7.753900">
        <ele>323.693257</ele>
        <time>2021-11-21T09:14:40.855Z</time>
      </trkpt>
      <trkpt lat="47.538052" lon="7.753460">
        <ele>322.164573</ele>
        <time>2021-11-21T09:14:45.262Z</time>
      </trkpt>
      <trkpt lat="47.537715" lon="7.753194">
        <ele>320.798072</ele>
        <time>2021-11-21T09:14:49.381Z</time>
      </trkpt>
      <trkpt lat="47.537564" lon="7.753073">
        <ele>320.461050</ele>
        <time>2021-11-21T09:14:51.283Z</time>
      </trkpt>
      <trkpt lat="47.537371" lon="7.752851">
        <ele>320.332448</ele>
        <time>2021-11-21T09:14:54.720Z</time>
      </trkpt>
      <trkpt lat="47.537134" lon="7.752309">
        <ele>320.103010</ele>
        <time>2021-11-21T09:15:01.007Z</time>
      </trkpt>
      <trkpt lat="47.535912" lon="7.749669">
        <ele>319.234792</ele>
        <time>2021-11-21T09:15:31.188Z</time>
      </trkpt>
      <trkpt lat="47.534874" lon="7.746551">
        <ele>318.546453</ele>
        <time>2021-11-21T09:16:03.038Z</time>
      </trkpt>
      <trkpt lat="47.534429" lon="7.744856">
        <ele>318.699222</ele>
        <time>2021-11-21T09:16:21.949Z</time>
      </trkpt>
      <trkpt lat="47.534370" lon="7.744709">
        <ele>318.718673</ele>
        <time>2021-11-21T09:16:23.596Z</time>
      </trkpt>
      <trkpt lat="47.534179" lon="7.744495">
        <ele>318.759017</ele>
        <time>2021-11-21T09:16:27.479Z</time>
      </trkpt>
      <trkpt lat="47.534097" lon="7.744343">
        <ele>318.781146</ele>
        <time>2021-11-21T09:16:29.490Z</time>
      </trkpt>
      <trkpt lat="47.534043" lon="7.744207">
        <ele>318.799090</ele>
        <time>2021-11-21T09:16:31.235Z</time>
      </trkpt>
      <trkpt lat="47.533870" lon="7.743466">
        <ele>318.686684</ele>
        <time>2021-11-21T09:16:40.014Z</time>
      </trkpt>
      <trkpt lat="47.533707" lon="7.742025">
        <ele>318.395441</ele>
        <time>2021-11-21T09:16:58.563Z</time>
      </trkpt>
      <trkpt lat="47.533352" lon="7.740430">
        <ele>313.880205</ele>
        <time>2021-11-21T09:17:09.935Z</time>
      </trkpt>
      <trkpt lat="47.533191" lon="7.739816">
        <ele>311.291123</ele>
        <time>2021-11-21T09:17:13.941Z</time>
      </trkpt>
      <trkpt lat="47.533226" lon="7.739781">
        <ele>311.045262</ele>
        <time>2021-11-21T09:17:14.293Z</time>
      </trkpt>
      <trkpt lat="47.533446" lon="7.739598">
        <ele>309.576282</ele>
        <time>2021-11-21T09:17:16.538Z</time>
      </trkpt>
      <trkpt lat="47.534011" lon="7.739126">
        <ele>305.394851</ele>
        <time>2021-11-21T09:17:22.215Z</time>
      </trkpt>
      <trkpt lat="47.534755" lon="7.738529">
        <ele>299.477491</ele>
        <time>2021-11-21T09:17:29.623Z</time>
      </trkpt>
      <trkpt lat="47.535216" lon="7.738157">
        <ele>295.806266</ele>
        <time>2021-11-21T09:17:34.455Z</time>
      </trkpt>
      <trkpt lat="47.534883" lon="7.737236">
        <ele>294.787948</ele>
        <time>2021-11-21T09:17:42.376Z</time>
      </trkpt>
      <trkpt lat="47.534765" lon="7.736911">
        <ele>294.609601</ele>
        <time>2021-11-21T09:17:45.784Z</time>
      </trkpt>
      <trkpt lat="47.534670" lon="7.736644">
        <ele>294.463735</ele>
        <time>2021-11-21T09:17:49.269Z</time>
      </trkpt>
      <trkpt lat="47.534450" lon="7.736026">
        <ele>294.126074</ele>
        <time>2021-11-21T09:17:57.592Z</time>
      </trkpt>
      <trkpt lat="47.534301" lon="7.735625">
        <ele>293.990546</ele>
        <time>2021-11-21T09:18:03.441Z</time>
      </trkpt>
      <trkpt lat="47.533860" lon="7.734479">
        <ele>294.656520</ele>
        <time>2021-11-21T09:18:20.333Z</time>
      </trkpt>
      <trkpt lat="47.533685" lon="7.734026">
        <ele>294.920025</ele>
        <time>2021-11-21T09:18:26.563Z</time>
      </trkpt>
      <trkpt lat="47.533577" lon="7.733712">
        <ele>295.097944</ele>
        <time>2021-11-21T09:18:30.627Z</time>
      </trkpt>
      <trkpt lat="47.533436" lon="7.733399">
        <ele>295.287919</ele>
        <time>2021-11-21T09:18:34.699Z</time>
      </trkpt>
      <trkpt lat="47.533324" lon="7.733190">
        <ele>295.286986</ele>
        <time>2021-11-21T09:18:37.807Z</time>
      </trkpt>
      <trkpt lat="47.533220" lon="7.733022">
        <ele>295.282760</ele>
        <time>2021-11-21T09:18:40.066Z</time>
      </trkpt>
      <trkpt lat="47.532961" lon="7.732599">
        <ele>295.272174</ele>
        <time>2021-11-21T09:18:45.968Z</time>
      </trkpt>
      <trkpt lat="47.532853" lon="7.732416">
        <ele>295.267668</ele>
        <time>2021-11-21T09:18:48.563Z</time>
      </trkpt>
      <trkpt lat="47.532776" lon="7.732283">
        <ele>295.264420</ele>
        <time>2021-11-21T09:18:50.183Z</time>
      </trkpt>
      <trkpt lat="47.532665" lon="7.732105">
        <ele>295.259928</ele>
        <time>2021-11-21T09:18:52.478Z</time>
      </trkpt>
      <trkpt lat="47.532473" lon="7.731703">
        <ele>295.250799</ele>
        <time>2021-11-21T09:18:56.947Z</time>
      </trkpt>
      <trkpt lat="47.532405" lon="7.731493">
        <ele>295.246481</ele>
        <time>2021-11-21T09:18:59.157Z</time>
      </trkpt>
      <trkpt lat="47.532193" lon="7.730459">
        <ele>295.293144</ele>
        <time>2021-11-21T09:19:09.032Z</time>
      </trkpt>
      <trkpt lat="47.531944" lon="7.728603">
        <ele>295.431055</ele>
        <time>2021-11-21T09:19:29.593Z</time>
      </trkpt>
      <trkpt lat="47.531815" lon="7.728165">
        <ele>295.600749</ele>
        <time>2021-11-21T09:19:34.872Z</time>
      </trkpt>
      <trkpt lat="47.531623" lon="7.727725">
        <ele>295.786790</ele>
        <time>2021-11-21T09:19:40.710Z</time>
      </trkpt>
      <trkpt lat="47.531296" lon="7.727089">
        <ele>296.070672</ele>
        <time>2021-11-21T09:19:49.954Z</time>
      </trkpt>
      <trkpt lat="47.531246" lon="7.726992">
        <ele>296.114009</ele>
        <time>2021-11-21T09:19:51.135Z</time>
      </trkpt>
      <trkpt lat="47.531193" lon="7.726888">
        <ele>296.160280</ele>
        <time>2021-11-21T09:19:52.456Z</time>
      </trkpt>
      <trkpt lat="47.531031" lon="7.726569">
        <ele>296.302029</ele>
        <time>2021-11-21T09:19:57.287Z</time>
      </trkpt>
      <trkpt lat="47.530756" lon="7.726844">
        <ele>296.568429</ele>
        <time>2021-11-21T09:20:03.374Z</time>
      </trkpt>
      <trkpt lat="47.530372" lon="7.727161">
        <ele>296.961717</ele>
        <time>2021-11-21T09:20:11.623Z</time>
      </trkpt>
      <trkpt lat="47.529976" lon="7.727410">
        <ele>297.346586</ele>
        <time>2021-11-21T09:20:19.515Z</time>
      </trkpt>
      <trkpt lat="47.529269" lon="7.727844">
        <ele>297.973216</ele>
        <time>2021-11-21T09:20:34.097Z</time>
      </trkpt>
      <trkpt lat="47.528941" lon="7.728048">
        <ele>298.050711</ele>
        <time>2021-11-21T09:20:40.560Z</time>
      </trkpt>
      <trkpt lat="47.528848" lon="7.728118">
        <ele>298.073436</ele>
        <time>2021-11-21T09:20:42.385Z</time>
      </trkpt>
      <trkpt lat="47.528803" lon="7.728159">
        <ele>298.084945</ele>
        <time>2021-11-21T09:20:43.233Z</time>
      </trkpt>
      <trkpt lat="47.528746" lon="7.728265">
        <ele>298.104877</ele>
        <time>2021-11-21T09:20:44.760Z</time>
      </trkpt>
      <trkpt lat="47.528715" lon="7.728334">
        <ele>298.117067</ele>
        <time>2021-11-21T09:20:45.664Z</time>
      </trkpt>
      <trkpt lat="47.528688" lon="7.728441">
        <ele>298.133868</ele>
        <time>2021-11-21T09:20:46.988Z</time>
      </trkpt>
      <trkpt lat="47.528614" lon="7.728431">
        <ele>298.150055</ele>
        <time>2021-11-21T09:20:48.213Z</time>
      </trkpt>
      <trkpt lat="47.528552" lon="7.728411">
        <ele>298.163878</ele>
        <time>2021-11-21T09:20:49.198Z</time>
      </trkpt>
      <trkpt lat="47.528408" lon="7.728307">
        <ele>298.198777</ele>
        <time>2021-11-21T09:20:51.698Z</time>
      </trkpt>
      <trkpt lat="47.528320" lon="7.728136">
        <ele>298.230402</ele>
        <time>2021-11-21T09:20:53.864Z</time>
      </trkpt>
      <trkpt lat="47.528164" lon="7.727824">
        <ele>298.287506</ele>
        <time>2021-11-21T09:20:57.509Z</time>
      </trkpt>
      <trkpt lat="47.528065" lon="7.727556">
        <ele>298.332439</ele>
        <time>2021-11-21T09:21:00.177Z</time>
      </trkpt>
      <trkpt lat="47.528009" lon="7.727429">
        <ele>298.332159</ele>
        <time>2021-11-21T09:21:01.500Z</time>
      </trkpt>
      <trkpt lat="47.527862" lon="7.727114">
        <ele>298.237079</ele>
        <time>2021-11-21T09:21:04.672Z</time>
      </trkpt>
      <trkpt lat="47.526894" lon="7.725042">
        <ele>297.899366</ele>
        <time>2021-11-21T09:21:27.462Z</time>
      </trkpt>
      <trkpt lat="47.526744" lon="7.724750">
        <ele>298.165280</ele>
        <time>2021-11-21T09:21:32.115Z</time>
      </trkpt>
      <trkpt lat="47.526099" lon="7.723563">
        <ele>299.269554</ele>
        <time>2021-11-21T09:21:53.252Z</time>
      </trkpt>
      <trkpt lat="47.525373" lon="7.722545">
        <ele>299.639819</ele>
        <time>2021-11-21T09:22:14.482Z</time>
      </trkpt>
      <trkpt lat="47.525258" lon="7.722384">
        <ele>299.645507</ele>
        <time>2021-11-21T09:22:17.270Z</time>
      </trkpt>
      <trkpt lat="47.524884" lon="7.722022">
        <ele>299.661564</ele>
        <time>2021-11-21T09:22:24.474Z</time>
      </trkpt>
      <trkpt lat="47.524632" lon="7.721805">
        <ele>299.672040</ele>
        <time>2021-11-21T09:22:28.152Z</time>
      </trkpt>
      <trkpt lat="47.524263" lon="7.721598">
        <ele>298.797681</ele>
        <time>2021-11-21T09:22:32.408Z</time>
      </trkpt>
      <trkpt lat="47.523902" lon="7.721670">
        <ele>296.907278</ele>
        <time>2021-11-21T09:22:35.957Z</time>
      </trkpt>
      <trkpt lat="47.523671" lon="7.721634">
        <ele>295.701834</ele>
        <time>2021-11-21T09:22:38.100Z</time>
      </trkpt>
      <trkpt lat="47.523300" lon="7.721328">
        <ele>293.497944</ele>
        <time>2021-11-21T09:22:42.031Z</time>
      </trkpt>
      <trkpt lat="47.523111" lon="7.721224">
        <ele>292.451560</ele>
        <time>2021-11-21T09:22:43.810Z</time>
      </trkpt>
      <trkpt lat="47.522888" lon="7.721170">
        <ele>291.278882</ele>
        <time>2021-11-21T09:22:45.908Z</time>
      </trkpt>
      <trkpt lat="47.522682" lon="7.721170">
        <ele>290.205863</ele>
        <time>2021-11-21T09:22:47.728Z</time>
      </trkpt>
      <trkpt lat="47.522498" lon="7.721207">
        <ele>289.214259</ele>
        <time>2021-11-21T09:22:49.423Z</time>
      </trkpt>
      <trkpt lat="47.522249" lon="7.721165">
        <ele>287.875965</ele>
        <time>2021-11-21T09:22:51.675Z</time>
      </trkpt>
      <trkpt lat="47.521984" lon="7.721168">
        <ele>286.460785</ele>
        <time>2021-11-21T09:22:54.031Z</time>
      </trkpt>
      <trkpt lat="47.521846" lon="7.721211">
        <ele>285.707707</ele>
        <time>2021-11-21T09:22:55.370Z</time>
      </trkpt>
      <trkpt lat="47.521722" lon="7.721283">
        <ele>284.996442</ele>
        <time>2021-11-21T09:22:56.540Z</time>
      </trkpt>
      <trkpt lat="47.521455" lon="7.721426">
        <ele>283.480230</ele>
        <time>2021-11-21T09:22:59.245Z</time>
      </trkpt>
      <trkpt lat="47.521121" lon="7.721544">
        <ele>281.646561</ele>
        <time>2021-11-21T09:23:02.548Z</time>
      </trkpt>
      <trkpt lat="47.520760" lon="7.721667">
        <ele>280.595224</ele>
        <time>2021-11-21T09:23:06.414Z</time>
      </trkpt>
      <trkpt lat="47.519305" lon="7.722165">
        <ele>279.513619</ele>
        <time>2021-11-21T09:23:26.962Z</time>
      </trkpt>
      <trkpt lat="47.518237" lon="7.722578">
        <ele>280.527450</ele>
        <time>2021-11-21T09:23:47.543Z</time>
      </trkpt>
      <trkpt lat="47.518038" lon="7.722700">
        <ele>280.762269</ele>
        <time>2021-11-21T09:23:51.636Z</time>
      </trkpt>
      <trkpt lat="47.517885" lon="7.722793">
        <ele>280.942583</ele>
        <time>2021-11-21T09:23:55.115Z</time>
      </trkpt>
      <trkpt lat="47.517269" lon="7.723372">
        <ele>282.041157</ele>
        <time>2021-11-21T09:24:10.535Z</time>
      </trkpt>
      <trkpt lat="47.516416" lon="7.724623">
        <ele>284.519852</ele>
        <time>2021-11-21T09:24:38.495Z</time>
      </trkpt>
      <trkpt lat="47.515959" lon="7.725102">
        <ele>285.642488</ele>
        <time>2021-11-21T09:24:52.191Z</time>
      </trkpt>
      <trkpt lat="47.515697" lon="7.725255">
        <ele>286.189556</ele>
        <time>2021-11-21T09:24:59.180Z</time>
      </trkpt>
      <trkpt lat="47.515140" lon="7.725368">
        <ele>287.281598</ele>
        <time>2021-11-21T09:25:13.931Z</time>
      </trkpt>
      <trkpt lat="47.514143" lon="7.725538">
        <ele>288.409288</ele>
        <time>2021-11-21T09:25:33.743Z</time>
      </trkpt>
      <trkpt lat="47.513681" lon="7.725617">
        <ele>288.124979</ele>
        <time>2021-11-21T09:25:39.117Z</time>
      </trkpt>
      <trkpt lat="47.513538" lon="7.725582">
        <ele>288.036373</ele>
        <time>2021-11-21T09:25:41.122Z</time>
      </trkpt>
      <trkpt lat="47.513232" lon="7.725318">
        <ele>287.819866</ele>
        <time>2021-11-21T09:25:45.284Z</time>
      </trkpt>
      <trkpt lat="47.513193" lon="7.725244">
        <ele>287.781110</ele>
        <time>2021-11-21T09:25:46.081Z</time>
      </trkpt>
      <trkpt lat="47.513150" lon="7.725105">
        <ele>287.717983</ele>
        <time>2021-11-21T09:25:47.109Z</time>
      </trkpt>
      <trkpt lat="47.513078" lon="7.724821">
        <ele>287.592730</ele>
        <time>2021-11-21T09:25:51.350Z</time>
      </trkpt>
      <trkpt lat="47.512976" lon="7.724418">
        <ele>287.333166</ele>
        <time>2021-11-21T09:25:54.728Z</time>
      </trkpt>
      <trkpt lat="47.512910" lon="7.724174">
        <ele>287.127440</ele>
        <time>2021-11-21T09:25:56.877Z</time>
      </trkpt>
      <trkpt lat="47.512888" lon="7.724074">
        <ele>287.045121</ele>
        <time>2021-11-21T09:25:57.616Z</time>
      </trkpt>
      <trkpt lat="47.512857" lon="7.723931">
        <ele>286.927570</ele>
        <time>2021-11-21T09:25:58.796Z</time>
      </trkpt>
      <trkpt lat="47.512277" lon="7.724501">
        <ele>286.120847</ele>
        <time>2021-11-21T09:26:09.450Z</time>
      </trkpt>
      <trkpt lat="47.512214" lon="7.724543">
        <ele>286.040780</ele>
        <time>2021-11-21T09:26:11.357Z</time>
      </trkpt>
      <trkpt lat="47.511979" lon="7.724618">
        <ele>285.762197</ele>
        <time>2021-11-21T09:26:15.396Z</time>
      </trkpt>
      <trkpt lat="47.511791" lon="7.724622">
        <ele>285.544312</ele>
        <time>2021-11-21T09:26:19.162Z</time>
      </trkpt>
      <trkpt lat="47.511606" lon="7.724590">
        <ele>285.416916</ele>
        <time>2021-11-21T09:26:23.138Z</time>
      </trkpt>
      <trkpt lat="47.510952" lon="7.724263">
        <ele>285.372652</ele>
        <time>2021-11-21T09:26:38.996Z</time>
      </trkpt>
      <trkpt lat="47.510349" lon="7.724011">
        <ele>285.332475</ele>
        <time>2021-11-21T09:26:50.527Z</time>
      </trkpt>
      <trkpt lat="47.509849" lon="7.723882">
        <ele>285.386602</ele>
        <time>2021-11-21T09:27:00.166Z</time>
      </trkpt>
      <trkpt lat="47.509672" lon="7.723906">
        <ele>285.519801</ele>
        <time>2021-11-21T09:27:03.747Z</time>
      </trkpt>
      <trkpt lat="47.509150" lon="7.724070">
        <ele>285.919698</ele>
        <time>2021-11-21T09:27:12.987Z</time>
      </trkpt>
      <trkpt lat="47.508823" lon="7.724215">
        <ele>286.175507</ele>
        <time>2021-11-21T09:27:19.410Z</time>
      </trkpt>
      <trkpt lat="47.508629" lon="7.724301">
        <ele>286.327268</ele>
        <time>2021-11-21T09:27:23.196Z</time>
      </trkpt>
      <trkpt lat="47.508425" lon="7.724317">
        <ele>286.480360</ele>
        <time>2021-11-21T09:27:28.541Z</time>
      </trkpt>
      <trkpt lat="47.508175" lon="7.724311">
        <ele>286.686190</ele>
        <time>2021-11-21T09:27:34.830Z</time>
      </trkpt>
      <trkpt lat="47.507810" lon="7.724326">
        <ele>287.346125</ele>
        <time>2021-11-21T09:27:44.354Z</time>
      </trkpt>
      <trkpt lat="47.507444" lon="7.724343">
        <ele>288.007938</ele>
        <time>2021-11-21T09:27:54.014Z</time>
      </trkpt>
      <trkpt lat="47.507064" lon="7.724278">
        <ele>288.699298</ele>
        <time>2021-11-21T09:28:04.523Z</time>
      </trkpt>
      <trkpt lat="47.506945" lon="7.724261">
        <ele>288.915371</ele>
        <time>2021-11-21T09:28:07.910Z</time>
      </trkpt>
      <trkpt lat="47.506921" lon="7.724257">
        <ele>288.959021</ele>
        <time>2021-11-21T09:28:08.580Z</time>
      </trkpt>
      <trkpt lat="47.506607" lon="7.724268">
        <ele>289.526686</ele>
        <time>2021-11-21T09:28:17.366Z</time>
      </trkpt>
      <trkpt lat="47.506453" lon="7.724284">
        <ele>289.805702</ele>
        <time>2021-11-21T09:28:22.066Z</time>
      </trkpt>
      <trkpt lat="47.505930" lon="7.724337">
        <ele>290.898495</ele>
        <time>2021-11-21T09:28:37.900Z</time>
      </trkpt>
      <trkpt lat="47.505891" lon="7.724339">
        <ele>290.981116</ele>
        <time>2021-11-21T09:28:39.085Z</time>
      </trkpt>
      <trkpt lat="47.505851" lon="7.724341">
        <ele>291.065853</ele>
        <time>2021-11-21T09:28:40.297Z</time>
      </trkpt>
      <trkpt lat="47.505783" lon="7.724344">
        <ele>291.209887</ele>
        <time>2021-11-21T09:28:42.244Z</time>
      </trkpt>
      <trkpt lat="47.505646" lon="7.724350">
        <ele>291.500071</ele>
        <time>2021-11-21T09:28:46.565Z</time>
      </trkpt>
      <trkpt lat="47.505365" lon="7.724317">
        <ele>292.096875</ele>
        <time>2021-11-21T09:28:55.047Z</time>
      </trkpt>
      <trkpt lat="47.505161" lon="7.724267">
        <ele>292.534666</ele>
        <time>2021-11-21T09:29:00.592Z</time>
      </trkpt>
      <trkpt lat="47.505073" lon="7.724246">
        <ele>292.723385</ele>
        <time>2021-11-21T09:29:03.015Z</time>
      </trkpt>
      <trkpt lat="47.505012" lon="7.724231">
        <ele>292.854305</ele>
        <time>2021-11-21T09:29:05.205Z</time>
      </trkpt>
      <trkpt lat="47.504856" lon="7.724220">
        <ele>293.184964</ele>
        <time>2021-11-21T09:29:09.330Z</time>
      </trkpt>
      <trkpt lat="47.504610" lon="7.724250">
        <ele>293.707561</ele>
        <time>2021-11-21T09:29:16.234Z</time>
      </trkpt>
      <trkpt lat="47.504514" lon="7.724269">
        <ele>293.766510</ele>
        <time>2021-11-21T09:29:18.604Z</time>
      </trkpt>
      <trkpt lat="47.504396" lon="7.724291">
        <ele>293.833519</ele>
        <time>2021-11-21T09:29:21.537Z</time>
      </trkpt>
      <trkpt lat="47.504048" lon="7.724357">
        <ele>294.031193</ele>
        <time>2021-11-21T09:29:30.408Z</time>
      </trkpt>
      <trkpt lat="47.503945" lon="7.724377">
        <ele>294.089722</ele>
        <time>2021-11-21T09:29:33.142Z</time>
      </trkpt>
      <trkpt lat="47.503494" lon="7.724462">
        <ele>294.345877</ele>
        <time>2021-11-21T09:29:43.502Z</time>
      </trkpt>
      <trkpt lat="47.503457" lon="7.724469">
        <ele>294.366893</ele>
        <time>2021-11-21T09:29:44.205Z</time>
      </trkpt>
      <trkpt lat="47.503333" lon="7.724502">
        <ele>294.437878</ele>
        <time>2021-11-21T09:29:46.695Z</time>
      </trkpt>
      <trkpt lat="47.503201" lon="7.724541">
        <ele>294.513717</ele>
        <time>2021-11-21T09:29:49.257Z</time>
      </trkpt>
      <trkpt lat="47.502794" lon="7.724635">
        <ele>294.746655</ele>
        <time>2021-11-21T09:29:56.684Z</time>
      </trkpt>
      <trkpt lat="47.502584" lon="7.724671">
        <ele>294.871134</ele>
        <time>2021-11-21T09:30:00.554Z</time>
      </trkpt>
      <trkpt lat="47.502283" lon="7.724703">
        <ele>295.048826</ele>
        <time>2021-11-21T09:30:06.213Z</time>
      </trkpt>
      <trkpt lat="47.502205" lon="7.724690">
        <ele>295.095045</ele>
        <time>2021-11-21T09:30:07.950Z</time>
      </trkpt>
      <trkpt lat="47.502179" lon="7.724686">
        <ele>295.110437</ele>
        <time>2021-11-21T09:30:08.533Z</time>
      </trkpt>
      <trkpt lat="47.502172" lon="7.724685">
        <ele>295.114577</ele>
        <time>2021-11-21T09:30:08.679Z</time>
      </trkpt>
      <trkpt lat="47.502055" lon="7.724669">
        <ele>295.183763</ele>
        <time>2021-11-21T09:30:11.422Z</time>
      </trkpt>
      <trkpt lat="47.502040" lon="7.724902">
        <ele>295.276867</ele>
        <time>2021-11-21T09:30:14.396Z</time>
      </trkpt>
      <trkpt lat="47.502029" lon="7.725074">
        <ele>295.345593</ele>
        <time>2021-11-21T09:30:16.334Z</time>
      </trkpt>
      <trkpt lat="47.502031" lon="7.725298">
        <ele>295.434705</ele>
        <time>2021-11-21T09:30:19.026Z</time>
      </trkpt>
      <trkpt lat="47.502031" lon="7.725427">
        <ele>295.486020</ele>
        <time>2021-11-21T09:30:20.983Z</time>
      </trkpt>
      <trkpt lat="47.502048" lon="7.725782">
        <ele>295.627588</ele>
        <time>2021-11-21T09:30:25.298Z</time>
      </trkpt>
      <trkpt lat="47.502115" lon="7.726246">
        <ele>295.878687</ele>
        <time>2021-11-21T09:30:32.308Z</time>
      </trkpt>
      <trkpt lat="47.502122" lon="7.726303">
        <ele>295.949120</ele>
        <time>2021-11-21T09:30:32.811Z</time>
      </trkpt>
      <trkpt lat="47.502177" lon="7.726706">
        <ele>296.448963</ele>
        <time>2021-11-21T09:30:39.205Z</time>
      </trkpt>
      <trkpt lat="47.502189" lon="7.726824">
        <ele>296.594037</ele>
        <time>2021-11-21T09:30:40.705Z</time>
      </trkpt>
      <trkpt lat="47.502204" lon="7.726964">
        <ele>296.766369</ele>
        <time>2021-11-21T09:30:43.319Z</time>
      </trkpt>
      <trkpt lat="47.502204" lon="7.726964">
        <ele>296.766369</ele>
        <time>2021-11-21T09:30:43.529Z</time>
      </trkpt>
      <trkpt lat="47.502204" lon="7.726964">
        <ele>296.766369</ele>
        <time>2021-11-21T09:30:43.610Z</time>
      </trkpt>
      <trkpt lat="47.502089" lon="7.726997">
        <ele>296.977176</ele>
        <time>2021-11-21T09:30:46.142Z</time>
      </trkpt>
      <trkpt lat="47.502070" lon="7.727002">
        <ele>297.011905</ele>
        <time>2021-11-21T09:30:46.551Z</time>
      </trkpt>
      <trkpt lat="47.501683" lon="7.727114">
        <ele>297.721538</ele>
        <time>2021-11-21T09:30:55.685Z</time>
      </trkpt>
      <trkpt lat="47.500808" lon="7.727366">
        <ele>299.142267</ele>
        <time>2021-11-21T09:31:16.307Z</time>
      </trkpt>
      <trkpt lat="47.499222" lon="7.727694">
        <ele>300.278542</ele>
        <time>2021-11-21T09:31:42.805Z</time>
      </trkpt>
      <trkpt lat="47.498171" lon="7.727736">
        <ele>300.824089</ele>
        <time>2021-11-21T09:31:59.856Z</time>
      </trkpt>
      <trkpt lat="47.496689" lon="7.727441">
        <ele>301.698671</ele>
        <time>2021-11-21T09:32:26.207Z</time>
      </trkpt>
      <trkpt lat="47.496367" lon="7.727420">
        <ele>301.912015</ele>
        <time>2021-11-21T09:32:32.071Z</time>
      </trkpt>
      <trkpt lat="47.496162" lon="7.727414">
        <ele>302.047734</ele>
        <time>2021-11-21T09:32:35.772Z</time>
      </trkpt>
      <trkpt lat="47.496039" lon="7.727411">
        <ele>302.129161</ele>
        <time>2021-11-21T09:32:37.900Z</time>
      </trkpt>
      <trkpt lat="47.495921" lon="7.727411">
        <ele>302.207267</ele>
        <time>2021-11-21T09:32:39.868Z</time>
      </trkpt>
      <trkpt lat="47.495777" lon="7.727410">
        <ele>302.302584</ele>
        <time>2021-11-21T09:32:42.451Z</time>
      </trkpt>
      <trkpt lat="47.495736" lon="7.727409">
        <ele>302.329727</ele>
        <time>2021-11-21T09:32:43.141Z</time>
      </trkpt>
      <trkpt lat="47.495388" lon="7.727405">
        <ele>302.492312</ele>
        <time>2021-11-21T09:32:49.011Z</time>
      </trkpt>
      <trkpt lat="47.493928" lon="7.727382">
        <ele>303.012825</ele>
        <time>2021-11-21T09:33:11.872Z</time>
      </trkpt>
      <trkpt lat="47.493736" lon="7.727441">
        <ele>303.126598</ele>
        <time>2021-11-21T09:33:15.204Z</time>
      </trkpt>
      <trkpt lat="47.493304" lon="7.727627">
        <ele>303.535493</ele>
        <time>2021-11-21T09:33:23.044Z</time>
      </trkpt>
      <trkpt lat="47.493051" lon="7.727844">
        <ele>303.801251</ele>
        <time>2021-11-21T09:33:28.566Z</time>
      </trkpt>
      <trkpt lat="47.492640" lon="7.728394">
        <ele>304.304838</ele>
        <time>2021-11-21T09:33:39.058Z</time>
      </trkpt>
      <trkpt lat="47.492253" lon="7.728955">
        <ele>304.833769</ele>
        <time>2021-11-21T09:33:49.585Z</time>
      </trkpt>
      <trkpt lat="47.492160" lon="7.729079">
        <ele>304.986061</ele>
        <time>2021-11-21T09:33:51.908Z</time>
      </trkpt>
      <trkpt lat="47.492018" lon="7.729265">
        <ele>305.216766</ele>
        <time>2021-11-21T09:33:55.892Z</time>
      </trkpt>
      <trkpt lat="47.491764" lon="7.729620">
        <ele>305.641807</ele>
        <time>2021-11-21T09:34:02.650Z</time>
      </trkpt>
      <trkpt lat="47.491749" lon="7.729641">
        <ele>305.666928</ele>
        <time>2021-11-21T09:34:03.412Z</time>
      </trkpt>
      <trkpt lat="47.491352" lon="7.730195">
        <ele>306.330779</ele>
        <time>2021-11-21T09:34:13.982Z</time>
      </trkpt>
      <trkpt lat="47.491274" lon="7.730304">
        <ele>306.461295</ele>
        <time>2021-11-21T09:34:16.252Z</time>
      </trkpt>
      <trkpt lat="47.491229" lon="7.730369">
        <ele>306.537798</ele>
        <time>2021-11-21T09:34:17.378Z</time>
      </trkpt>
      <trkpt lat="47.491189" lon="7.730425">
        <ele>306.604787</ele>
        <time>2021-11-21T09:34:18.409Z</time>
      </trkpt>
      <trkpt lat="47.491123" lon="7.730521">
        <ele>306.717374</ele>
        <time>2021-11-21T09:34:20.076Z</time>
      </trkpt>
      <trkpt lat="47.489972" lon="7.732312">
        <ele>309.048941</ele>
        <time>2021-11-21T09:34:53.441Z</time>
      </trkpt>
      <trkpt lat="47.489918" lon="7.732395">
        <ele>309.158824</ele>
        <time>2021-11-21T09:34:55.442Z</time>
      </trkpt>
      <trkpt lat="47.489032" lon="7.734791">
        <ele>312.475264</ele>
        <time>2021-11-21T09:35:36.993Z</time>
      </trkpt>
      <trkpt lat="47.488949" lon="7.734979">
        <ele>312.733822</ele>
        <time>2021-11-21T09:35:40.421Z</time>
      </trkpt>
      <trkpt lat="47.488804" lon="7.735382">
        <ele>312.919161</ele>
        <time>2021-11-21T09:35:46.778Z</time>
      </trkpt>
      <trkpt lat="47.488606" lon="7.735964">
        <ele>313.183670</ele>
        <time>2021-11-21T09:35:55.677Z</time>
      </trkpt>
      <trkpt lat="47.488046" lon="7.737266">
        <ele>313.808993</ele>
        <time>2021-11-21T09:36:11.634Z</time>
      </trkpt>
      <trkpt lat="47.487864" lon="7.737500">
        <ele>313.924061</ele>
        <time>2021-11-21T09:36:14.582Z</time>
      </trkpt>
      <trkpt lat="47.487621" lon="7.737779">
        <ele>314.070850</ele>
        <time>2021-11-21T09:36:18.576Z</time>
      </trkpt>
      <trkpt lat="47.487552" lon="7.737858">
        <ele>314.112487</ele>
        <time>2021-11-21T09:36:19.531Z</time>
      </trkpt>
      <trkpt lat="47.487288" lon="7.738117">
        <ele>314.263660</ele>
        <time>2021-11-21T09:36:24.008Z</time>
      </trkpt>
      <trkpt lat="47.486827" lon="7.738319">
        <ele>314.493124</ele>
        <time>2021-11-21T09:36:31.914Z</time>
      </trkpt>
      <trkpt lat="47.486689" lon="7.738358">
        <ele>314.560178</ele>
        <time>2021-11-21T09:36:35.399Z</time>
      </trkpt>
      <trkpt lat="47.486676" lon="7.738293">
        <ele>314.582041</ele>
        <time>2021-11-21T09:36:36.562Z</time>
      </trkpt>
      <trkpt lat="47.486621" lon="7.738169">
        <ele>314.629878</ele>
        <time>2021-11-21T09:36:38.104Z</time>
      </trkpt>
      <trkpt lat="47.486495" lon="7.737981">
        <ele>315.098559</ele>
        <time>2021-11-21T09:36:43.090Z</time>
      </trkpt>
      <trkpt lat="47.486384" lon="7.737805">
        <ele>315.743441</ele>
        <time>2021-11-21T09:36:46.691Z</time>
      </trkpt>
      <trkpt lat="47.486354" lon="7.737753">
        <ele>315.926593</ele>
        <time>2021-11-21T09:36:47.732Z</time>
      </trkpt>
      <trkpt lat="47.486314" lon="7.737686">
        <ele>316.166077</ele>
        <time>2021-11-21T09:36:49.433Z</time>
      </trkpt>
      <trkpt lat="47.486287" lon="7.737642">
        <ele>316.325284</ele>
        <time>2021-11-21T09:36:51.101Z</time>
      </trkpt>
      <trkpt lat="47.486087" lon="7.737329">
        <ele>317.479199</ele>
        <time>2021-11-21T09:36:59.764Z</time>
      </trkpt>
      <trkpt lat="47.485976" lon="7.737217">
        <ele>318.011754</ele>
        <time>2021-11-21T09:37:04.380Z</time>
      </trkpt>
      <trkpt lat="47.485875" lon="7.737156">
        <ele>318.444179</ele>
        <time>2021-11-21T09:37:07.834Z</time>
      </trkpt>
      <trkpt lat="47.485806" lon="7.737111">
        <ele>318.743080</ele>
        <time>2021-11-21T09:37:09.978Z</time>
      </trkpt>
      <trkpt lat="47.485750" lon="7.737070">
        <ele>318.990748</ele>
        <time>2021-11-21T09:37:12.071Z</time>
      </trkpt>
      <trkpt lat="47.485679" lon="7.737020">
        <ele>319.302436</ele>
        <time>2021-11-21T09:37:15.103Z</time>
      </trkpt>
      <trkpt lat="47.485564" lon="7.736965">
        <ele>319.781513</ele>
        <time>2021-11-21T09:37:18.992Z</time>
      </trkpt>
      <trkpt lat="47.485482" lon="7.736917">
        <ele>320.131068</ele>
        <time>2021-11-21T09:37:21.733Z</time>
      </trkpt>
      <trkpt lat="47.485412" lon="7.736871">
        <ele>320.434678</ele>
        <time>2021-11-21T09:37:24.267Z</time>
      </trkpt>
      <trkpt lat="47.485357" lon="7.736813">
        <ele>320.702395</ele>
        <time>2021-11-21T09:37:27.221Z</time>
      </trkpt>
      <trkpt lat="47.485212" lon="7.736657">
        <ele>321.413030</ele>
        <time>2021-11-21T09:37:33.040Z</time>
      </trkpt>
      <trkpt lat="47.485182" lon="7.736627">
        <ele>321.556558</ele>
        <time>2021-11-21T09:37:34.103Z</time>
      </trkpt>
      <trkpt lat="47.485143" lon="7.736599">
        <ele>321.728389</ele>
        <time>2021-11-21T09:37:35.627Z</time>
      </trkpt>
      <trkpt lat="47.485052" lon="7.736552">
        <ele>322.137324</ele>
        <time>2021-11-21T09:37:39.613Z</time>
      </trkpt>
      <trkpt lat="47.485005" lon="7.736543">
        <ele>322.341067</ele>
        <time>2021-11-21T09:37:41.350Z</time>
      </trkpt>
      <trkpt lat="47.484905" lon="7.736536">
        <ele>322.771460</ele>
        <time>2021-11-21T09:37:44.684Z</time>
      </trkpt>
      <trkpt lat="47.484870" lon="7.736533">
        <ele>322.922182</ele>
        <time>2021-11-21T09:37:45.763Z</time>
      </trkpt>
      <trkpt lat="47.484700" lon="7.736511">
        <ele>323.655823</ele>
        <time>2021-11-21T09:37:52.168Z</time>
      </trkpt>
      <trkpt lat="47.484515" lon="7.736477">
        <ele>324.457271</ele>
        <time>2021-11-21T09:37:58.756Z</time>
      </trkpt>
      <trkpt lat="47.484114" lon="7.736364">
        <ele>326.212201</ele>
        <time>2021-11-21T09:38:12.851Z</time>
      </trkpt>
      <trkpt lat="47.483917" lon="7.736315">
        <ele>327.071010</ele>
        <time>2021-11-21T09:38:19.078Z</time>
      </trkpt>
      <trkpt lat="47.483778" lon="7.736282">
        <ele>327.676231</ele>
        <time>2021-11-21T09:38:24.086Z</time>
      </trkpt>
      <trkpt lat="47.483599" lon="7.736235">
        <ele>328.457795</ele>
        <time>2021-11-21T09:38:30.357Z</time>
      </trkpt>
      <trkpt lat="47.483356" lon="7.736149">
        <ele>329.527377</ele>
        <time>2021-11-21T09:38:38.548Z</time>
      </trkpt>
      <trkpt lat="47.483352" lon="7.736146">
        <ele>329.533579</ele>
        <time>2021-11-21T09:38:38.995Z</time>
      </trkpt>
      <trkpt lat="47.483095" lon="7.735982">
        <ele>329.920631</ele>
        <time>2021-11-21T09:38:47.350Z</time>
      </trkpt>
      <trkpt lat="47.482953" lon="7.735671">
        <ele>330.271409</ele>
        <time>2021-11-21T09:38:54.599Z</time>
      </trkpt>
      <trkpt lat="47.482931" lon="7.735630">
        <ele>330.320337</ele>
        <time>2021-11-21T09:38:55.849Z</time>
      </trkpt>
      <trkpt lat="47.482843" lon="7.735675">
        <ele>330.449096</ele>
        <time>2021-11-21T09:38:57.668Z</time>
      </trkpt>
      <trkpt lat="47.482798" lon="7.735712">
        <ele>330.520290</ele>
        <time>2021-11-21T09:38:58.739Z</time>
      </trkpt>
      <trkpt lat="47.482759" lon="7.735794">
        <ele>330.614002</ele>
        <time>2021-11-21T09:39:00.369Z</time>
      </trkpt>
      <trkpt lat="47.482759" lon="7.735794">
        <ele>330.614002</ele>
        <time>2021-11-21T09:39:00.432Z</time>
      </trkpt>
      <trkpt lat="47.482759" lon="7.735794">
        <ele>330.614002</ele>
        <time>2021-11-21T09:39:00.437Z</time>
      </trkpt>
      <trkpt lat="47.482729" lon="7.735959">
        <ele>330.773694</ele>
        <time>2021-11-21T09:39:02.816Z</time>
      </trkpt>
      <trkpt lat="47.482656" lon="7.736597">
        <ele>331.378452</ele>
        <time>2021-11-21T09:39:11.210Z</time>
      </trkpt>
      <trkpt lat="47.482585" lon="7.737017">
        <ele>331.783078</ele>
        <time>2021-11-21T09:39:15.951Z</time>
      </trkpt>
      <trkpt lat="47.482503" lon="7.737397">
        <ele>331.834912</ele>
        <time>2021-11-21T09:39:19.565Z</time>
      </trkpt>
      <trkpt lat="47.482451" lon="7.737574">
        <ele>331.611249</ele>
        <time>2021-11-21T09:39:21.808Z</time>
      </trkpt>
      <trkpt lat="47.482367" lon="7.737832">
        <ele>331.279372</ele>
        <time>2021-11-21T09:39:24.077Z</time>
      </trkpt>
      <trkpt lat="47.482290" lon="7.738037">
        <ele>331.007576</ele>
        <time>2021-11-21T09:39:26.057Z</time>
      </trkpt>
      <trkpt lat="47.482267" lon="7.738104">
        <ele>330.920488</ele>
        <time>2021-11-21T09:39:26.597Z</time>
      </trkpt>
      <trkpt lat="47.482167" lon="7.738311">
        <ele>330.625615</ele>
        <time>2021-11-21T09:39:28.490Z</time>
      </trkpt>
      <trkpt lat="47.482019" lon="7.738588">
        <ele>330.216402</ele>
        <time>2021-11-21T09:39:31.149Z</time>
      </trkpt>
      <trkpt lat="47.481926" lon="7.738747">
        <ele>329.972713</ele>
        <time>2021-11-21T09:39:32.682Z</time>
      </trkpt>
      <trkpt lat="47.481699" lon="7.739130">
        <ele>329.382354</ele>
        <time>2021-11-21T09:39:36.217Z</time>
      </trkpt>
      <trkpt lat="47.481583" lon="7.739332">
        <ele>329.075161</ele>
        <time>2021-11-21T09:39:38.140Z</time>
      </trkpt>
      <trkpt lat="47.481331" lon="7.739747">
        <ele>328.248008</ele>
        <time>2021-11-21T09:39:41.996Z</time>
      </trkpt>
      <trkpt lat="47.480807" lon="7.740612">
        <ele>326.415284</ele>
        <time>2021-11-21T09:39:50.257Z</time>
      </trkpt>
      <trkpt lat="47.480792" lon="7.740633">
        <ele>326.367077</ele>
        <time>2021-11-21T09:39:50.433Z</time>
      </trkpt>
      <trkpt lat="47.480676" lon="7.740778">
        <ele>326.012578</ele>
        <time>2021-11-21T09:39:52.195Z</time>
      </trkpt>
      <trkpt lat="47.480603" lon="7.740901">
        <ele>325.754311</ele>
        <time>2021-11-21T09:39:53.582Z</time>
      </trkpt>
      <trkpt lat="47.480591" lon="7.740959">
        <ele>325.658611</ele>
        <time>2021-11-21T09:39:53.998Z</time>
      </trkpt>
      <trkpt lat="47.480539" lon="7.740961">
        <ele>325.537176</ele>
        <time>2021-11-21T09:39:54.498Z</time>
      </trkpt>
      <trkpt lat="47.480294" lon="7.741119">
        <ele>324.913264</ele>
        <time>2021-11-21T09:39:57.617Z</time>
      </trkpt>
      <trkpt lat="47.480104" lon="7.741241">
        <ele>324.682218</ele>
        <time>2021-11-21T09:39:59.858Z</time>
      </trkpt>
      <trkpt lat="47.479963" lon="7.741350">
        <ele>324.623716</ele>
        <time>2021-11-21T09:40:01.924Z</time>
      </trkpt>
      <trkpt lat="47.479843" lon="7.741440">
        <ele>324.574242</ele>
        <time>2021-11-21T09:40:03.344Z</time>
      </trkpt>
      <trkpt lat="47.479629" lon="7.741696">
        <ele>324.473042</ele>
        <time>2021-11-21T09:40:06.853Z</time>
      </trkpt>
      <trkpt lat="47.479130" lon="7.742380">
        <ele>324.222895</ele>
        <time>2021-11-21T09:40:15.991Z</time>
      </trkpt>
      <trkpt lat="47.479105" lon="7.742414">
        <ele>324.210408</ele>
        <time>2021-11-21T09:40:16.689Z</time>
      </trkpt>
      <trkpt lat="47.478949" lon="7.742644">
        <ele>324.129421</ele>
        <time>2021-11-21T09:40:20.710Z</time>
      </trkpt>
      <trkpt lat="47.478895" lon="7.742714">
        <ele>324.103020</ele>
        <time>2021-11-21T09:40:21.981Z</time>
      </trkpt>
      <trkpt lat="47.478848" lon="7.742778">
        <ele>324.079530</ele>
        <time>2021-11-21T09:40:23.231Z</time>
      </trkpt>
      <trkpt lat="47.478747" lon="7.742916">
        <ele>324.306412</ele>
        <time>2021-11-21T09:40:25.933Z</time>
      </trkpt>
      <trkpt lat="47.478673" lon="7.743018">
        <ele>324.533687</ele>
        <time>2021-11-21T09:40:28.072Z</time>
      </trkpt>
      <trkpt lat="47.478481" lon="7.743277">
        <ele>325.117558</ele>
        <time>2021-11-21T09:40:33.446Z</time>
      </trkpt>
      <trkpt lat="47.478402" lon="7.743393">
        <ele>325.367673</ele>
        <time>2021-11-21T09:40:36.561Z</time>
      </trkpt>
      <trkpt lat="47.478238" lon="7.743706">
        <ele>325.969189</ele>
        <time>2021-11-21T09:40:42.331Z</time>
      </trkpt>
      <trkpt lat="47.478165" lon="7.743883">
        <ele>326.284122</ele>
        <time>2021-11-21T09:40:45.929Z</time>
      </trkpt>
      <trkpt lat="47.478130" lon="7.743970">
        <ele>326.437897</ele>
        <time>2021-11-21T09:40:47.449Z</time>
      </trkpt>
      <trkpt lat="47.478089" lon="7.744093">
        <ele>326.646198</ele>
        <time>2021-11-21T09:40:49.485Z</time>
      </trkpt>
      <trkpt lat="47.478062" lon="7.744180">
        <ele>326.791600</ele>
        <time>2021-11-21T09:40:51.121Z</time>
      </trkpt>
      <trkpt lat="47.478021" lon="7.744260">
        <ele>326.944089</ele>
        <time>2021-11-21T09:40:53.253Z</time>
      </trkpt>
      <trkpt lat="47.477976" lon="7.744460">
        <ele>327.264246</ele>
        <time>2021-11-21T09:40:56.893Z</time>
      </trkpt>
      <trkpt lat="47.477881" lon="7.744927">
        <ele>328.004974</ele>
        <time>2021-11-21T09:41:06.105Z</time>
      </trkpt>
      <trkpt lat="47.477870" lon="7.744978">
        <ele>328.086284</ele>
        <time>2021-11-21T09:41:06.983Z</time>
      </trkpt>
      <trkpt lat="47.477849" lon="7.745070">
        <ele>328.296856</ele>
        <time>2021-11-21T09:41:08.606Z</time>
      </trkpt>
      <trkpt lat="47.477786" lon="7.745056">
        <ele>328.512949</ele>
        <time>2021-11-21T09:41:10.283Z</time>
      </trkpt>
      <trkpt lat="47.477736" lon="7.745053">
        <ele>328.682688</ele>
        <time>2021-11-21T09:41:12.326Z</time>
      </trkpt>
      <trkpt lat="47.476942" lon="7.745085">
        <ele>331.376932</ele>
        <time>2021-11-21T09:41:35.106Z</time>
      </trkpt>
      <trkpt lat="47.476878" lon="7.745112">
        <ele>331.602673</ele>
        <time>2021-11-21T09:41:37.265Z</time>
      </trkpt>
      <trkpt lat="47.476266" lon="7.745001">
        <ele>333.694114</ele>
        <time>2021-11-21T09:41:54.690Z</time>
      </trkpt>
      <trkpt lat="47.476020" lon="7.744951">
        <ele>334.450238</ele>
        <time>2021-11-21T09:42:01.555Z</time>
      </trkpt>
      <trkpt lat="47.475441" lon="7.744847">
        <ele>335.904975</ele>
        <time>2021-11-21T09:42:17.374Z</time>
      </trkpt>
      <trkpt lat="47.475301" lon="7.744824">
        <ele>336.256307</ele>
        <time>2021-11-21T09:42:21.264Z</time>
      </trkpt>
      <trkpt lat="47.475240" lon="7.744800">
        <ele>336.413740</ele>
        <time>2021-11-21T09:42:22.917Z</time>
      </trkpt>
      <trkpt lat="47.475040" lon="7.744695">
        <ele>336.943052</ele>
        <time>2021-11-21T09:42:27.939Z</time>
      </trkpt>
      <trkpt lat="47.474911" lon="7.744614">
        <ele>337.292580</ele>
        <time>2021-11-21T09:42:31.598Z</time>
      </trkpt>
      <trkpt lat="47.474825" lon="7.744552">
        <ele>337.531191</ele>
        <time>2021-11-21T09:42:33.655Z</time>
      </trkpt>
      <trkpt lat="47.474802" lon="7.744534">
        <ele>337.596089</ele>
        <time>2021-11-21T09:42:34.220Z</time>
      </trkpt>
      <trkpt lat="47.474415" lon="7.744233">
        <ele>338.686596</ele>
        <time>2021-11-21T09:42:44.341Z</time>
      </trkpt>
      <trkpt lat="47.473167" lon="7.743264">
        <ele>340.081776</ele>
        <time>2021-11-21T09:43:11.366Z</time>
      </trkpt>
      <trkpt lat="47.473017" lon="7.743146">
        <ele>340.249182</ele>
        <time>2021-11-21T09:43:13.977Z</time>
      </trkpt>
      <trkpt lat="47.472975" lon="7.743113">
        <ele>340.296043</ele>
        <time>2021-11-21T09:43:14.697Z</time>
      </trkpt>
      <trkpt lat="47.472647" lon="7.742849">
        <ele>340.543903</ele>
        <time>2021-11-21T09:43:20.462Z</time>
      </trkpt>
      <trkpt lat="47.472097" lon="7.742408">
        <ele>340.779844</ele>
        <time>2021-11-21T09:43:29.884Z</time>
      </trkpt>
      <trkpt lat="47.470851" lon="7.741453">
        <ele>341.790933</ele>
        <time>2021-11-21T09:43:53.553Z</time>
      </trkpt>
      <trkpt lat="47.470256" lon="7.740990">
        <ele>342.801927</ele>
        <time>2021-11-21T09:44:07.529Z</time>
      </trkpt>
      <trkpt lat="47.467978" lon="7.739203">
        <ele>347.999844</ele>
        <time>2021-11-21T09:45:08.367Z</time>
      </trkpt>
      <trkpt lat="47.467405" lon="7.738857">
        <ele>349.309309</ele>
        <time>2021-11-21T09:45:23.190Z</time>
      </trkpt>
      <trkpt lat="47.467174" lon="7.738757">
        <ele>349.818556</ele>
        <time>2021-11-21T09:45:28.950Z</time>
      </trkpt>
      <trkpt lat="47.467080" lon="7.738726">
        <ele>350.022323</ele>
        <time>2021-11-21T09:45:31.229Z</time>
      </trkpt>
      <trkpt lat="47.466320" lon="7.738600">
        <ele>351.638783</ele>
        <time>2021-11-21T09:45:48.769Z</time>
      </trkpt>
      <trkpt lat="47.466070" lon="7.738615">
        <ele>352.040604</ele>
        <time>2021-11-21T09:45:54.482Z</time>
      </trkpt>
      <trkpt lat="47.466017" lon="7.738617">
        <ele>352.125747</ele>
        <time>2021-11-21T09:45:55.654Z</time>
      </trkpt>
      <trkpt lat="47.465278" lon="7.738667">
        <ele>353.313795</ele>
        <time>2021-11-21T09:46:11.363Z</time>
      </trkpt>
      <trkpt lat="47.465111" lon="7.738724">
        <ele>353.589038</ele>
        <time>2021-11-21T09:46:14.917Z</time>
      </trkpt>
      <trkpt lat="47.464818" lon="7.738771">
        <ele>354.062344</ele>
        <time>2021-11-21T09:46:20.894Z</time>
      </trkpt>
      <trkpt lat="47.464525" lon="7.738789">
        <ele>354.531413</ele>
        <time>2021-11-21T09:46:26.936Z</time>
      </trkpt>
      <trkpt lat="47.464246" lon="7.738800">
        <ele>354.903107</ele>
        <time>2021-11-21T09:46:32.567Z</time>
      </trkpt>
      <trkpt lat="47.462754" lon="7.738927">
        <ele>356.893386</ele>
        <time>2021-11-21T09:47:03.018Z</time>
      </trkpt>
      <trkpt lat="47.462428" lon="7.738996">
        <ele>357.315643</ele>
        <time>2021-11-21T09:47:09.046Z</time>
      </trkpt>
      <trkpt lat="47.462257" lon="7.739044">
        <ele>357.538309</ele>
        <time>2021-11-21T09:47:12.069Z</time>
      </trkpt>
      <trkpt lat="47.462058" lon="7.739121">
        <ele>357.801458</ele>
        <time>2021-11-21T09:47:16.372Z</time>
      </trkpt>
      <trkpt lat="47.461764" lon="7.739271">
        <ele>358.199322</ele>
        <time>2021-11-21T09:47:22.553Z</time>
      </trkpt>
      <trkpt lat="47.461511" lon="7.739436">
        <ele>358.553053</ele>
        <time>2021-11-21T09:47:27.787Z</time>
      </trkpt>
      <trkpt lat="47.461070" lon="7.739839">
        <ele>359.216220</ele>
        <time>2021-11-21T09:47:38.753Z</time>
      </trkpt>
      <trkpt lat="47.460986" lon="7.739937">
        <ele>359.350464</ele>
        <time>2021-11-21T09:47:40.613Z</time>
      </trkpt>
      <trkpt lat="47.460849" lon="7.740105">
        <ele>359.573688</ele>
        <time>2021-11-21T09:47:44.757Z</time>
      </trkpt>
      <trkpt lat="47.460198" lon="7.741001">
        <ele>360.689119</ele>
        <time>2021-11-21T09:48:02.867Z</time>
      </trkpt>
      <trkpt lat="47.459971" lon="7.741305">
        <ele>361.073230</ele>
        <time>2021-11-21T09:48:09.037Z</time>
      </trkpt>
      <trkpt lat="47.459913" lon="7.741325">
        <ele>361.147932</ele>
        <time>2021-11-21T09:48:10.040Z</time>
      </trkpt>
      <trkpt lat="47.459783" lon="7.741480">
        <ele>361.357382</ele>
        <time>2021-11-21T09:48:13.600Z</time>
      </trkpt>
      <trkpt lat="47.459608" lon="7.741712">
        <ele>361.464067</ele>
        <time>2021-11-21T09:48:17.774Z</time>
      </trkpt>
      <trkpt lat="47.459358" lon="7.742054">
        <ele>361.438318</ele>
        <time>2021-11-21T09:48:23.280Z</time>
      </trkpt>
      <trkpt lat="47.459335" lon="7.742086">
        <ele>361.435930</ele>
        <time>2021-11-21T09:48:23.825Z</time>
      </trkpt>
      <trkpt lat="47.459262" lon="7.742192">
        <ele>361.428195</ele>
        <time>2021-11-21T09:48:25.328Z</time>
      </trkpt>
      <trkpt lat="47.459161" lon="7.742348">
        <ele>361.417153</ele>
        <time>2021-11-21T09:48:27.270Z</time>
      </trkpt>
      <trkpt lat="47.459104" lon="7.742436">
        <ele>361.410923</ele>
        <time>2021-11-21T09:48:28.362Z</time>
      </trkpt>
      <trkpt lat="47.458942" lon="7.742676">
        <ele>361.393585</ele>
        <time>2021-11-21T09:48:31.472Z</time>
      </trkpt>
      <trkpt lat="47.458180" lon="7.743736">
        <ele>361.516733</ele>
        <time>2021-11-21T09:48:45.251Z</time>
      </trkpt>
      <trkpt lat="47.458097" lon="7.743895">
        <ele>361.592032</ele>
        <time>2021-11-21T09:48:47.061Z</time>
      </trkpt>
      <trkpt lat="47.457850" lon="7.744234">
        <ele>361.778851</ele>
        <time>2021-11-21T09:48:51.969Z</time>
      </trkpt>
      <trkpt lat="47.457302" lon="7.744993">
        <ele>362.195095</ele>
        <time>2021-11-21T09:49:05.876Z</time>
      </trkpt>
      <trkpt lat="47.457103" lon="7.745266">
        <ele>362.366529</ele>
        <time>2021-11-21T09:49:11.913Z</time>
      </trkpt>
      <trkpt lat="47.456072" lon="7.746683">
        <ele>364.846156</ele>
        <time>2021-11-21T09:49:44.228Z</time>
      </trkpt>
      <trkpt lat="47.456014" lon="7.746745">
        <ele>364.972237</ele>
        <time>2021-11-21T09:49:45.848Z</time>
      </trkpt>
      <trkpt lat="47.455618" lon="7.747172">
        <ele>365.744815</ele>
        <time>2021-11-21T09:49:55.498Z</time>
      </trkpt>
      <trkpt lat="47.453184" lon="7.748733">
        <ele>370.171234</ele>
        <time>2021-11-21T09:50:47.705Z</time>
      </trkpt>
      <trkpt lat="47.452785" lon="7.748985">
        <ele>371.156868</ele>
        <time>2021-11-21T09:50:58.997Z</time>
      </trkpt>
      <trkpt lat="47.452651" lon="7.749069">
        <ele>371.487503</ele>
        <time>2021-11-21T09:51:03.636Z</time>
      </trkpt>
      <trkpt lat="47.452067" lon="7.749491">
        <ele>374.401281</ele>
        <time>2021-11-21T09:51:24.591Z</time>
      </trkpt>
      <trkpt lat="47.451732" lon="7.749739">
        <ele>376.390825</ele>
        <time>2021-11-21T09:51:38.255Z</time>
      </trkpt>
      <trkpt lat="47.451310" lon="7.750030">
        <ele>378.863605</ele>
        <time>2021-11-21T09:51:57.103Z</time>
      </trkpt>
      <trkpt lat="47.451102" lon="7.750197">
        <ele>380.120530</ele>
        <time>2021-11-21T09:52:06.207Z</time>
      </trkpt>
      <trkpt lat="47.450829" lon="7.750425">
        <ele>381.688319</ele>
        <time>2021-11-21T09:52:17.926Z</time>
      </trkpt>
      <trkpt lat="47.450534" lon="7.750678">
        <ele>382.987032</ele>
        <time>2021-11-21T09:52:30.748Z</time>
      </trkpt>
      <trkpt lat="47.450300" lon="7.750889">
        <ele>384.030778</ele>
        <time>2021-11-21T09:52:40.596Z</time>
      </trkpt>
      <trkpt lat="47.450098" lon="7.751078">
        <ele>384.941106</ele>
        <time>2021-11-21T09:52:48.810Z</time>
      </trkpt>
      <trkpt lat="47.448903" lon="7.752305">
        <ele>388.155071</ele>
        <time>2021-11-21T09:53:23.230Z</time>
      </trkpt>
      <trkpt lat="47.448053" lon="7.753318">
        <ele>387.895925</ele>
        <time>2021-11-21T09:53:36.114Z</time>
      </trkpt>
      <trkpt lat="47.447682" lon="7.753856">
        <ele>387.079072</ele>
        <time>2021-11-21T09:53:41.748Z</time>
      </trkpt>
      <trkpt lat="47.446908" lon="7.755161">
        <ele>384.700757</ele>
        <time>2021-11-21T09:53:54.340Z</time>
      </trkpt>
      <trkpt lat="47.446380" lon="7.755845">
        <ele>384.203740</ele>
        <time>2021-11-21T09:54:02.442Z</time>
      </trkpt>
      <trkpt lat="47.446148" lon="7.756104">
        <ele>384.193303</ele>
        <time>2021-11-21T09:54:06.093Z</time>
      </trkpt>
      <trkpt lat="47.445858" lon="7.756435">
        <ele>384.180150</ele>
        <time>2021-11-21T09:54:11.304Z</time>
      </trkpt>
      <trkpt lat="47.445278" lon="7.757084">
        <ele>384.288872</ele>
        <time>2021-11-21T09:54:25.493Z</time>
      </trkpt>
      <trkpt lat="47.444843" lon="7.757585">
        <ele>385.737039</ele>
        <time>2021-11-21T09:54:38.589Z</time>
      </trkpt>
      <trkpt lat="47.444749" lon="7.757695">
        <ele>386.051883</ele>
        <time>2021-11-21T09:54:41.611Z</time>
      </trkpt>
      <trkpt lat="47.444198" lon="7.758252">
        <ele>387.804910</ele>
        <time>2021-11-21T09:54:58.834Z</time>
      </trkpt>
      <trkpt lat="47.443856" lon="7.758691">
        <ele>389.058543</ele>
        <time>2021-11-21T09:55:11.932Z</time>
      </trkpt>
      <trkpt lat="47.443560" lon="7.758889">
        <ele>390.389544</ele>
        <time>2021-11-21T09:55:21.701Z</time>
      </trkpt>
      <trkpt lat="47.443134" lon="7.759475">
        <ele>392.773310</ele>
        <time>2021-11-21T09:55:39.260Z</time>
      </trkpt>
      <trkpt lat="47.442943" lon="7.759844">
        <ele>394.060819</ele>
        <time>2021-11-21T09:55:49.265Z</time>
      </trkpt>
      <trkpt lat="47.443002" lon="7.759874">
        <ele>394.316428</ele>
        <time>2021-11-21T09:55:50.925Z</time>
      </trkpt>
      <trkpt lat="47.443041" lon="7.759900">
        <ele>394.491697</ele>
        <time>2021-11-21T09:55:52.117Z</time>
      </trkpt>
      <trkpt lat="47.443200" lon="7.760059">
        <ele>395.278094</ele>
        <time>2021-11-21T09:55:58.572Z</time>
      </trkpt>
      <trkpt lat="47.443255" lon="7.760116">
        <ele>395.553261</ele>
        <time>2021-11-21T09:56:00.688Z</time>
      </trkpt>
      <trkpt lat="47.443178" lon="7.760281">
        <ele>396.108716</ele>
        <time>2021-11-21T09:56:05.133Z</time>
      </trkpt>
      <trkpt lat="47.443112" lon="7.760477">
        <ele>396.762564</ele>
        <time>2021-11-21T09:56:10.978Z</time>
      </trkpt>
      <trkpt lat="47.443049" lon="7.760704">
        <ele>397.511160</ele>
        <time>2021-11-21T09:56:16.308Z</time>
      </trkpt>
      <trkpt lat="47.442878" lon="7.761382">
        <ele>399.718821</ele>
        <time>2021-11-21T09:56:34.058Z</time>
      </trkpt>
      <trkpt lat="47.442562" lon="7.762024">
        <ele>402.141309</ele>
        <time>2021-11-21T09:56:51.966Z</time>
      </trkpt>
      <trkpt lat="47.442389" lon="7.762334">
        <ele>403.367501</ele>
        <time>2021-11-21T09:57:00.319Z</time>
      </trkpt>
      <trkpt lat="47.442382" lon="7.762437">
        <ele>403.683330</ele>
        <time>2021-11-21T09:57:02.161Z</time>
      </trkpt>
      <trkpt lat="47.441500" lon="7.763896">
        <ele>407.620175</ele>
        <time>2021-11-21T09:57:40.868Z</time>
      </trkpt>
      <trkpt lat="47.441114" lon="7.764541">
        <ele>409.238008</ele>
        <time>2021-11-21T09:57:53.101Z</time>
      </trkpt>
      <trkpt lat="47.440724" lon="7.765190">
        <ele>409.880163</ele>
        <time>2021-11-21T09:58:03.799Z</time>
      </trkpt>
      <trkpt lat="47.440245" lon="7.765985">
        <ele>410.571478</ele>
        <time>2021-11-21T09:58:17.198Z</time>
      </trkpt>
      <trkpt lat="47.439603" lon="7.767042">
        <ele>411.799532</ele>
        <time>2021-11-21T09:58:33.955Z</time>
      </trkpt>
      <trkpt lat="47.439506" lon="7.767200">
        <ele>412.041538</ele>
        <time>2021-11-21T09:58:37.156Z</time>
      </trkpt>
      <trkpt lat="47.439053" lon="7.767936">
        <ele>413.170159</ele>
        <time>2021-11-21T09:58:50.429Z</time>
      </trkpt>
      <trkpt lat="47.438943" lon="7.768114">
        <ele>413.443615</ele>
        <time>2021-11-21T09:58:53.823Z</time>
      </trkpt>
      <trkpt lat="47.438768" lon="7.768399">
        <ele>413.880183</ele>
        <time>2021-11-21T09:59:00.606Z</time>
      </trkpt>
      <trkpt lat="47.437853" lon="7.769608">
        <ele>417.810209</ele>
        <time>2021-11-21T09:59:36.279Z</time>
      </trkpt>
      <trkpt lat="47.437408" lon="7.770018">
        <ele>419.585405</ele>
        <time>2021-11-21T09:59:51.972Z</time>
      </trkpt>
      <trkpt lat="47.437200" lon="7.770210">
        <ele>420.339393</ele>
        <time>2021-11-21T09:59:59.280Z</time>
      </trkpt>
      <trkpt lat="47.435758" lon="7.771905">
        <ele>424.085490</ele>
        <time>2021-11-21T10:00:44.250Z</time>
      </trkpt>
      <trkpt lat="47.434841" lon="7.772600">
        <ele>422.811209</ele>
        <time>2021-11-21T10:00:56.647Z</time>
      </trkpt>
      <trkpt lat="47.434141" lon="7.773072">
        <ele>421.649199</ele>
        <time>2021-11-21T10:01:04.718Z</time>
      </trkpt>
      <trkpt lat="47.434119" lon="7.772984">
        <ele>421.450763</ele>
        <time>2021-11-21T10:01:05.554Z</time>
      </trkpt>
      <trkpt lat="47.433941" lon="7.773088">
        <ele>420.852289</ele>
        <time>2021-11-21T10:01:07.559Z</time>
      </trkpt>
      <trkpt lat="47.433246" lon="7.773363">
        <ele>418.602622</ele>
        <time>2021-11-21T10:01:14.726Z</time>
      </trkpt>
      <trkpt lat="47.432741" lon="7.773429">
        <ele>417.017398</ele>
        <time>2021-11-21T10:01:19.753Z</time>
      </trkpt>
      <trkpt lat="47.432060" lon="7.773355">
        <ele>416.019745</ele>
        <time>2021-11-21T10:01:27.020Z</time>
      </trkpt>
      <trkpt lat="47.431423" lon="7.773118">
        <ele>415.532529</ele>
        <time>2021-11-21T10:01:35.188Z</time>
      </trkpt>
      <trkpt lat="47.431011" lon="7.772908">
        <ele>415.209281</ele>
        <time>2021-11-21T10:01:42.003Z</time>
      </trkpt>
      <trkpt lat="47.430283" lon="7.772555">
        <ele>416.171415</ele>
        <time>2021-11-21T10:01:57.974Z</time>
      </trkpt>
      <trkpt lat="47.429020" lon="7.771862">
        <ele>418.994893</ele>
        <time>2021-11-21T10:02:31.910Z</time>
      </trkpt>
      <trkpt lat="47.428770" lon="7.771707">
        <ele>419.515585</ele>
        <time>2021-11-21T10:02:38.423Z</time>
      </trkpt>
      <trkpt lat="47.427870" lon="7.771359">
        <ele>421.302345</ele>
        <time>2021-11-21T10:02:59.854Z</time>
      </trkpt>
      <trkpt lat="47.427740" lon="7.771340">
        <ele>421.553249</ele>
        <time>2021-11-21T10:03:02.426Z</time>
      </trkpt>
      <trkpt lat="47.427702" lon="7.771335">
        <ele>421.626522</ele>
        <time>2021-11-21T10:03:03.167Z</time>
      </trkpt>
      <trkpt lat="47.427593" lon="7.771328">
        <ele>421.836072</ele>
        <time>2021-11-21T10:03:05.630Z</time>
      </trkpt>
      <trkpt lat="47.427296" lon="7.771252">
        <ele>422.389776</ele>
        <time>2021-11-21T10:03:11.319Z</time>
      </trkpt>
      <trkpt lat="47.427175" lon="7.771179">
        <ele>422.592107</ele>
        <time>2021-11-21T10:03:14.020Z</time>
      </trkpt>
      <trkpt lat="47.427112" lon="7.771125">
        <ele>422.704854</ele>
        <time>2021-11-21T10:03:15.350Z</time>
      </trkpt>
      <trkpt lat="47.426997" lon="7.771000">
        <ele>422.925848</ele>
        <time>2021-11-21T10:03:18.020Z</time>
      </trkpt>
      <trkpt lat="47.426977" lon="7.770973">
        <ele>422.967782</ele>
        <time>2021-11-21T10:03:18.688Z</time>
      </trkpt>
      <trkpt lat="47.426821" lon="7.770734">
        <ele>423.315620</ele>
        <time>2021-11-21T10:03:23.048Z</time>
      </trkpt>
      <trkpt lat="47.426586" lon="7.770441">
        <ele>423.791585</ele>
        <time>2021-11-21T10:03:29.543Z</time>
      </trkpt>
      <trkpt lat="47.426561" lon="7.770421">
        <ele>423.835594</ele>
        <time>2021-11-21T10:03:30.102Z</time>
      </trkpt>
      <trkpt lat="47.426442" lon="7.770325">
        <ele>424.045479</ele>
        <time>2021-11-21T10:03:33.013Z</time>
      </trkpt>
      <trkpt lat="47.426137" lon="7.770135">
        <ele>424.557892</ele>
        <time>2021-11-21T10:03:40.619Z</time>
      </trkpt>
      <trkpt lat="47.425937" lon="7.770017">
        <ele>424.891281</ele>
        <time>2021-11-21T10:03:45.299Z</time>
      </trkpt>
      <trkpt lat="47.425665" lon="7.769858">
        <ele>425.447690</ele>
        <time>2021-11-21T10:03:51.593Z</time>
      </trkpt>
      <trkpt lat="47.425372" lon="7.769666">
        <ele>426.131067</ele>
        <time>2021-11-21T10:03:58.497Z</time>
      </trkpt>
      <trkpt lat="47.425140" lon="7.769501">
        <ele>426.680023</ele>
        <time>2021-11-21T10:04:04.492Z</time>
      </trkpt>
      <trkpt lat="47.424876" lon="7.769315">
        <ele>427.303601</ele>
        <time>2021-11-21T10:04:11.186Z</time>
      </trkpt>
      <trkpt lat="47.424861" lon="7.769306">
        <ele>427.338118</ele>
        <time>2021-11-21T10:04:11.847Z</time>
      </trkpt>
      <trkpt lat="47.424704" lon="7.769209">
        <ele>427.700942</ele>
        <time>2021-11-21T10:04:15.663Z</time>
      </trkpt>
      <trkpt lat="47.424599" lon="7.769145">
        <ele>427.943112</ele>
        <time>2021-11-21T10:04:18.456Z</time>
      </trkpt>
      <trkpt lat="47.424448" lon="7.769050">
        <ele>428.293027</ele>
        <time>2021-11-21T10:04:22.379Z</time>
      </trkpt>
      <trkpt lat="47.424384" lon="7.769015">
        <ele>428.438529</ele>
        <time>2021-11-21T10:04:24.040Z</time>
      </trkpt>
      <trkpt lat="47.424202" lon="7.768896">
        <ele>428.862864</ele>
        <time>2021-11-21T10:04:29.239Z</time>
      </trkpt>
      <trkpt lat="47.424097" lon="7.768835">
        <ele>429.119712</ele>
        <time>2021-11-21T10:04:31.824Z</time>
      </trkpt>
      <trkpt lat="47.423979" lon="7.768752">
        <ele>429.421189</ele>
        <time>2021-11-21T10:04:35.405Z</time>
      </trkpt>
      <trkpt lat="47.423761" lon="7.768539">
        <ele>430.024062</ele>
        <time>2021-11-21T10:04:41.933Z</time>
      </trkpt>
      <trkpt lat="47.423232" lon="7.767959">
        <ele>431.543567</ele>
        <time>2021-11-21T10:04:57.582Z</time>
      </trkpt>
      <trkpt lat="47.423119" lon="7.767830">
        <ele>431.872960</ele>
        <time>2021-11-21T10:05:01.199Z</time>
      </trkpt>
      <trkpt lat="47.422830" lon="7.767512">
        <ele>432.704149</ele>
        <time>2021-11-21T10:05:09.598Z</time>
      </trkpt>
      <trkpt lat="47.422420" lon="7.767061">
        <ele>433.743231</ele>
        <time>2021-11-21T10:05:21.411Z</time>
      </trkpt>
      <trkpt lat="47.422000" lon="7.766596">
        <ele>434.749473</ele>
        <time>2021-11-21T10:05:33.407Z</time>
      </trkpt>
      <trkpt lat="47.421552" lon="7.766115">
        <ele>435.811248</ele>
        <time>2021-11-21T10:05:45.488Z</time>
      </trkpt>
      <trkpt lat="47.421282" lon="7.765827">
        <ele>436.449722</ele>
        <time>2021-11-21T10:05:52.580Z</time>
      </trkpt>
      <trkpt lat="47.420157" lon="7.764659">
        <ele>439.070098</ele>
        <time>2021-11-21T10:06:23.697Z</time>
      </trkpt>
      <trkpt lat="47.419772" lon="7.764298">
        <ele>439.938665</ele>
        <time>2021-11-21T10:06:33.883Z</time>
      </trkpt>
      <trkpt lat="47.419279" lon="7.763797">
        <ele>441.032429</ele>
        <time>2021-11-21T10:06:47.347Z</time>
      </trkpt>
      <trkpt lat="47.418427" lon="7.762968">
        <ele>442.897243</ele>
        <time>2021-11-21T10:07:09.867Z</time>
      </trkpt>
      <trkpt lat="47.418350" lon="7.762893">
        <ele>443.065830</ele>
        <time>2021-11-21T10:07:12.052Z</time>
      </trkpt>
      <trkpt lat="47.418108" lon="7.762666">
        <ele>443.645520</ele>
        <time>2021-11-21T10:07:18.185Z</time>
      </trkpt>
      <trkpt lat="47.417792" lon="7.762365">
        <ele>444.435971</ele>
        <time>2021-11-21T10:07:26.341Z</time>
      </trkpt>
      <trkpt lat="47.417666" lon="7.762248">
        <ele>444.748846</ele>
        <time>2021-11-21T10:07:29.651Z</time>
      </trkpt>
      <trkpt lat="47.417126" lon="7.761784">
        <ele>446.062183</ele>
        <time>2021-11-21T10:07:44.243Z</time>
      </trkpt>
      <trkpt lat="47.416792" lon="7.761347">
        <ele>447.000105</ele>
        <time>2021-11-21T10:07:54.967Z</time>
      </trkpt>
      <trkpt lat="47.416052" lon="7.759740">
        <ele>450.660044</ele>
        <time>2021-11-21T10:08:29.294Z</time>
      </trkpt>
      <trkpt lat="47.415747" lon="7.759291">
        <ele>451.858001</ele>
        <time>2021-11-21T10:08:40.840Z</time>
      </trkpt>
      <trkpt lat="47.415402" lon="7.758996">
        <ele>452.920911</ele>
        <time>2021-11-21T10:08:51.456Z</time>
      </trkpt>
      <trkpt lat="47.414242" lon="7.758407">
        <ele>456.169934</ele>
        <time>2021-11-21T10:09:22.971Z</time>
      </trkpt>
      <trkpt lat="47.413354" lon="7.757794">
        <ele>458.361693</ele>
        <time>2021-11-21T10:09:45.639Z</time>
      </trkpt>
      <trkpt lat="47.413130" lon="7.757630">
        <ele>458.889711</ele>
        <time>2021-11-21T10:09:51.258Z</time>
      </trkpt>
      <trkpt lat="47.412976" lon="7.757506">
        <ele>459.260142</ele>
        <time>2021-11-21T10:09:54.960Z</time>
      </trkpt>
      <trkpt lat="47.412140" lon="7.757109">
        <ele>461.615607</ele>
        <time>2021-11-21T10:10:14.450Z</time>
      </trkpt>
      <trkpt lat="47.411231" lon="7.756194">
        <ele>466.069946</ele>
        <time>2021-11-21T10:10:48.196Z</time>
      </trkpt>
      <trkpt lat="47.410819" lon="7.755776">
        <ele>468.065301</ele>
        <time>2021-11-21T10:11:08.566Z</time>
      </trkpt>
      <trkpt lat="47.410249" lon="7.755193">
        <ele>470.538558</ele>
        <time>2021-11-21T10:11:32.766Z</time>
      </trkpt>
      <trkpt lat="47.409760" lon="7.754676">
        <ele>472.683770</ele>
        <time>2021-11-21T10:11:51.053Z</time>
      </trkpt>
      <trkpt lat="47.409608" lon="7.754510">
        <ele>473.358108</ele>
        <time>2021-11-21T10:11:56.729Z</time>
      </trkpt>
      <trkpt lat="47.409489" lon="7.754401">
        <ele>473.857624</ele>
        <time>2021-11-21T10:11:58.513Z</time>
      </trkpt>
      <trkpt lat="47.409359" lon="7.754282">
        <ele>474.217232</ele>
        <time>2021-11-21T10:12:01.662Z</time>
      </trkpt>
      <trkpt lat="47.408436" lon="7.753348">
        <ele>472.614734</ele>
        <time>2021-11-21T10:12:15.047Z</time>
      </trkpt>
      <trkpt lat="47.408293" lon="7.753211">
        <ele>472.370601</ele>
        <time>2021-11-21T10:12:16.702Z</time>
      </trkpt>
      <trkpt lat="47.408184" lon="7.753119">
        <ele>472.190783</ele>
        <time>2021-11-21T10:12:17.879Z</time>
      </trkpt>
      <trkpt lat="47.407673" lon="7.752793">
        <ele>471.575366</ele>
        <time>2021-11-21T10:12:23.707Z</time>
      </trkpt>
      <trkpt lat="47.407314" lon="7.752624">
        <ele>471.362300</ele>
        <time>2021-11-21T10:12:27.930Z</time>
      </trkpt>
      <trkpt lat="47.407064" lon="7.752527">
        <ele>471.216134</ele>
        <time>2021-11-21T10:12:31.137Z</time>
      </trkpt>
      <trkpt lat="47.406921" lon="7.752457">
        <ele>471.130946</ele>
        <time>2021-11-21T10:12:32.862Z</time>
      </trkpt>
      <trkpt lat="47.406774" lon="7.752394">
        <ele>471.044393</ele>
        <time>2021-11-21T10:12:35.122Z</time>
      </trkpt>
      <trkpt lat="47.406667" lon="7.752359">
        <ele>470.982420</ele>
        <time>2021-11-21T10:12:37.175Z</time>
      </trkpt>
      <trkpt lat="47.406458" lon="7.752320">
        <ele>470.863294</ele>
        <time>2021-11-21T10:12:40.861Z</time>
      </trkpt>
      <trkpt lat="47.406028" lon="7.752259">
        <ele>470.939094</ele>
        <time>2021-11-21T10:12:49.504Z</time>
      </trkpt>
      <trkpt lat="47.405500" lon="7.752177">
        <ele>472.299365</ele>
        <time>2021-11-21T10:13:01.741Z</time>
      </trkpt>
      <trkpt lat="47.405318" lon="7.752130">
        <ele>472.772746</ele>
        <time>2021-11-21T10:13:06.405Z</time>
      </trkpt>
      <trkpt lat="47.405135" lon="7.752076">
        <ele>473.250880</ele>
        <time>2021-11-21T10:13:11.174Z</time>
      </trkpt>
      <trkpt lat="47.404962" lon="7.752020">
        <ele>473.704645</ele>
        <time>2021-11-21T10:13:15.893Z</time>
      </trkpt>
      <trkpt lat="47.404757" lon="7.751955">
        <ele>474.241846</ele>
        <time>2021-11-21T10:13:21.450Z</time>
      </trkpt>
      <trkpt lat="47.404398" lon="7.751774">
        <ele>475.213738</ele>
        <time>2021-11-21T10:13:31.991Z</time>
      </trkpt>
      <trkpt lat="47.404311" lon="7.751716">
        <ele>475.526146</ele>
        <time>2021-11-21T10:13:34.972Z</time>
      </trkpt>
      <trkpt lat="47.404214" lon="7.751646">
        <ele>475.911232</ele>
        <time>2021-11-21T10:13:38.011Z</time>
      </trkpt>
      <trkpt lat="47.404048" lon="7.751509">
        <ele>476.589505</ele>
        <time>2021-11-21T10:13:43.694Z</time>
      </trkpt>
      <trkpt lat="47.403730" lon="7.751223">
        <ele>477.917509</ele>
        <time>2021-11-21T10:13:55.325Z</time>
      </trkpt>
      <trkpt lat="47.403097" lon="7.750650">
        <ele>480.565649</ele>
        <time>2021-11-21T10:14:17.835Z</time>
      </trkpt>
      <trkpt lat="47.402454" lon="7.750070">
        <ele>482.532573</ele>
        <time>2021-11-21T10:14:37.885Z</time>
      </trkpt>
      <trkpt lat="47.402330" lon="7.749957">
        <ele>482.810965</ele>
        <time>2021-11-21T10:14:41.613Z</time>
      </trkpt>
      <trkpt lat="47.401712" lon="7.749459">
        <ele>484.156097</ele>
        <time>2021-11-21T10:14:57.316Z</time>
      </trkpt>
      <trkpt lat="47.401590" lon="7.749360">
        <ele>484.422070</ele>
        <time>2021-11-21T10:14:59.914Z</time>
      </trkpt>
      <trkpt lat="47.401551" lon="7.749351">
        <ele>484.497496</ele>
        <time>2021-11-21T10:15:00.552Z</time>
      </trkpt>
      <trkpt lat="47.401293" lon="7.749291">
        <ele>484.996564</ele>
        <time>2021-11-21T10:15:05.639Z</time>
      </trkpt>
      <trkpt lat="47.401019" lon="7.749360">
        <ele>485.304034</ele>
        <time>2021-11-21T10:15:10.291Z</time>
      </trkpt>
      <trkpt lat="47.400800" lon="7.749492">
        <ele>485.496383</ele>
        <time>2021-11-21T10:15:13.937Z</time>
      </trkpt>
      <trkpt lat="47.400598" lon="7.749617">
        <ele>485.674484</ele>
        <time>2021-11-21T10:15:17.964Z</time>
      </trkpt>
      <trkpt lat="47.400432" lon="7.749686">
        <ele>485.814722</ele>
        <time>2021-11-21T10:15:20.348Z</time>
      </trkpt>
      <trkpt lat="47.400244" lon="7.749736">
        <ele>485.970067</ele>
        <time>2021-11-21T10:15:23.843Z</time>
      </trkpt>
      <trkpt lat="47.400204" lon="7.749623">
        <ele>486.040261</ele>
        <time>2021-11-21T10:15:25.163Z</time>
      </trkpt>
      <trkpt lat="47.400160" lon="7.749585">
        <ele>486.081709</ele>
        <time>2021-11-21T10:15:25.802Z</time>
      </trkpt>
      <trkpt lat="47.399976" lon="7.749429">
        <ele>486.254233</ele>
        <time>2021-11-21T10:15:29.873Z</time>
      </trkpt>
      <trkpt lat="47.399747" lon="7.749253">
        <ele>486.464155</ele>
        <time>2021-11-21T10:15:34.111Z</time>
      </trkpt>
      <trkpt lat="47.399585" lon="7.749134">
        <ele>486.626848</ele>
        <time>2021-11-21T10:15:38.865Z</time>
      </trkpt>
      <trkpt lat="47.399519" lon="7.749085">
        <ele>486.778181</ele>
        <time>2021-11-21T10:15:39.862Z</time>
      </trkpt>
      <trkpt lat="47.399498" lon="7.749070">
        <ele>486.825970</ele>
        <time>2021-11-21T10:15:40.313Z</time>
      </trkpt>
      <trkpt lat="47.399274" lon="7.748905">
        <ele>487.338776</ele>
        <time>2021-11-21T10:15:46.578Z</time>
      </trkpt>
      <trkpt lat="47.399237" lon="7.748878">
        <ele>487.423324</ele>
        <time>2021-11-21T10:15:47.205Z</time>
      </trkpt>
      <trkpt lat="47.399153" lon="7.748835">
        <ele>487.605459</ele>
        <time>2021-11-21T10:15:48.745Z</time>
      </trkpt>
      <trkpt lat="47.399113" lon="7.748815">
        <ele>487.691976</ele>
        <time>2021-11-21T10:15:49.586Z</time>
      </trkpt>
      <trkpt lat="47.399077" lon="7.748808">
        <ele>487.766368</ele>
        <time>2021-11-21T10:15:50.358Z</time>
      </trkpt>
      <trkpt lat="47.399007" lon="7.748795">
        <ele>487.910911</ele>
        <time>2021-11-21T10:15:52.489Z</time>
      </trkpt>
      <trkpt lat="47.398568" lon="7.748711">
        <ele>488.817835</ele>
        <time>2021-11-21T10:16:04.309Z</time>
      </trkpt>
      <trkpt lat="47.398329" lon="7.748689">
        <ele>489.308441</ele>
        <time>2021-11-21T10:16:08.614Z</time>
      </trkpt>
      <trkpt lat="47.398277" lon="7.748700">
        <ele>489.416064</ele>
        <time>2021-11-21T10:16:10.271Z</time>
      </trkpt>
      <trkpt lat="47.398228" lon="7.748674">
        <ele>489.522733</ele>
        <time>2021-11-21T10:16:12.814Z</time>
      </trkpt>
      <trkpt lat="47.397637" lon="7.748572">
        <ele>490.681555</ele>
        <time>2021-11-21T10:16:28.319Z</time>
      </trkpt>
      <trkpt lat="47.397476" lon="7.748572">
        <ele>490.967809</ele>
        <time>2021-11-21T10:16:34.141Z</time>
      </trkpt>
      <trkpt lat="47.397201" lon="7.748673">
        <ele>491.471635</ele>
        <time>2021-11-21T10:16:39.886Z</time>
      </trkpt>
      <trkpt lat="47.396726" lon="7.748938">
        <ele>492.374390</ele>
        <time>2021-11-21T10:16:52.055Z</time>
      </trkpt>
      <trkpt lat="47.396662" lon="7.749066">
        <ele>492.565912</ele>
        <time>2021-11-21T10:16:54.059Z</time>
      </trkpt>
      <trkpt lat="47.396663" lon="7.749150">
        <ele>492.667026</ele>
        <time>2021-11-21T10:16:55.032Z</time>
      </trkpt>
      <trkpt lat="47.396567" lon="7.749140">
        <ele>492.838135</ele>
        <time>2021-11-21T10:16:57.287Z</time>
      </trkpt>
      <trkpt lat="47.396397" lon="7.749134">
        <ele>493.140477</ele>
        <time>2021-11-21T10:17:00.472Z</time>
      </trkpt>
      <trkpt lat="47.395694" lon="7.749002">
        <ele>494.300696</ele>
        <time>2021-11-21T10:17:14.116Z</time>
      </trkpt>
      <trkpt lat="47.395586" lon="7.748999">
        <ele>494.471847</ele>
        <time>2021-11-21T10:17:16.135Z</time>
      </trkpt>
      <trkpt lat="47.395539" lon="7.749002">
        <ele>494.546385</ele>
        <time>2021-11-21T10:17:17.080Z</time>
      </trkpt>
      <trkpt lat="47.395507" lon="7.749005">
        <ele>494.597190</ele>
        <time>2021-11-21T10:17:17.762Z</time>
      </trkpt>
      <trkpt lat="47.395380" lon="7.749021">
        <ele>494.799145</ele>
        <time>2021-11-21T10:17:20.512Z</time>
      </trkpt>
      <trkpt lat="47.395125" lon="7.749053">
        <ele>495.204634</ele>
        <time>2021-11-21T10:17:25.844Z</time>
      </trkpt>
      <trkpt lat="47.394768" lon="7.749104">
        <ele>495.772921</ele>
        <time>2021-11-21T10:17:33.953Z</time>
      </trkpt>
      <trkpt lat="47.394651" lon="7.749144">
        <ele>495.963201</ele>
        <time>2021-11-21T10:17:36.587Z</time>
      </trkpt>
      <trkpt lat="47.394509" lon="7.749215">
        <ele>496.200732</ele>
        <time>2021-11-21T10:17:40.011Z</time>
      </trkpt>
      <trkpt lat="47.394439" lon="7.749248">
        <ele>496.317154</ele>
        <time>2021-11-21T10:17:41.655Z</time>
      </trkpt>
      <trkpt lat="47.394291" lon="7.749282">
        <ele>496.666593</ele>
        <time>2021-11-21T10:17:45.073Z</time>
      </trkpt>
      <trkpt lat="47.394194" lon="7.749289">
        <ele>496.898669</ele>
        <time>2021-11-21T10:17:47.378Z</time>
      </trkpt>
      <trkpt lat="47.394104" lon="7.749291">
        <ele>497.113766</ele>
        <time>2021-11-21T10:17:49.397Z</time>
      </trkpt>
      <trkpt lat="47.393977" lon="7.749297">
        <ele>497.417411</ele>
        <time>2021-11-21T10:17:52.665Z</time>
      </trkpt>
      <trkpt lat="47.393784" lon="7.749301">
        <ele>497.878667</ele>
        <time>2021-11-21T10:17:57.147Z</time>
      </trkpt>
      <trkpt lat="47.393673" lon="7.749292">
        <ele>498.144322</ele>
        <time>2021-11-21T10:18:00.008Z</time>
      </trkpt>
      <trkpt lat="47.393591" lon="7.749263">
        <ele>498.345814</ele>
        <time>2021-11-21T10:18:02.262Z</time>
      </trkpt>
      <trkpt lat="47.393250" lon="7.749113">
        <ele>499.196061</ele>
        <time>2021-11-21T10:18:11.043Z</time>
      </trkpt>
      <trkpt lat="47.393071" lon="7.749070">
        <ele>499.629435</ele>
        <time>2021-11-21T10:18:15.254Z</time>
      </trkpt>
      <trkpt lat="47.392847" lon="7.749023">
        <ele>500.170099</ele>
        <time>2021-11-21T10:18:20.939Z</time>
      </trkpt>
      <trkpt lat="47.392688" lon="7.748995">
        <ele>500.552750</ele>
        <time>2021-11-21T10:18:24.679Z</time>
      </trkpt>
      <trkpt lat="47.392574" lon="7.748979">
        <ele>500.952536</ele>
        <time>2021-11-21T10:18:27.767Z</time>
      </trkpt>
      <trkpt lat="47.392456" lon="7.748972">
        <ele>501.417906</ele>
        <time>2021-11-21T10:18:30.794Z</time>
      </trkpt>
      <trkpt lat="47.392337" lon="7.748974">
        <ele>501.886871</ele>
        <time>2021-11-21T10:18:33.707Z</time>
      </trkpt>
      <trkpt lat="47.392247" lon="7.748975">
        <ele>502.241538</ele>
        <time>2021-11-21T10:18:36.189Z</time>
      </trkpt>
      <trkpt lat="47.392027" lon="7.748980">
        <ele>503.108580</ele>
        <time>2021-11-21T10:18:41.692Z</time>
      </trkpt>
      <trkpt lat="47.391698" lon="7.748986">
        <ele>504.405147</ele>
        <time>2021-11-21T10:18:51.944Z</time>
      </trkpt>
      <trkpt lat="47.391488" lon="7.748988">
        <ele>505.232697</ele>
        <time>2021-11-21T10:18:59.180Z</time>
      </trkpt>
      <trkpt lat="47.391408" lon="7.748990">
        <ele>505.547993</ele>
        <time>2021-11-21T10:19:01.571Z</time>
      </trkpt>
      <trkpt lat="47.391299" lon="7.748990">
        <ele>505.977522</ele>
        <time>2021-11-21T10:19:04.345Z</time>
      </trkpt>
      <trkpt lat="47.391228" lon="7.748985">
        <ele>506.257624</ele>
        <time>2021-11-21T10:19:06.775Z</time>
      </trkpt>
      <trkpt lat="47.391160" lon="7.748974">
        <ele>506.527190</ele>
        <time>2021-11-21T10:19:09.612Z</time>
      </trkpt>
      <trkpt lat="47.391080" lon="7.748952">
        <ele>506.847857</ele>
        <time>2021-11-21T10:19:12.674Z</time>
      </trkpt>
      <trkpt lat="47.390808" lon="7.748872">
        <ele>508.041804</ele>
        <time>2021-11-21T10:19:22.255Z</time>
      </trkpt>
      <trkpt lat="47.390565" lon="7.748791">
        <ele>509.472518</ele>
        <time>2021-11-21T10:19:30.785Z</time>
      </trkpt>
      <trkpt lat="47.390493" lon="7.748774">
        <ele>509.891285</ele>
        <time>2021-11-21T10:19:33.839Z</time>
      </trkpt>
      <trkpt lat="47.390406" lon="7.748760">
        <ele>510.393907</ele>
        <time>2021-11-21T10:19:38.106Z</time>
      </trkpt>
      <trkpt lat="47.390095" lon="7.748771">
        <ele>512.180582</ele>
        <time>2021-11-21T10:19:49.968Z</time>
      </trkpt>
      <trkpt lat="47.389856" lon="7.748856">
        <ele>513.592456</ele>
        <time>2021-11-21T10:19:59.202Z</time>
      </trkpt>
      <trkpt lat="47.389085" lon="7.749218">
        <ele>518.146236</ele>
        <time>2021-11-21T10:20:31.901Z</time>
      </trkpt>
      <trkpt lat="47.388877" lon="7.749281">
        <ele>518.767707</ele>
        <time>2021-11-21T10:20:39.558Z</time>
      </trkpt>
      <trkpt lat="47.388452" lon="7.749336">
        <ele>520.016422</ele>
        <time>2021-11-21T10:20:52.632Z</time>
      </trkpt>
      <trkpt lat="47.388375" lon="7.749336">
        <ele>520.241796</ele>
        <time>2021-11-21T10:20:55.564Z</time>
      </trkpt>
      <trkpt lat="47.388136" lon="7.749319">
        <ele>520.942145</ele>
        <time>2021-11-21T10:21:02.034Z</time>
      </trkpt>
      <trkpt lat="47.387895" lon="7.749294">
        <ele>521.649275</ele>
        <time>2021-11-21T10:21:08.207Z</time>
      </trkpt>
      <trkpt lat="47.387396" lon="7.749237">
        <ele>523.114179</ele>
        <time>2021-11-21T10:21:14.388Z</time>
      </trkpt>
      <trkpt lat="47.386903" lon="7.749201">
        <ele>524.331551</ele>
        <time>2021-11-21T10:21:25.061Z</time>
      </trkpt>
      <trkpt lat="47.386821" lon="7.749197">
        <ele>524.527814</ele>
        <time>2021-11-21T10:21:26.610Z</time>
      </trkpt>
      <trkpt lat="47.386511" lon="7.749180">
        <ele>525.269892</ele>
        <time>2021-11-21T10:21:33.773Z</time>
      </trkpt>
      <trkpt lat="47.386374" lon="7.749172">
        <ele>525.597873</ele>
        <time>2021-11-21T10:21:37.178Z</time>
      </trkpt>
      <trkpt lat="47.386338" lon="7.749170">
        <ele>525.684052</ele>
        <time>2021-11-21T10:21:37.498Z</time>
      </trkpt>
      <trkpt lat="47.386064" lon="7.749150">
        <ele>526.340301</ele>
        <time>2021-11-21T10:21:46.293Z</time>
      </trkpt>
      <trkpt lat="47.385668" lon="7.749119">
        <ele>527.288923</ele>
        <time>2021-11-21T10:21:58.203Z</time>
      </trkpt>
      <trkpt lat="47.385581" lon="7.749115">
        <ele>527.497142</ele>
        <time>2021-11-21T10:21:59.161Z</time>
      </trkpt>
      <trkpt lat="47.385536" lon="7.749116">
        <ele>527.604801</ele>
        <time>2021-11-21T10:22:02.438Z</time>
      </trkpt>
      <trkpt lat="47.385514" lon="7.749117">
        <ele>527.725108</ele>
        <time>2021-11-21T10:22:02.966Z</time>
      </trkpt>
      <trkpt lat="47.385398" lon="7.749124">
        <ele>528.468714</ele>
        <time>2021-11-21T10:22:06.494Z</time>
      </trkpt>
      <trkpt lat="47.385161" lon="7.749138">
        <ele>529.987926</ele>
        <time>2021-11-21T10:22:13.336Z</time>
      </trkpt>
      <trkpt lat="47.384926" lon="7.749167">
        <ele>531.498359</ele>
        <time>2021-11-21T10:22:19.882Z</time>
      </trkpt>
      <trkpt lat="47.384579" lon="7.749203">
        <ele>533.726389</ele>
        <time>2021-11-21T10:22:35.428Z</time>
      </trkpt>
      <trkpt lat="47.384325" lon="7.749225">
        <ele>535.356068</ele>
        <time>2021-11-21T10:22:51.903Z</time>
      </trkpt>
      <trkpt lat="47.384156" lon="7.749222">
        <ele>536.438601</ele>
        <time>2021-11-21T10:22:58.102Z</time>
      </trkpt>
      <trkpt lat="47.383995" lon="7.749183">
        <ele>537.483593</ele>
        <time>2021-11-21T10:23:09.834Z</time>
      </trkpt>
      <trkpt lat="47.383842" lon="7.749130">
        <ele>538.490160</ele>
        <time>2021-11-21T10:23:15.233Z</time>
      </trkpt>
      <trkpt lat="47.383709" lon="7.749053">
        <ele>539.311867</ele>
        <time>2021-11-21T10:23:17.233Z</time>
      </trkpt>
      <trkpt lat="47.383567" lon="7.748952">
        <ele>539.969499</ele>
        <time>2021-11-21T10:23:27.364Z</time>
      </trkpt>
      <trkpt lat="47.383423" lon="7.748826">
        <ele>540.667880</ele>
        <time>2021-11-21T10:23:29.602Z</time>
      </trkpt>
      <trkpt lat="47.383404" lon="7.748808">
        <ele>540.762067</ele>
        <time>2021-11-21T10:23:29.790Z</time>
      </trkpt>
      <trkpt lat="47.383374" lon="7.748782">
        <ele>540.907204</ele>
        <time>2021-11-21T10:23:33.765Z</time>
      </trkpt>
      <trkpt lat="47.383199" lon="7.748630">
        <ele>541.754316</ele>
        <time>2021-11-21T10:23:38.970Z</time>
      </trkpt>
      <trkpt lat="47.383151" lon="7.748589">
        <ele>541.985682</ele>
        <time>2021-11-21T10:23:39.635Z</time>
      </trkpt>
      <trkpt lat="47.383061" lon="7.748496">
        <ele>542.444002</ele>
        <time>2021-11-21T10:23:44.640Z</time>
      </trkpt>
      <trkpt lat="47.382849" lon="7.748375">
        <ele>543.392342</ele>
        <time>2021-11-21T10:23:49.513Z</time>
      </trkpt>
      <trkpt lat="47.382803" lon="7.748331">
        <ele>543.621018</ele>
        <time>2021-11-21T10:23:50.080Z</time>
      </trkpt>
      <trkpt lat="47.382743" lon="7.748269">
        <ele>543.926565</ele>
        <time>2021-11-21T10:23:54.756Z</time>
      </trkpt>
      <trkpt lat="47.382685" lon="7.748193">
        <ele>544.250095</ele>
        <time>2021-11-21T10:23:57.248Z</time>
      </trkpt>
      <trkpt lat="47.382597" lon="7.748100">
        <ele>544.701604</ele>
        <time>2021-11-21T10:23:59.653Z</time>
      </trkpt>
      <trkpt lat="47.382449" lon="7.747914">
        <ele>545.512467</ele>
        <time>2021-11-21T10:24:06.327Z</time>
      </trkpt>
      <trkpt lat="47.382312" lon="7.747733">
        <ele>546.279455</ele>
        <time>2021-11-21T10:24:11.294Z</time>
      </trkpt>
      <trkpt lat="47.382239" lon="7.747642">
        <ele>546.644972</ele>
        <time>2021-11-21T10:24:12.264Z</time>
      </trkpt>
      <trkpt lat="47.382062" lon="7.747423">
        <ele>546.712735</ele>
        <time>2021-11-21T10:24:22.120Z</time>
      </trkpt>
      <trkpt lat="47.382043" lon="7.747403">
        <ele>546.719583</ele>
        <time>2021-11-21T10:24:22.759Z</time>
      </trkpt>
      <trkpt lat="47.381814" lon="7.747196">
        <ele>546.798375</ele>
        <time>2021-11-21T10:24:27.550Z</time>
      </trkpt>
      <trkpt lat="47.381676" lon="7.747081">
        <ele>546.844876</ele>
        <time>2021-11-21T10:24:29.710Z</time>
      </trkpt>
      <trkpt lat="47.381527" lon="7.746969">
        <ele>546.893941</ele>
        <time>2021-11-21T10:24:31.686Z</time>
      </trkpt>
      <trkpt lat="47.381381" lon="7.746868">
        <ele>546.941254</ele>
        <time>2021-11-21T10:24:33.473Z</time>
      </trkpt>
      <trkpt lat="47.381267" lon="7.746790">
        <ele>546.978126</ele>
        <time>2021-11-21T10:24:34.785Z</time>
      </trkpt>
      <trkpt lat="47.381241" lon="7.746772">
        <ele>546.986552</ele>
        <time>2021-11-21T10:24:35.128Z</time>
      </trkpt>
      <trkpt lat="47.380930" lon="7.746559">
        <ele>547.087157</ele>
        <time>2021-11-21T10:24:39.341Z</time>
      </trkpt>
      <trkpt lat="47.380602" lon="7.746339">
        <ele>547.324743</ele>
        <time>2021-11-21T10:24:44.306Z</time>
      </trkpt>
      <trkpt lat="47.380455" lon="7.746245">
        <ele>547.646474</ele>
        <time>2021-11-21T10:24:46.868Z</time>
      </trkpt>
      <trkpt lat="47.380341" lon="7.746169">
        <ele>547.897685</ele>
        <time>2021-11-21T10:24:48.357Z</time>
      </trkpt>
      <trkpt lat="47.380116" lon="7.746085">
        <ele>548.363803</ele>
        <time>2021-11-21T10:24:52.848Z</time>
      </trkpt>
      <trkpt lat="47.379998" lon="7.746071">
        <ele>548.601563</ele>
        <time>2021-11-21T10:24:54.494Z</time>
      </trkpt>
      <trkpt lat="47.379874" lon="7.746053">
        <ele>548.851812</ele>
        <time>2021-11-21T10:24:57.785Z</time>
      </trkpt>
      <trkpt lat="47.379458" lon="7.746042">
        <ele>549.687461</ele>
        <time>2021-11-21T10:25:08.266Z</time>
      </trkpt>
      <trkpt lat="47.379208" lon="7.746134">
        <ele>550.204929</ele>
        <time>2021-11-21T10:25:16.013Z</time>
      </trkpt>
      <trkpt lat="47.378965" lon="7.746248">
        <ele>550.717017</ele>
        <time>2021-11-21T10:25:27.165Z</time>
      </trkpt>
      <trkpt lat="47.378807" lon="7.746334">
        <ele>551.779766</ele>
        <time>2021-11-21T10:25:34.708Z</time>
      </trkpt>
      <trkpt lat="47.378447" lon="7.746546">
        <ele>554.628479</ele>
        <time>2021-11-21T10:25:54.128Z</time>
      </trkpt>
      <trkpt lat="47.378182" lon="7.746723">
        <ele>556.766257</ele>
        <time>2021-11-21T10:26:08.958Z</time>
      </trkpt>
      <trkpt lat="47.378097" lon="7.746822">
        <ele>557.561959</ele>
        <time>2021-11-21T10:26:14.972Z</time>
      </trkpt>
      <trkpt lat="47.378022" lon="7.746968">
        <ele>558.474079</ele>
        <time>2021-11-21T10:26:22.367Z</time>
      </trkpt>
      <trkpt lat="47.377966" lon="7.747320">
        <ele>560.273785</ele>
        <time>2021-11-21T10:26:32.337Z</time>
      </trkpt>
      <trkpt lat="47.377977" lon="7.747459">
        <ele>560.970335</ele>
        <time>2021-11-21T10:26:38.306Z</time>
      </trkpt>
      <trkpt lat="47.378014" lon="7.747587">
        <ele>561.663046</ele>
        <time>2021-11-21T10:26:41.781Z</time>
      </trkpt>
      <trkpt lat="47.378047" lon="7.747688">
        <ele>562.221210</ele>
        <time>2021-11-21T10:26:44.510Z</time>
      </trkpt>
      <trkpt lat="47.378047" lon="7.747688">
        <ele>562.221210</ele>
        <time>2021-11-21T10:26:44.655Z</time>
      </trkpt>
      <trkpt lat="47.378095" lon="7.747758">
        <ele>562.717057</ele>
        <time>2021-11-21T10:26:47.787Z</time>
      </trkpt>
      <trkpt lat="47.378243" lon="7.747826">
        <ele>563.856328</ele>
        <time>2021-11-21T10:26:56.440Z</time>
      </trkpt>
      <trkpt lat="47.378432" lon="7.747810">
        <ele>565.085637</ele>
        <time>2021-11-21T10:27:03.676Z</time>
      </trkpt>
      <trkpt lat="47.378579" lon="7.747764">
        <ele>566.046196</ele>
        <time>2021-11-21T10:27:11.714Z</time>
      </trkpt>
      <trkpt lat="47.378745" lon="7.747711">
        <ele>567.131865</ele>
        <time>2021-11-21T10:27:17.199Z</time>
      </trkpt>
      <trkpt lat="47.380129" lon="7.747267">
        <ele>576.117306</ele>
        <time>2021-11-21T10:28:13.772Z</time>
      </trkpt>
      <trkpt lat="47.380277" lon="7.747302">
        <ele>576.980108</ele>
        <time>2021-11-21T10:28:18.281Z</time>
      </trkpt>
      <trkpt lat="47.380381" lon="7.747474">
        <ele>577.878925</ele>
        <time>2021-11-21T10:28:21.902Z</time>
      </trkpt>
      <trkpt lat="47.380390" lon="7.747520">
        <ele>578.065559</ele>
        <time>2021-11-21T10:28:23.489Z</time>
      </trkpt>
      <trkpt lat="47.380395" lon="7.747571">
        <ele>578.266421</ele>
        <time>2021-11-21T10:28:27.202Z</time>
      </trkpt>
      <trkpt lat="47.380350" lon="7.747778">
        <ele>579.113833</ele>
        <time>2021-11-21T10:28:30.877Z</time>
      </trkpt>
      <trkpt lat="47.380210" lon="7.747910">
        <ele>580.069968</ele>
        <time>2021-11-21T10:28:35.613Z</time>
      </trkpt>
      <trkpt lat="47.378290" lon="7.748370">
        <ele>592.855080</ele>
        <time>2021-11-21T10:29:53.795Z</time>
      </trkpt>
      <trkpt lat="47.378159" lon="7.748462">
        <ele>593.935159</ele>
        <time>2021-11-21T10:30:00.481Z</time>
      </trkpt>
      <trkpt lat="47.377963" lon="7.748725">
        <ele>595.907002</ele>
        <time>2021-11-21T10:30:14.704Z</time>
      </trkpt>
      <trkpt lat="47.377472" lon="7.748880">
        <ele>599.818471</ele>
        <time>2021-11-21T10:30:37.812Z</time>
      </trkpt>
      <trkpt lat="47.377148" lon="7.749427">
        <ele>605.073751</ele>
        <time>2021-11-21T10:31:01.457Z</time>
      </trkpt>
      <trkpt lat="47.377124" lon="7.749452">
        <ele>605.387391</ele>
        <time>2021-11-21T10:31:04.603Z</time>
      </trkpt>
      <trkpt lat="47.377100" lon="7.749472">
        <ele>605.681676</ele>
        <time>2021-11-21T10:31:07.534Z</time>
      </trkpt>
      <trkpt lat="47.376861" lon="7.749523">
        <ele>608.260443</ele>
        <time>2021-11-21T10:31:18.360Z</time>
      </trkpt>
      <trkpt lat="47.376617" lon="7.749424">
        <ele>610.962658</ele>
        <time>2021-11-21T10:31:35.331Z</time>
      </trkpt>
      <trkpt lat="47.376182" lon="7.748757">
        <ele>617.659264</ele>
        <time>2021-11-21T10:32:15.985Z</time>
      </trkpt>
      <trkpt lat="47.375845" lon="7.748573">
        <ele>620.591017</ele>
        <time>2021-11-21T10:32:38.625Z</time>
      </trkpt>
      <trkpt lat="47.375486" lon="7.748472">
        <ele>623.332270</ele>
        <time>2021-11-21T10:32:55.820Z</time>
      </trkpt>
      <trkpt lat="47.374946" lon="7.748312">
        <ele>627.463479</ele>
        <time>2021-11-21T10:33:18.843Z</time>
      </trkpt>
      <trkpt lat="47.374819" lon="7.748274">
        <ele>628.435450</ele>
        <time>2021-11-21T10:33:24.304Z</time>
      </trkpt>
      <trkpt lat="47.374630" lon="7.748215">
        <ele>629.884449</ele>
        <time>2021-11-21T10:33:31.436Z</time>
      </trkpt>
      <trkpt lat="47.374049" lon="7.748038">
        <ele>632.704524</ele>
        <time>2021-11-21T10:33:51.884Z</time>
      </trkpt>
      <trkpt lat="47.373513" lon="7.747993">
        <ele>633.983446</ele>
        <time>2021-11-21T10:34:04.100Z</time>
      </trkpt>
      <trkpt lat="47.372648" lon="7.748213">
        <ele>636.074394</ele>
        <time>2021-11-21T10:34:20.300Z</time>
      </trkpt>
      <trkpt lat="47.371502" lon="7.748381">
        <ele>639.910944</ele>
        <time>2021-11-21T10:34:48.444Z</time>
      </trkpt>
      <trkpt lat="47.371219" lon="7.748456">
        <ele>640.885294</ele>
        <time>2021-11-21T10:34:57.549Z</time>
      </trkpt>
      <trkpt lat="47.371183" lon="7.748465">
        <ele>641.009026</ele>
        <time>2021-11-21T10:34:58.567Z</time>
      </trkpt>
      <trkpt lat="47.371101" lon="7.748488">
        <ele>641.291875</ele>
        <time>2021-11-21T10:35:01.734Z</time>
      </trkpt>
      <trkpt lat="47.370406" lon="7.748697">
        <ele>645.111918</ele>
        <time>2021-11-21T10:35:28.385Z</time>
      </trkpt>
      <trkpt lat="47.370155" lon="7.748818">
        <ele>646.932211</ele>
        <time>2021-11-21T10:35:39.404Z</time>
      </trkpt>
      <trkpt lat="47.369180" lon="7.749821">
        <ele>655.053229</ele>
        <time>2021-11-21T10:36:33.840Z</time>
      </trkpt>
      <trkpt lat="47.368671" lon="7.750109">
        <ele>658.139699</ele>
        <time>2021-11-21T10:36:57.085Z</time>
      </trkpt>
      <trkpt lat="47.367842" lon="7.751673">
        <ele>665.264751</ele>
        <time>2021-11-21T10:37:44.706Z</time>
      </trkpt>
      <trkpt lat="47.367647" lon="7.751948">
        <ele>665.904657</ele>
        <time>2021-11-21T10:37:51.898Z</time>
      </trkpt>
      <trkpt lat="47.367142" lon="7.752434">
        <ele>667.335126</ele>
        <time>2021-11-21T10:38:06.022Z</time>
      </trkpt>
      <trkpt lat="47.366892" lon="7.752633">
        <ele>668.009107</ele>
        <time>2021-11-21T10:38:12.118Z</time>
      </trkpt>
      <trkpt lat="47.366818" lon="7.752705">
        <ele>668.219412</ele>
        <time>2021-11-21T10:38:13.617Z</time>
      </trkpt>
      <trkpt lat="47.366610" lon="7.753012">
        <ele>668.917337</ele>
        <time>2021-11-21T10:38:19.185Z</time>
      </trkpt>
      <trkpt lat="47.366228" lon="7.753823">
        <ele>671.472938</ele>
        <time>2021-11-21T10:38:31.601Z</time>
      </trkpt>
      <trkpt lat="47.365712" lon="7.754953">
        <ele>675.261638</ele>
        <time>2021-11-21T10:39:04.522Z</time>
      </trkpt>
      <trkpt lat="47.365610" lon="7.755187">
        <ele>676.035245</ele>
        <time>2021-11-21T10:39:11.890Z</time>
      </trkpt>
      <trkpt lat="47.365506" lon="7.755428">
        <ele>676.974071</ele>
        <time>2021-11-21T10:39:19.657Z</time>
      </trkpt>
      <trkpt lat="47.365453" lon="7.755538">
        <ele>677.551123</ele>
        <time>2021-11-21T10:39:23.447Z</time>
      </trkpt>
      <trkpt lat="47.365347" lon="7.755739">
        <ele>678.640066</ele>
        <time>2021-11-21T10:39:30.587Z</time>
      </trkpt>
      <trkpt lat="47.365223" lon="7.755923">
        <ele>679.749617</ele>
        <time>2021-11-21T10:39:38.027Z</time>
      </trkpt>
      <trkpt lat="47.365144" lon="7.756010">
        <ele>680.371627</ele>
        <time>2021-11-21T10:39:42.103Z</time>
      </trkpt>
      <trkpt lat="47.364665" lon="7.756398">
        <ele>683.819799</ele>
        <time>2021-11-21T10:40:05.925Z</time>
      </trkpt>
      <trkpt lat="47.362977" lon="7.757393">
        <ele>693.777820</ele>
        <time>2021-11-21T10:41:13.831Z</time>
      </trkpt>
      <trkpt lat="47.362768" lon="7.757595">
        <ele>695.031082</ele>
        <time>2021-11-21T10:41:21.348Z</time>
      </trkpt>
      <trkpt lat="47.362432" lon="7.758068">
        <ele>697.198488</ele>
        <time>2021-11-21T10:41:35.765Z</time>
      </trkpt>
      <trkpt lat="47.362144" lon="7.758772">
        <ele>698.926391</ele>
        <time>2021-11-21T10:41:52.061Z</time>
      </trkpt>
      <trkpt lat="47.361967" lon="7.759028">
        <ele>699.694950</ele>
        <time>2021-11-21T10:41:59.358Z</time>
      </trkpt>
      <trkpt lat="47.361884" lon="7.759148">
        <ele>700.055282</ele>
        <time>2021-11-21T10:42:02.388Z</time>
      </trkpt>
      <trkpt lat="47.361763" lon="7.759323">
        <ele>700.580675</ele>
        <time>2021-11-21T10:42:07.310Z</time>
      </trkpt>
      <trkpt lat="47.361491" lon="7.759613">
        <ele>701.621347</ele>
        <time>2021-11-21T10:42:15.064Z</time>
      </trkpt>
      <trkpt lat="47.360456" lon="7.760322">
        <ele>706.223534</ele>
        <time>2021-11-21T10:42:41.982Z</time>
      </trkpt>
      <trkpt lat="47.360138" lon="7.760481">
        <ele>707.683478</ele>
        <time>2021-11-21T10:42:51.388Z</time>
      </trkpt>
      <trkpt lat="47.359972" lon="7.760553">
        <ele>708.435819</ele>
        <time>2021-11-21T10:42:55.004Z</time>
      </trkpt>
      <trkpt lat="47.359796" lon="7.760632">
        <ele>709.235729</ele>
        <time>2021-11-21T10:43:05.074Z</time>
      </trkpt>
      <trkpt lat="47.359646" lon="7.760729">
        <ele>709.947821</ele>
        <time>2021-11-21T10:43:10.166Z</time>
      </trkpt>
      <trkpt lat="47.359560" lon="7.760802">
        <ele>710.452115</ele>
        <time>2021-11-21T10:43:17.786Z</time>
      </trkpt>
      <trkpt lat="47.359346" lon="7.761072">
        <ele>713.765081</ele>
        <time>2021-11-21T10:43:33.568Z</time>
      </trkpt>
      <trkpt lat="47.359296" lon="7.761144">
        <ele>714.587097</ele>
        <time>2021-11-21T10:43:39.606Z</time>
      </trkpt>
      <trkpt lat="47.359034" lon="7.761428">
        <ele>718.412429</ele>
        <time>2021-11-21T10:43:59.947Z</time>
      </trkpt>
      <trkpt lat="47.358694" lon="7.761576">
        <ele>722.584081</ele>
        <time>2021-11-21T10:44:25.046Z</time>
      </trkpt>
      <trkpt lat="47.358603" lon="7.761580">
        <ele>723.655498</ele>
        <time>2021-11-21T10:44:35.244Z</time>
      </trkpt>
      <trkpt lat="47.358537" lon="7.761582">
        <ele>724.432389</ele>
        <time>2021-11-21T10:44:40.891Z</time>
      </trkpt>
      <trkpt lat="47.358297" lon="7.761558">
        <ele>727.263325</ele>
        <time>2021-11-21T10:44:56.783Z</time>
      </trkpt>
      <trkpt lat="47.358226" lon="7.761547">
        <ele>728.103485</ele>
        <time>2021-11-21T10:45:04.702Z</time>
      </trkpt>
      <trkpt lat="47.357676" lon="7.761373">
        <ele>733.222618</ele>
        <time>2021-11-21T10:45:44.136Z</time>
      </trkpt>
      <trkpt lat="47.356389" lon="7.760772">
        <ele>741.703697</ele>
        <time>2021-11-21T10:46:46.563Z</time>
      </trkpt>
      <trkpt lat="47.356127" lon="7.760648">
        <ele>742.418879</ele>
        <time>2021-11-21T10:46:51.016Z</time>
      </trkpt>
      <trkpt lat="47.355423" lon="7.760365">
        <ele>739.600903</ele>
        <time>2021-11-21T10:47:01.280Z</time>
      </trkpt>
      <trkpt lat="47.354960" lon="7.760707">
        <ele>737.601333</ele>
        <time>2021-11-21T10:47:08.078Z</time>
      </trkpt>
      <trkpt lat="47.354515" lon="7.760905">
        <ele>735.817879</ele>
        <time>2021-11-21T10:47:14.095Z</time>
      </trkpt>
      <trkpt lat="47.354330" lon="7.761048">
        <ele>735.191871</ele>
        <time>2021-11-21T10:47:17.139Z</time>
      </trkpt>
      <trkpt lat="47.354217" lon="7.761201">
        <ele>734.732210</ele>
        <time>2021-11-21T10:47:19.139Z</time>
      </trkpt>
      <trkpt lat="47.353949" lon="7.761596">
        <ele>733.596910</ele>
        <time>2021-11-21T10:47:22.941Z</time>
      </trkpt>
      <trkpt lat="47.353138" lon="7.762778">
        <ele>730.254725</ele>
        <time>2021-11-21T10:47:35.353Z</time>
      </trkpt>
      <trkpt lat="47.353062" lon="7.762868">
        <ele>730.038581</ele>
        <time>2021-11-21T10:47:37.500Z</time>
      </trkpt>
      <trkpt lat="47.353000" lon="7.762937">
        <ele>729.866333</ele>
        <time>2021-11-21T10:47:38.514Z</time>
      </trkpt>
      <trkpt lat="47.352908" lon="7.763033">
        <ele>729.616400</ele>
        <time>2021-11-21T10:47:41.268Z</time>
      </trkpt>
      <trkpt lat="47.352407" lon="7.763381">
        <ele>728.388108</ele>
        <time>2021-11-21T10:47:47.262Z</time>
      </trkpt>
      <trkpt lat="47.352189" lon="7.763487">
        <ele>727.878949</ele>
        <time>2021-11-21T10:47:49.633Z</time>
      </trkpt>
      <trkpt lat="47.352148" lon="7.763507">
        <ele>727.783160</ele>
        <time>2021-11-21T10:47:50.085Z</time>
      </trkpt>
      <trkpt lat="47.351930" lon="7.763646">
        <ele>727.256373</ele>
        <time>2021-11-21T10:47:52.956Z</time>
      </trkpt>
      <trkpt lat="47.351826" lon="7.763777">
        <ele>726.953079</ele>
        <time>2021-11-21T10:47:54.211Z</time>
      </trkpt>
      <trkpt lat="47.351748" lon="7.763878">
        <ele>726.722904</ele>
        <time>2021-11-21T10:47:55.303Z</time>
      </trkpt>
      <trkpt lat="47.351735" lon="7.763895">
        <ele>726.684376</ele>
        <time>2021-11-21T10:47:55.452Z</time>
      </trkpt>
      <trkpt lat="47.351658" lon="7.763983">
        <ele>726.460440</ele>
        <time>2021-11-21T10:47:57.498Z</time>
      </trkpt>
      <trkpt lat="47.351629" lon="7.764018">
        <ele>726.294887</ele>
        <time>2021-11-21T10:47:57.812Z</time>
      </trkpt>
      <trkpt lat="47.351451" lon="7.764228">
        <ele>725.287826</ele>
        <time>2021-11-21T10:48:00.001Z</time>
      </trkpt>
      <trkpt lat="47.351382" lon="7.764309">
        <ele>724.898203</ele>
        <time>2021-11-21T10:48:02.042Z</time>
      </trkpt>
      <trkpt lat="47.351146" lon="7.764519">
        <ele>723.680354</ele>
        <time>2021-11-21T10:48:04.589Z</time>
      </trkpt>
      <trkpt lat="47.350098" lon="7.765068">
        <ele>718.765765</ele>
        <time>2021-11-21T10:48:15.176Z</time>
      </trkpt>
      <trkpt lat="47.349912" lon="7.765369">
        <ele>717.465298</ele>
        <time>2021-11-21T10:48:17.810Z</time>
      </trkpt>
      <trkpt lat="47.349820" lon="7.765775">
        <ele>716.078124</ele>
        <time>2021-11-21T10:48:20.543Z</time>
      </trkpt>
      <trkpt lat="47.349780" lon="7.765953">
        <ele>715.470460</ele>
        <time>2021-11-21T10:48:21.719Z</time>
      </trkpt>
      <trkpt lat="47.349721" lon="7.766282">
        <ele>714.367701</ele>
        <time>2021-11-21T10:48:23.915Z</time>
      </trkpt>
      <trkpt lat="47.349705" lon="7.766380">
        <ele>714.041065</ele>
        <time>2021-11-21T10:48:24.542Z</time>
      </trkpt>
      <trkpt lat="47.349692" lon="7.766459">
        <ele>713.777642</ele>
        <time>2021-11-21T10:48:25.035Z</time>
      </trkpt>
      <trkpt lat="47.349614" lon="7.766878">
        <ele>712.369652</ele>
        <time>2021-11-21T10:48:27.824Z</time>
      </trkpt>
      <trkpt lat="47.349550" lon="7.767265">
        <ele>711.078850</ele>
        <time>2021-11-21T10:48:30.391Z</time>
      </trkpt>
      <trkpt lat="47.349526" lon="7.767381">
        <ele>710.685843</ele>
        <time>2021-11-21T10:48:31.137Z</time>
      </trkpt>
      <trkpt lat="47.349457" lon="7.767605">
        <ele>709.941796</ele>
        <time>2021-11-21T10:48:32.728Z</time>
      </trkpt>
      <trkpt lat="47.349388" lon="7.767753">
        <ele>710.202170</ele>
        <time>2021-11-21T10:48:33.889Z</time>
      </trkpt>
      <trkpt lat="47.349336" lon="7.767844">
        <ele>710.374702</ele>
        <time>2021-11-21T10:48:34.636Z</time>
      </trkpt>
      <trkpt lat="47.349069" lon="7.768196">
        <ele>711.140515</ele>
        <time>2021-11-21T10:48:38.214Z</time>
      </trkpt>
      <trkpt lat="47.348999" lon="7.768255">
        <ele>711.312950</ele>
        <time>2021-11-21T10:48:40.155Z</time>
      </trkpt>
      <trkpt lat="47.348470" lon="7.768595">
        <ele>712.547183</ele>
        <time>2021-11-21T10:48:56.445Z</time>
      </trkpt>
      <trkpt lat="47.348496" lon="7.768725">
        <ele>712.743634</ele>
        <time>2021-11-21T10:48:58.531Z</time>
      </trkpt>
      <trkpt lat="47.348513" lon="7.768992">
        <ele>713.132312</ele>
        <time>2021-11-21T10:49:09.144Z</time>
      </trkpt>
      <trkpt lat="47.348509" lon="7.769085">
        <ele>713.267371</ele>
        <time>2021-11-21T10:49:11.120Z</time>
      </trkpt>
      <trkpt lat="47.348572" lon="7.769271">
        <ele>713.568756</ele>
        <time>2021-11-21T10:49:15.907Z</time>
      </trkpt>
      <trkpt lat="47.348620" lon="7.769391">
        <ele>713.770723</ele>
        <time>2021-11-21T10:49:24.085Z</time>
      </trkpt>
      <trkpt lat="47.348652" lon="7.769450">
        <ele>713.999963</ele>
        <time>2021-11-21T10:49:26.377Z</time>
      </trkpt>
      <trkpt lat="47.348800" lon="7.769699">
        <ele>715.015069</ele>
        <time>2021-11-21T10:49:40.461Z</time>
      </trkpt>
      <trkpt lat="47.348823" lon="7.769734">
        <ele>715.164494</ele>
        <time>2021-11-21T10:49:44.044Z</time>
      </trkpt>
      <trkpt lat="47.348952" lon="7.770030">
        <ele>716.243071</ele>
        <time>2021-11-21T10:49:48.557Z</time>
      </trkpt>
      <trkpt lat="47.349019" lon="7.770185">
        <ele>716.806523</ele>
        <time>2021-11-21T10:50:00.482Z</time>
      </trkpt>
      <trkpt lat="47.349223" lon="7.771074">
        <ele>719.682957</ele>
        <time>2021-11-21T10:50:19.163Z</time>
      </trkpt>
      <trkpt lat="47.349463" lon="7.771336">
        <ele>721.033188</ele>
        <time>2021-11-21T10:50:25.424Z</time>
      </trkpt>
      <trkpt lat="47.349564" lon="7.771432">
        <ele>721.576563</ele>
        <time>2021-11-21T10:50:31.066Z</time>
      </trkpt>
      <trkpt lat="47.349663" lon="7.771469">
        <ele>721.828593</ele>
        <time>2021-11-21T10:50:32.374Z</time>
      </trkpt>
      <trkpt lat="47.350051" lon="7.771494">
        <ele>720.750216</ele>
        <time>2021-11-21T10:50:38.071Z</time>
      </trkpt>
      <trkpt lat="47.350517" lon="7.771417">
        <ele>719.448201</ele>
        <time>2021-11-21T10:50:44.791Z</time>
      </trkpt>
      <trkpt lat="47.350655" lon="7.771403">
        <ele>719.064115</ele>
        <time>2021-11-21T10:50:46.805Z</time>
      </trkpt>
      <trkpt lat="47.350950" lon="7.771380">
        <ele>718.243853</ele>
        <time>2021-11-21T10:50:50.870Z</time>
      </trkpt>
      <trkpt lat="47.351202" lon="7.771368">
        <ele>717.543766</ele>
        <time>2021-11-21T10:50:54.126Z</time>
      </trkpt>
      <trkpt lat="47.351278" lon="7.771352">
        <ele>717.330603</ele>
        <time>2021-11-21T10:50:55.100Z</time>
      </trkpt>
      <trkpt lat="47.351616" lon="7.771281">
        <ele>717.638591</ele>
        <time>2021-11-21T10:51:00.945Z</time>
      </trkpt>
      <trkpt lat="47.351740" lon="7.771265">
        <ele>718.109613</ele>
        <time>2021-11-21T10:51:02.635Z</time>
      </trkpt>
      <trkpt lat="47.351786" lon="7.771261">
        <ele>718.283985</ele>
        <time>2021-11-21T10:51:04.756Z</time>
      </trkpt>
      <trkpt lat="47.351858" lon="7.771272">
        <ele>718.557899</ele>
        <time>2021-11-21T10:51:07.596Z</time>
      </trkpt>
      <trkpt lat="47.351969" lon="7.771301">
        <ele>718.984467</ele>
        <time>2021-11-21T10:51:10.154Z</time>
      </trkpt>
      <trkpt lat="47.352236" lon="7.771413">
        <ele>720.034841</ele>
        <time>2021-11-21T10:51:18.172Z</time>
      </trkpt>
      <trkpt lat="47.352312" lon="7.771451">
        <ele>720.338488</ele>
        <time>2021-11-21T10:51:21.080Z</time>
      </trkpt>
      <trkpt lat="47.352467" lon="7.771568">
        <ele>720.997276</ele>
        <time>2021-11-21T10:51:29.720Z</time>
      </trkpt>
      <trkpt lat="47.352557" lon="7.771656">
        <ele>721.405795</ele>
        <time>2021-11-21T10:51:35.033Z</time>
      </trkpt>
      <trkpt lat="47.352591" lon="7.771721">
        <ele>721.616324</ele>
        <time>2021-11-21T10:51:37.368Z</time>
      </trkpt>
      <trkpt lat="47.352656" lon="7.771836">
        <ele>722.000280</ele>
        <time>2021-11-21T10:51:41.105Z</time>
      </trkpt>
      <trkpt lat="47.352708" lon="7.771919">
        <ele>722.290105</ele>
        <time>2021-11-21T10:51:46.568Z</time>
      </trkpt>
      <trkpt lat="47.353006" lon="7.772274">
        <ele>723.758041</ele>
        <time>2021-11-21T10:52:07.292Z</time>
      </trkpt>
      <trkpt lat="47.353370" lon="7.772417">
        <ele>726.615473</ele>
        <time>2021-11-21T10:52:28.091Z</time>
      </trkpt>
      <trkpt lat="47.353994" lon="7.772397">
        <ele>731.350254</ele>
        <time>2021-11-21T10:52:59.727Z</time>
      </trkpt>
      <trkpt lat="47.354136" lon="7.772392">
        <ele>732.427772</ele>
        <time>2021-11-21T10:53:06.887Z</time>
      </trkpt>
      <trkpt lat="47.354424" lon="7.772383">
        <ele>734.613030</ele>
        <time>2021-11-21T10:53:21.585Z</time>
      </trkpt>
      <trkpt lat="47.354817" lon="7.772495">
        <ele>737.495245</ele>
        <time>2021-11-21T10:53:40.156Z</time>
      </trkpt>
      <trkpt lat="47.355064" lon="7.772409">
        <ele>738.376944</ele>
        <time>2021-11-21T10:53:54.272Z</time>
      </trkpt>
      <trkpt lat="47.355467" lon="7.772132">
        <ele>739.921435</ele>
        <time>2021-11-21T10:54:10.970Z</time>
      </trkpt>
      <trkpt lat="47.355527" lon="7.772103">
        <ele>740.140782</ele>
        <time>2021-11-21T10:54:12.311Z</time>
      </trkpt>
      <trkpt lat="47.355570" lon="7.772094">
        <ele>740.291671</ele>
        <time>2021-11-21T10:54:17.149Z</time>
      </trkpt>
      <trkpt lat="47.356239" lon="7.772358">
        <ele>742.697595</ele>
        <time>2021-11-21T10:54:35.895Z</time>
      </trkpt>
      <trkpt lat="47.356321" lon="7.772395">
        <ele>742.995499</ele>
        <time>2021-11-21T10:54:41.632Z</time>
      </trkpt>
      <trkpt lat="47.356525" lon="7.772492">
        <ele>743.539441</ele>
        <time>2021-11-21T10:54:44.594Z</time>
      </trkpt>
      <trkpt lat="47.357494" lon="7.772900">
        <ele>741.469113</ele>
        <time>2021-11-21T10:55:00.998Z</time>
      </trkpt>
      <trkpt lat="47.358296" lon="7.772762">
        <ele>739.970038</ele>
        <time>2021-11-21T10:55:12.118Z</time>
      </trkpt>
      <trkpt lat="47.358846" lon="7.772850">
        <ele>740.510829</ele>
        <time>2021-11-21T10:55:22.714Z</time>
      </trkpt>
      <trkpt lat="47.358909" lon="7.772858">
        <ele>740.572641</ele>
        <time>2021-11-21T10:55:23.626Z</time>
      </trkpt>
      <trkpt lat="47.358988" lon="7.772866">
        <ele>740.650048</ele>
        <time>2021-11-21T10:55:24.942Z</time>
      </trkpt>
      <trkpt lat="47.359028" lon="7.772870">
        <ele>740.689238</ele>
        <time>2021-11-21T10:55:25.863Z</time>
      </trkpt>
      <trkpt lat="47.359166" lon="7.772879">
        <ele>740.824269</ele>
        <time>2021-11-21T10:55:30.927Z</time>
      </trkpt>
      <trkpt lat="47.359703" lon="7.773123">
        <ele>741.373506</ele>
        <time>2021-11-21T10:55:45.104Z</time>
      </trkpt>
      <trkpt lat="47.359743" lon="7.773162">
        <ele>741.420366</ele>
        <time>2021-11-21T10:55:47.246Z</time>
      </trkpt>
      <trkpt lat="47.359748" lon="7.773183">
        <ele>741.435106</ele>
        <time>2021-11-21T10:55:47.778Z</time>
      </trkpt>
      <trkpt lat="47.359746" lon="7.773298">
        <ele>741.511281</ele>
        <time>2021-11-21T10:55:51.914Z</time>
      </trkpt>
      <trkpt lat="47.359785" lon="7.774532">
        <ele>745.239326</ele>
        <time>2021-11-21T10:56:24.258Z</time>
      </trkpt>
      <trkpt lat="47.360011" lon="7.775470">
        <ele>748.838337</ele>
        <time>2021-11-21T10:56:55.007Z</time>
      </trkpt>
      <trkpt lat="47.360205" lon="7.775878">
        <ele>750.640364</ele>
        <time>2021-11-21T10:57:08.992Z</time>
      </trkpt>
      <trkpt lat="47.360877" lon="7.776912">
        <ele>756.904500</ele>
        <time>2021-11-21T10:57:50.754Z</time>
      </trkpt>
      <trkpt lat="47.360916" lon="7.776963">
        <ele>757.248864</ele>
        <time>2021-11-21T10:57:53.275Z</time>
      </trkpt>
      <trkpt lat="47.360991" lon="7.777018">
        <ele>757.802378</ele>
        <time>2021-11-21T10:57:58.218Z</time>
      </trkpt>
      <trkpt lat="47.361670" lon="7.777440">
        <ele>762.671803</ele>
        <time>2021-11-21T10:58:33.561Z</time>
      </trkpt>
      <trkpt lat="47.361938" lon="7.777878">
        <ele>765.822727</ele>
        <time>2021-11-21T10:58:54.008Z</time>
      </trkpt>
      <trkpt lat="47.362397" lon="7.778909">
        <ele>772.652063</ele>
        <time>2021-11-21T10:59:38.464Z</time>
      </trkpt>
      <trkpt lat="47.362784" lon="7.780038">
        <ele>780.157560</ele>
        <time>2021-11-21T11:00:25.322Z</time>
      </trkpt>
      <trkpt lat="47.363262" lon="7.780836">
        <ele>787.702499</ele>
        <time>2021-11-21T11:01:05.747Z</time>
      </trkpt>
      <trkpt lat="47.364014" lon="7.782809">
        <ele>804.954990</ele>
        <time>2021-11-21T11:02:51.905Z</time>
      </trkpt>
      <trkpt lat="47.364116" lon="7.782983">
        <ele>806.865716</ele>
        <time>2021-11-21T11:03:03.211Z</time>
      </trkpt>
      <trkpt lat="47.364196" lon="7.783120">
        <ele>808.367651</ele>
        <time>2021-11-21T11:03:12.365Z</time>
      </trkpt>
      <trkpt lat="47.364353" lon="7.783572">
        <ele>812.585456</ele>
        <time>2021-11-21T11:03:36.156Z</time>
      </trkpt>
      <trkpt lat="47.364363" lon="7.784189">
        <ele>817.710050</ele>
        <time>2021-11-21T11:04:04.737Z</time>
      </trkpt>
      <trkpt lat="47.364453" lon="7.785120">
        <ele>824.032922</ele>
        <time>2021-11-21T11:04:48.894Z</time>
      </trkpt>
      <trkpt lat="47.364274" lon="7.786441">
        <ele>832.774656</ele>
        <time>2021-11-21T11:05:37.717Z</time>
      </trkpt>
      <trkpt lat="47.364350" lon="7.789070">
        <ele>848.998575</ele>
        <time>2021-11-21T11:07:13.257Z</time>
      </trkpt>
      <trkpt lat="47.364380" lon="7.789217">
        <ele>849.933808</ele>
        <time>2021-11-21T11:07:21.443Z</time>
      </trkpt>
      <trkpt lat="47.364409" lon="7.789360">
        <ele>850.843117</ele>
        <time>2021-11-21T11:07:27.904Z</time>
      </trkpt>
      <trkpt lat="47.364586" lon="7.789989">
        <ele>855.875374</ele>
        <time>2021-11-21T11:07:55.306Z</time>
      </trkpt>
      <trkpt lat="47.364626" lon="7.790039">
        <ele>856.491985</ele>
        <time>2021-11-21T11:07:58.682Z</time>
      </trkpt>
      <trkpt lat="47.364764" lon="7.790159">
        <ele>858.376216</ele>
        <time>2021-11-21T11:08:11.043Z</time>
      </trkpt>
      <trkpt lat="47.364872" lon="7.790381">
        <ele>860.554280</ele>
        <time>2021-11-21T11:08:20.755Z</time>
      </trkpt>
      <trkpt lat="47.364873" lon="7.790907">
        <ele>864.745815</ele>
        <time>2021-11-21T11:08:44.067Z</time>
      </trkpt>
      <trkpt lat="47.364885" lon="7.791010">
        <ele>865.578641</ele>
        <time>2021-11-21T11:08:50.079Z</time>
      </trkpt>
      <trkpt lat="47.364927" lon="7.791299">
        <ele>867.933999</ele>
        <time>2021-11-21T11:09:03.520Z</time>
      </trkpt>
      <trkpt lat="47.365125" lon="7.791864">
        <ele>873.003207</ele>
        <time>2021-11-21T11:09:33.296Z</time>
      </trkpt>
      <trkpt lat="47.364985" lon="7.793078">
        <ele>885.007885</ele>
        <time>2021-11-21T11:10:41.138Z</time>
      </trkpt>
      <trkpt lat="47.365089" lon="7.793722">
        <ele>891.496838</ele>
        <time>2021-11-21T11:11:13.564Z</time>
      </trkpt>
      <trkpt lat="47.365125" lon="7.793895">
        <ele>893.270677</ele>
        <time>2021-11-21T11:11:24.090Z</time>
      </trkpt>
      <trkpt lat="47.365178" lon="7.794142">
        <ele>895.810167</ele>
        <time>2021-11-21T11:11:40.233Z</time>
      </trkpt>
      <trkpt lat="47.365393" lon="7.794790">
        <ele>903.094680</ele>
        <time>2021-11-21T11:12:18.397Z</time>
      </trkpt>
      <trkpt lat="47.365315" lon="7.795871">
        <ele>914.383560</ele>
        <time>2021-11-21T11:13:17.746Z</time>
      </trkpt>
      <trkpt lat="47.365289" lon="7.796000">
        <ele>915.781178</ele>
        <time>2021-11-21T11:13:27.870Z</time>
      </trkpt>
      <trkpt lat="47.365262" lon="7.796193">
        <ele>917.827642</ele>
        <time>2021-11-21T11:13:41.050Z</time>
      </trkpt>
      <trkpt lat="47.365133" lon="7.796958">
        <ele>926.014099</ele>
        <time>2021-11-21T11:14:20.080Z</time>
      </trkpt>
      <trkpt lat="47.365158" lon="7.797216">
        <ele>928.647305</ele>
        <time>2021-11-21T11:14:34.954Z</time>
      </trkpt>
      <trkpt lat="47.365263" lon="7.797290">
        <ele>930.359746</ele>
        <time>2021-11-21T11:14:42.038Z</time>
      </trkpt>
      <trkpt lat="47.365473" lon="7.797307">
        <ele>933.455183</ele>
        <time>2021-11-21T11:15:01.387Z</time>
      </trkpt>
      <trkpt lat="47.365595" lon="7.797291">
        <ele>935.257858</ele>
        <time>2021-11-21T11:15:10.927Z</time>
      </trkpt>
      <trkpt lat="47.365695" lon="7.797189">
        <ele>937.046750</ele>
        <time>2021-11-21T11:15:20.201Z</time>
      </trkpt>
      <trkpt lat="47.365728" lon="7.797123">
        <ele>937.864544</ele>
        <time>2021-11-21T11:15:26.429Z</time>
      </trkpt>
      <trkpt lat="47.365789" lon="7.797056">
        <ele>938.983539</ele>
        <time>2021-11-21T11:15:33.393Z</time>
      </trkpt>
      <trkpt lat="47.365871" lon="7.797045">
        <ele>940.195392</ele>
        <time>2021-11-21T11:15:38.485Z</time>
      </trkpt>
      <trkpt lat="47.365897" lon="7.797067">
        <ele>940.636453</ele>
        <time>2021-11-21T11:15:41.853Z</time>
      </trkpt>
      <trkpt lat="47.365917" lon="7.797104">
        <ele>941.108358</ele>
        <time>2021-11-21T11:15:44.827Z</time>
      </trkpt>
      <trkpt lat="47.365921" lon="7.797237">
        <ele>942.435508</ele>
        <time>2021-11-21T11:15:49.153Z</time>
      </trkpt>
      <trkpt lat="47.365733" lon="7.797780">
        <ele>948.514759</ele>
        <time>2021-11-21T11:16:21.908Z</time>
      </trkpt>
      <trkpt lat="47.365732" lon="7.798053">
        <ele>951.236278</ele>
        <time>2021-11-21T11:16:36.288Z</time>
      </trkpt>
      <trkpt lat="47.365784" lon="7.798260">
        <ele>953.423422</ele>
        <time>2021-11-21T11:16:46.720Z</time>
      </trkpt>
      <trkpt lat="47.365819" lon="7.798336">
        <ele>954.170347</ele>
        <time>2021-11-21T11:16:52.925Z</time>
      </trkpt>
      <trkpt lat="47.365839" lon="7.798381">
        <ele>954.607782</ele>
        <time>2021-11-21T11:16:55.534Z</time>
      </trkpt>
      <trkpt lat="47.365876" lon="7.798471">
        <ele>955.463431</ele>
        <time>2021-11-21T11:16:59.394Z</time>
      </trkpt>
      <trkpt lat="47.365889" lon="7.798520">
        <ele>955.891127</ele>
        <time>2021-11-21T11:17:03.347Z</time>
      </trkpt>
      <trkpt lat="47.365894" lon="7.798717">
        <ele>957.493321</ele>
        <time>2021-11-21T11:17:12.395Z</time>
      </trkpt>
      <trkpt lat="47.365724" lon="7.799312">
        <ele>962.741683</ele>
        <time>2021-11-21T11:17:46.533Z</time>
      </trkpt>
      <trkpt lat="47.365721" lon="7.800127">
        <ele>969.365516</ele>
        <time>2021-11-21T11:18:27.379Z</time>
      </trkpt>
      <trkpt lat="47.365383" lon="7.801459">
        <ele>975.349011</ele>
        <time>2021-11-21T11:19:16.960Z</time>
      </trkpt>
      <trkpt lat="47.365395" lon="7.801974">
        <ele>975.631852</ele>
        <time>2021-11-21T11:19:28.847Z</time>
      </trkpt>
      <trkpt lat="47.365409" lon="7.802132">
        <ele>975.719314</ele>
        <time>2021-11-21T11:19:33.688Z</time>
      </trkpt>
      <trkpt lat="47.365408" lon="7.802197">
        <ele>975.755000</ele>
        <time>2021-11-21T11:19:35.867Z</time>
      </trkpt>
      <trkpt lat="47.365401" lon="7.802264">
        <ele>975.792210</ele>
        <time>2021-11-21T11:19:36.244Z</time>
      </trkpt>
      <trkpt lat="47.365315" lon="7.802735">
        <ele>976.059962</ele>
        <time>2021-11-21T11:19:40.275Z</time>
      </trkpt>
      <trkpt lat="47.365355" lon="7.802882">
        <ele>976.146915</ele>
        <time>2021-11-21T11:19:41.163Z</time>
      </trkpt>
      <trkpt lat="47.365443" lon="7.802903">
        <ele>976.219153</ele>
        <time>2021-11-21T11:19:42.103Z</time>
      </trkpt>
      <trkpt lat="47.365623" lon="7.802760">
        <ele>976.384796</ele>
        <time>2021-11-21T11:19:44.009Z</time>
      </trkpt>
      <trkpt lat="47.365767" lon="7.802729">
        <ele>975.415996</ele>
        <time>2021-11-21T11:19:45.270Z</time>
      </trkpt>
      <trkpt lat="47.366118" lon="7.803026">
        <ele>972.183189</ele>
        <time>2021-11-21T11:19:48.897Z</time>
      </trkpt>
      <trkpt lat="47.366243" lon="7.803038">
        <ele>971.182209</ele>
        <time>2021-11-21T11:19:50.636Z</time>
      </trkpt>
      <trkpt lat="47.366303" lon="7.803015">
        <ele>970.686855</ele>
        <time>2021-11-21T11:19:51.144Z</time>
      </trkpt>
      <trkpt lat="47.366487" lon="7.802913">
        <ele>969.116294</ele>
        <time>2021-11-21T11:19:52.872Z</time>
      </trkpt>
      <trkpt lat="47.366661" lon="7.802942">
        <ele>967.717036</ele>
        <time>2021-11-21T11:19:54.368Z</time>
      </trkpt>
      <trkpt lat="47.366965" lon="7.803321">
        <ele>964.537580</ele>
        <time>2021-11-21T11:19:57.889Z</time>
      </trkpt>
      <trkpt lat="47.366977" lon="7.803364">
        <ele>964.285871</ele>
        <time>2021-11-21T11:19:58.145Z</time>
      </trkpt>
      <trkpt lat="47.366975" lon="7.803406">
        <ele>964.057994</ele>
        <time>2021-11-21T11:19:58.424Z</time>
      </trkpt>
      <trkpt lat="47.366691" lon="7.803836">
        <ele>961.169959</ele>
        <time>2021-11-21T11:20:02.045Z</time>
      </trkpt>
      <trkpt lat="47.366089" lon="7.804186">
        <ele>957.533428</ele>
        <time>2021-11-21T11:20:07.952Z</time>
      </trkpt>
      <trkpt lat="47.365965" lon="7.804401">
        <ele>956.458399</ele>
        <time>2021-11-21T11:20:09.938Z</time>
      </trkpt>
      <trkpt lat="47.365950" lon="7.804468">
        <ele>956.189761</ele>
        <time>2021-11-21T11:20:12.363Z</time>
      </trkpt>
      <trkpt lat="47.365948" lon="7.804523">
        <ele>955.980077</ele>
        <time>2021-11-21T11:20:12.666Z</time>
      </trkpt>
      <trkpt lat="47.366044" lon="7.805143">
        <ele>953.558879</ele>
        <time>2021-11-21T11:20:16.762Z</time>
      </trkpt>
      <trkpt lat="47.366021" lon="7.806280">
        <ele>948.012525</ele>
        <time>2021-11-21T11:20:23.960Z</time>
      </trkpt>
      <trkpt lat="47.366067" lon="7.807206">
        <ele>942.881122</ele>
        <time>2021-11-21T11:20:29.474Z</time>
      </trkpt>
      <trkpt lat="47.365963" lon="7.807656">
        <ele>940.253343</ele>
        <time>2021-11-21T11:20:32.251Z</time>
      </trkpt>
      <trkpt lat="47.366014" lon="7.808874">
        <ele>932.073558</ele>
        <time>2021-11-21T11:20:39.374Z</time>
      </trkpt>
      <trkpt lat="47.366031" lon="7.808903">
        <ele>931.780125</ele>
        <time>2021-11-21T11:20:39.590Z</time>
      </trkpt>
      <trkpt lat="47.366071" lon="7.808914">
        <ele>931.320522</ele>
        <time>2021-11-21T11:20:39.941Z</time>
      </trkpt>
      <trkpt lat="47.366148" lon="7.808831">
        <ele>930.243602</ele>
        <time>2021-11-21T11:20:40.774Z</time>
      </trkpt>
      <trkpt lat="47.366145" lon="7.808362">
        <ele>926.655229</ele>
        <time>2021-11-21T11:20:43.478Z</time>
      </trkpt>
      <trkpt lat="47.366401" lon="7.807192">
        <ele>917.248349</ele>
        <time>2021-11-21T11:20:50.538Z</time>
      </trkpt>
      <trkpt lat="47.366915" lon="7.806417">
        <ele>908.403340</ele>
        <time>2021-11-21T11:20:56.722Z</time>
      </trkpt>
      <trkpt lat="47.367036" lon="7.806304">
        <ele>906.675301</ele>
        <time>2021-11-21T11:20:57.930Z</time>
      </trkpt>
      <trkpt lat="47.367340" lon="7.806215">
        <ele>902.934720</ele>
        <time>2021-11-21T11:21:00.527Z</time>
      </trkpt>
      <trkpt lat="47.367946" lon="7.806323">
        <ele>895.567478</ele>
        <time>2021-11-21T11:21:05.699Z</time>
      </trkpt>
      <trkpt lat="47.368061" lon="7.806433">
        <ele>894.474693</ele>
        <time>2021-11-21T11:21:06.851Z</time>
      </trkpt>
      <trkpt lat="47.368147" lon="7.806515">
        <ele>893.770574</ele>
        <time>2021-11-21T11:21:07.761Z</time>
      </trkpt>
      <trkpt lat="47.368214" lon="7.806579">
        <ele>893.221722</ele>
        <time>2021-11-21T11:21:08.449Z</time>
      </trkpt>
      <trkpt lat="47.368484" lon="7.807099">
        <ele>890.169477</ele>
        <time>2021-11-21T11:21:12.331Z</time>
      </trkpt>
      <trkpt lat="47.368518" lon="7.807218">
        <ele>889.567835</ele>
        <time>2021-11-21T11:21:13.070Z</time>
      </trkpt>
      <trkpt lat="47.368763" lon="7.808313">
        <ele>884.195894</ele>
        <time>2021-11-21T11:21:20.552Z</time>
      </trkpt>
      <trkpt lat="47.368977" lon="7.808681">
        <ele>882.220167</ele>
        <time>2021-11-21T11:21:23.827Z</time>
      </trkpt>
      <trkpt lat="47.369367" lon="7.808741">
        <ele>880.363532</ele>
        <time>2021-11-21T11:21:27.806Z</time>
      </trkpt>
      <trkpt lat="47.369468" lon="7.808790">
        <ele>879.860147</ele>
        <time>2021-11-21T11:21:29.320Z</time>
      </trkpt>
      <trkpt lat="47.369556" lon="7.808854">
        <ele>879.395666</ele>
        <time>2021-11-21T11:21:30.373Z</time>
      </trkpt>
      <trkpt lat="47.369822" lon="7.809045">
        <ele>877.995128</ele>
        <time>2021-11-21T11:21:33.386Z</time>
      </trkpt>
      <trkpt lat="47.369981" lon="7.809134">
        <ele>877.189985</ele>
        <time>2021-11-21T11:21:34.983Z</time>
      </trkpt>
      <trkpt lat="47.370129" lon="7.809313">
        <ele>876.284125</ele>
        <time>2021-11-21T11:21:36.833Z</time>
      </trkpt>
      <trkpt lat="47.370325" lon="7.809930">
        <ele>873.758400</ele>
        <time>2021-11-21T11:21:40.982Z</time>
      </trkpt>
      <trkpt lat="47.370506" lon="7.810302">
        <ele>870.133301</ele>
        <time>2021-11-21T11:21:43.695Z</time>
      </trkpt>
      <trkpt lat="47.370660" lon="7.810926">
        <ele>864.877174</ele>
        <time>2021-11-21T11:21:47.494Z</time>
      </trkpt>
      <trkpt lat="47.371158" lon="7.811618">
        <ele>856.885973</ele>
        <time>2021-11-21T11:21:53.213Z</time>
      </trkpt>
      <trkpt lat="47.371175" lon="7.811889">
        <ele>854.732071</ele>
        <time>2021-11-21T11:21:54.754Z</time>
      </trkpt>
      <trkpt lat="47.371110" lon="7.812161">
        <ele>852.552596</ele>
        <time>2021-11-21T11:21:56.392Z</time>
      </trkpt>
      <trkpt lat="47.371006" lon="7.812294">
        <ele>851.137225</ele>
        <time>2021-11-21T11:21:57.543Z</time>
      </trkpt>
      <trkpt lat="47.370768" lon="7.812383">
        <ele>848.611541</ele>
        <time>2021-11-21T11:21:59.609Z</time>
      </trkpt>
      <trkpt lat="47.370709" lon="7.812476">
        <ele>847.723723</ele>
        <time>2021-11-21T11:22:00.337Z</time>
      </trkpt>
      <trkpt lat="47.370705" lon="7.812635">
        <ele>846.615187</ele>
        <time>2021-11-21T11:22:01.252Z</time>
      </trkpt>
      <trkpt lat="47.370885" lon="7.813091">
        <ele>842.937932</ele>
        <time>2021-11-21T11:22:04.302Z</time>
      </trkpt>
      <trkpt lat="47.371001" lon="7.813088">
        <ele>841.744418</ele>
        <time>2021-11-21T11:22:05.308Z</time>
      </trkpt>
      <trkpt lat="47.371673" lon="7.812609">
        <ele>834.328196</ele>
        <time>2021-11-21T11:22:11.881Z</time>
      </trkpt>
      <trkpt lat="47.372149" lon="7.811991">
        <ele>830.097926</ele>
        <time>2021-11-21T11:22:17.689Z</time>
      </trkpt>
      <trkpt lat="47.372181" lon="7.811684">
        <ele>828.693970</ele>
        <time>2021-11-21T11:22:19.565Z</time>
      </trkpt>
      <trkpt lat="47.372046" lon="7.811285">
        <ele>826.677973</ele>
        <time>2021-11-21T11:22:22.302Z</time>
      </trkpt>
      <trkpt lat="47.372059" lon="7.811153">
        <ele>826.075066</ele>
        <time>2021-11-21T11:22:23.181Z</time>
      </trkpt>
      <trkpt lat="47.372141" lon="7.811028">
        <ele>825.288474</ele>
        <time>2021-11-21T11:22:24.227Z</time>
      </trkpt>
      <trkpt lat="47.372175" lon="7.811013">
        <ele>825.051643</ele>
        <time>2021-11-21T11:22:24.577Z</time>
      </trkpt>
      <trkpt lat="47.372204" lon="7.811014">
        <ele>824.858041</ele>
        <time>2021-11-21T11:22:24.816Z</time>
      </trkpt>
      <trkpt lat="47.372374" lon="7.811194">
        <ele>823.461893</ele>
        <time>2021-11-21T11:22:26.921Z</time>
      </trkpt>
      <trkpt lat="47.372686" lon="7.812168">
        <ele>819.422716</ele>
        <time>2021-11-21T11:22:33.584Z</time>
      </trkpt>
      <trkpt lat="47.372854" lon="7.812327">
        <ele>818.353584</ele>
        <time>2021-11-21T11:22:35.360Z</time>
      </trkpt>
      <trkpt lat="47.373000" lon="7.812263">
        <ele>817.537601</ele>
        <time>2021-11-21T11:22:36.977Z</time>
      </trkpt>
      <trkpt lat="47.373016" lon="7.812223">
        <ele>817.369038</ele>
        <time>2021-11-21T11:22:37.234Z</time>
      </trkpt>
      <trkpt lat="47.373021" lon="7.812194">
        <ele>817.260457</ele>
        <time>2021-11-21T11:22:38.404Z</time>
      </trkpt>
      <trkpt lat="47.372901" lon="7.811745">
        <ele>815.509012</ele>
        <time>2021-11-21T11:22:41.407Z</time>
      </trkpt>
      <trkpt lat="47.372830" lon="7.811479">
        <ele>814.471586</ele>
        <time>2021-11-21T11:22:43.496Z</time>
      </trkpt>
      <trkpt lat="47.372756" lon="7.811198">
        <ele>813.377617</ele>
        <time>2021-11-21T11:22:45.473Z</time>
      </trkpt>
      <trkpt lat="47.372603" lon="7.810041">
        <ele>809.460509</ele>
        <time>2021-11-21T11:22:53.297Z</time>
      </trkpt>
      <trkpt lat="47.372500" lon="7.809703">
        <ele>808.234775</ele>
        <time>2021-11-21T11:22:55.900Z</time>
      </trkpt>
      <trkpt lat="47.372301" lon="7.809254">
        <ele>806.460186</ele>
        <time>2021-11-21T11:22:59.377Z</time>
      </trkpt>
      <trkpt lat="47.372245" lon="7.809121">
        <ele>805.942267</ele>
        <time>2021-11-21T11:23:00.337Z</time>
      </trkpt>
      <trkpt lat="47.372022" lon="7.808140">
        <ele>800.437201</ele>
        <time>2021-11-21T11:23:06.651Z</time>
      </trkpt>
      <trkpt lat="47.371986" lon="7.807774">
        <ele>797.847664</ele>
        <time>2021-11-21T11:23:08.768Z</time>
      </trkpt>
      <trkpt lat="47.372009" lon="7.807517">
        <ele>796.032564</ele>
        <time>2021-11-21T11:23:10.268Z</time>
      </trkpt>
      <trkpt lat="47.372097" lon="7.807362">
        <ele>794.616381</ele>
        <time>2021-11-21T11:23:11.419Z</time>
      </trkpt>
      <trkpt lat="47.372669" lon="7.806939">
        <ele>788.002418</ele>
        <time>2021-11-21T11:23:16.846Z</time>
      </trkpt>
      <trkpt lat="47.372947" lon="7.806830">
        <ele>785.002309</ele>
        <time>2021-11-21T11:23:19.327Z</time>
      </trkpt>
      <trkpt lat="47.373165" lon="7.806837">
        <ele>782.669825</ele>
        <time>2021-11-21T11:23:21.142Z</time>
      </trkpt>
      <trkpt lat="47.373210" lon="7.806833">
        <ele>782.187592</ele>
        <time>2021-11-21T11:23:21.530Z</time>
      </trkpt>
      <trkpt lat="47.373430" lon="7.806736">
        <ele>779.731597</ele>
        <time>2021-11-21T11:23:23.471Z</time>
      </trkpt>
      <trkpt lat="47.373591" lon="7.806524">
        <ele>777.424099</ele>
        <time>2021-11-21T11:23:25.371Z</time>
      </trkpt>
      <trkpt lat="47.373611" lon="7.806468">
        <ele>776.965472</ele>
        <time>2021-11-21T11:23:25.733Z</time>
      </trkpt>
      <trkpt lat="47.373619" lon="7.806419">
        <ele>776.600340</ele>
        <time>2021-11-21T11:23:26.021Z</time>
      </trkpt>
      <trkpt lat="47.373597" lon="7.805846">
        <ele>772.442790</ele>
        <time>2021-11-21T11:23:29.320Z</time>
      </trkpt>
      <trkpt lat="47.373682" lon="7.805662">
        <ele>770.829289</ele>
        <time>2021-11-21T11:23:30.625Z</time>
      </trkpt>
      <trkpt lat="47.373813" lon="7.805582">
        <ele>769.312881</ele>
        <time>2021-11-21T11:23:31.919Z</time>
      </trkpt>
      <trkpt lat="47.373849" lon="7.805579">
        <ele>768.927179</ele>
        <time>2021-11-21T11:23:32.228Z</time>
      </trkpt>
      <trkpt lat="47.373885" lon="7.805586">
        <ele>768.538765</ele>
        <time>2021-11-21T11:23:32.528Z</time>
      </trkpt>
      <trkpt lat="47.374272" lon="7.805826">
        <ele>764.599131</ele>
        <time>2021-11-21T11:23:36.158Z</time>
      </trkpt>
      <trkpt lat="47.374510" lon="7.806114">
        <ele>762.032189</ele>
        <time>2021-11-21T11:23:38.824Z</time>
      </trkpt>
      <trkpt lat="47.374590" lon="7.806396">
        <ele>760.304929</ele>
        <time>2021-11-21T11:23:40.770Z</time>
      </trkpt>
      <trkpt lat="47.374615" lon="7.807174">
        <ele>755.904782</ele>
        <time>2021-11-21T11:23:45.339Z</time>
      </trkpt>
      <trkpt lat="47.374706" lon="7.807384">
        <ele>754.496323</ele>
        <time>2021-11-21T11:23:46.934Z</time>
      </trkpt>
      <trkpt lat="47.374737" lon="7.807407">
        <ele>754.206908</ele>
        <time>2021-11-21T11:23:47.222Z</time>
      </trkpt>
      <trkpt lat="47.374776" lon="7.807417">
        <ele>753.876693</ele>
        <time>2021-11-21T11:23:47.554Z</time>
      </trkpt>
      <trkpt lat="47.375032" lon="7.807405">
        <ele>751.740013</ele>
        <time>2021-11-21T11:23:49.989Z</time>
      </trkpt>
      <trkpt lat="47.375346" lon="7.807511">
        <ele>749.396017</ele>
        <time>2021-11-21T11:23:52.862Z</time>
      </trkpt>
      <trkpt lat="47.375577" lon="7.807157">
        <ele>747.001222</ele>
        <time>2021-11-21T11:23:55.836Z</time>
      </trkpt>
      <trkpt lat="47.375673" lon="7.807126">
        <ele>746.294326</ele>
        <time>2021-11-21T11:23:56.745Z</time>
      </trkpt>
      <trkpt lat="47.375848" lon="7.807204">
        <ele>744.979369</ele>
        <time>2021-11-21T11:23:58.334Z</time>
      </trkpt>
      <trkpt lat="47.375935" lon="7.807366">
        <ele>743.972175</ele>
        <time>2021-11-21T11:23:59.658Z</time>
      </trkpt>
      <trkpt lat="47.376087" lon="7.808289">
        <ele>739.344896</ele>
        <time>2021-11-21T11:24:05.476Z</time>
      </trkpt>
      <trkpt lat="47.376186" lon="7.808634">
        <ele>737.076802</ele>
        <time>2021-11-21T11:24:07.764Z</time>
      </trkpt>
      <trkpt lat="47.376936" lon="7.809261">
        <ele>728.349159</ele>
        <time>2021-11-21T11:24:15.197Z</time>
      </trkpt>
      <trkpt lat="47.377731" lon="7.809856">
        <ele>719.352873</ele>
        <time>2021-11-21T11:24:22.759Z</time>
      </trkpt>
      <trkpt lat="47.377863" lon="7.809941">
        <ele>717.934679</ele>
        <time>2021-11-21T11:24:23.948Z</time>
      </trkpt>
      <trkpt lat="47.378143" lon="7.810053">
        <ele>715.077780</ele>
        <time>2021-11-21T11:24:26.471Z</time>
      </trkpt>
      <trkpt lat="47.378443" lon="7.810081">
        <ele>712.117385</ele>
        <time>2021-11-21T11:24:29.080Z</time>
      </trkpt>
      <trkpt lat="47.378559" lon="7.810043">
        <ele>710.947209</ele>
        <time>2021-11-21T11:24:30.058Z</time>
      </trkpt>
      <trkpt lat="47.378591" lon="7.810028">
        <ele>710.616567</ele>
        <time>2021-11-21T11:24:30.354Z</time>
      </trkpt>
      <trkpt lat="47.378701" lon="7.809974">
        <ele>709.474964</ele>
        <time>2021-11-21T11:24:31.450Z</time>
      </trkpt>
      <trkpt lat="47.378888" lon="7.809821">
        <ele>707.369568</ele>
        <time>2021-11-21T11:24:33.260Z</time>
      </trkpt>
      <trkpt lat="47.379040" lon="7.809599">
        <ele>705.264188</ele>
        <time>2021-11-21T11:24:35.333Z</time>
      </trkpt>
      <trkpt lat="47.379163" lon="7.809297">
        <ele>702.913998</ele>
        <time>2021-11-21T11:24:37.375Z</time>
      </trkpt>
      <trkpt lat="47.379222" lon="7.808961">
        <ele>701.459769</ele>
        <time>2021-11-21T11:24:39.492Z</time>
      </trkpt>
      <trkpt lat="47.379233" lon="7.808825">
        <ele>700.924555</ele>
        <time>2021-11-21T11:24:40.358Z</time>
      </trkpt>
      <trkpt lat="47.379224" lon="7.808667">
        <ele>700.304971</ele>
        <time>2021-11-21T11:24:41.355Z</time>
      </trkpt>
      <trkpt lat="47.379218" lon="7.808133">
        <ele>698.218016</ele>
        <time>2021-11-21T11:24:44.676Z</time>
      </trkpt>
      <trkpt lat="47.379364" lon="7.807355">
        <ele>695.063305</ele>
        <time>2021-11-21T11:24:49.900Z</time>
      </trkpt>
      <trkpt lat="47.379356" lon="7.807249">
        <ele>694.646534</ele>
        <time>2021-11-21T11:24:50.606Z</time>
      </trkpt>
      <trkpt lat="47.379310" lon="7.806984">
        <ele>693.577534</ele>
        <time>2021-11-21T11:24:52.268Z</time>
      </trkpt>
      <trkpt lat="47.379225" lon="7.806690">
        <ele>692.328361</ele>
        <time>2021-11-21T11:24:54.391Z</time>
      </trkpt>
      <trkpt lat="47.378952" lon="7.806194">
        <ele>690.505251</ele>
        <time>2021-11-21T11:24:58.418Z</time>
      </trkpt>
      <trkpt lat="47.378947" lon="7.806093">
        <ele>690.217712</ele>
        <time>2021-11-21T11:24:59.011Z</time>
      </trkpt>
      <trkpt lat="47.378963" lon="7.806014">
        <ele>689.983586</ele>
        <time>2021-11-21T11:24:59.573Z</time>
      </trkpt>
      <trkpt lat="47.379015" lon="7.805897">
        <ele>689.586218</ele>
        <time>2021-11-21T11:25:00.492Z</time>
      </trkpt>
      <trkpt lat="47.379075" lon="7.805868">
        <ele>689.321501</ele>
        <time>2021-11-21T11:25:01.151Z</time>
      </trkpt>
      <trkpt lat="47.379239" lon="7.805910">
        <ele>688.623569</ele>
        <time>2021-11-21T11:25:02.665Z</time>
      </trkpt>
      <trkpt lat="47.379573" lon="7.806426">
        <ele>686.596781</ele>
        <time>2021-11-21T11:25:07.406Z</time>
      </trkpt>
      <trkpt lat="47.379797" lon="7.806467">
        <ele>685.650340</ele>
        <time>2021-11-21T11:25:09.765Z</time>
      </trkpt>
      <trkpt lat="47.379914" lon="7.806408">
        <ele>685.131935</ele>
        <time>2021-11-21T11:25:11.066Z</time>
      </trkpt>
      <trkpt lat="47.380508" lon="7.805469">
        <ele>681.801739</ele>
        <time>2021-11-21T11:25:20.490Z</time>
      </trkpt>
      <trkpt lat="47.380628" lon="7.805413">
        <ele>681.325366</ele>
        <time>2021-11-21T11:25:21.878Z</time>
      </trkpt>
      <trkpt lat="47.380898" lon="7.805431">
        <ele>680.302296</ele>
        <time>2021-11-21T11:25:25.023Z</time>
      </trkpt>
      <trkpt lat="47.381082" lon="7.805546">
        <ele>679.545998</ele>
        <time>2021-11-21T11:25:27.006Z</time>
      </trkpt>
      <trkpt lat="47.381191" lon="7.805691">
        <ele>678.990698</ele>
        <time>2021-11-21T11:25:28.290Z</time>
      </trkpt>
      <trkpt lat="47.381646" lon="7.806639">
        <ele>672.190893</ele>
        <time>2021-11-21T11:25:35.300Z</time>
      </trkpt>
      <trkpt lat="47.381798" lon="7.806816">
        <ele>670.011518</ele>
        <time>2021-11-21T11:25:36.998Z</time>
      </trkpt>
      <trkpt lat="47.381938" lon="7.806887">
        <ele>668.344898</ele>
        <time>2021-11-21T11:25:38.243Z</time>
      </trkpt>
      <trkpt lat="47.382151" lon="7.806977">
        <ele>665.850490</ele>
        <time>2021-11-21T11:25:40.149Z</time>
      </trkpt>
      <trkpt lat="47.382203" lon="7.807060">
        <ele>664.988422</ele>
        <time>2021-11-21T11:25:40.774Z</time>
      </trkpt>
      <trkpt lat="47.382609" lon="7.807902">
        <ele>656.921796</ele>
        <time>2021-11-21T11:25:46.654Z</time>
      </trkpt>
      <trkpt lat="47.382984" lon="7.808883">
        <ele>645.616136</ele>
        <time>2021-11-21T11:25:52.914Z</time>
      </trkpt>
      <trkpt lat="47.383202" lon="7.809084">
        <ele>641.807044</ele>
        <time>2021-11-21T11:25:55.050Z</time>
      </trkpt>
      <trkpt lat="47.383605" lon="7.809204">
        <ele>635.713707</ele>
        <time>2021-11-21T11:25:58.503Z</time>
      </trkpt>
      <trkpt lat="47.383767" lon="7.809158">
        <ele>633.268617</ele>
        <time>2021-11-21T11:25:59.867Z</time>
      </trkpt>
      <trkpt lat="47.383832" lon="7.809124">
        <ele>632.246569</ele>
        <time>2021-11-21T11:26:00.438Z</time>
      </trkpt>
      <trkpt lat="47.384356" lon="7.808915">
        <ele>627.268536</ele>
        <time>2021-11-21T11:26:05.087Z</time>
      </trkpt>
      <trkpt lat="47.385091" lon="7.808732">
        <ele>621.177025</ele>
        <time>2021-11-21T11:26:11.606Z</time>
      </trkpt>
      <trkpt lat="47.385691" lon="7.808255">
        <ele>615.691466</ele>
        <time>2021-11-21T11:26:18.118Z</time>
      </trkpt>
      <trkpt lat="47.386311" lon="7.808152">
        <ele>611.173141</ele>
        <time>2021-11-21T11:26:24.129Z</time>
      </trkpt>
      <trkpt lat="47.386462" lon="7.808195">
        <ele>610.059466</ele>
        <time>2021-11-21T11:26:25.539Z</time>
      </trkpt>
      <trkpt lat="47.386636" lon="7.808283">
        <ele>608.727541</ele>
        <time>2021-11-21T11:26:27.296Z</time>
      </trkpt>
      <trkpt lat="47.387045" lon="7.808425">
        <ele>605.684852</ele>
        <time>2021-11-21T11:26:31.004Z</time>
      </trkpt>
      <trkpt lat="47.388151" lon="7.809440">
        <ele>591.052088</ele>
        <time>2021-11-21T11:26:41.965Z</time>
      </trkpt>
      <trkpt lat="47.388292" lon="7.809644">
        <ele>588.568972</ele>
        <time>2021-11-21T11:26:43.605Z</time>
      </trkpt>
      <trkpt lat="47.388351" lon="7.809739">
        <ele>587.470926</ele>
        <time>2021-11-21T11:26:44.328Z</time>
      </trkpt>
      <trkpt lat="47.389739" lon="7.812700">
        <ele>558.626019</ele>
        <time>2021-11-21T11:27:04.935Z</time>
      </trkpt>
      <trkpt lat="47.389927" lon="7.813139">
        <ele>555.841297</ele>
        <time>2021-11-21T11:27:07.999Z</time>
      </trkpt>
      <trkpt lat="47.390090" lon="7.813569">
        <ele>553.199392</ele>
        <time>2021-11-21T11:27:10.957Z</time>
      </trkpt>
      <trkpt lat="47.390296" lon="7.814370">
        <ele>548.605995</ele>
        <time>2021-11-21T11:27:16.143Z</time>
      </trkpt>
      <trkpt lat="47.390484" lon="7.815052">
        <ele>544.987689</ele>
        <time>2021-11-21T11:27:20.640Z</time>
      </trkpt>
      <trkpt lat="47.390680" lon="7.814949">
        <ele>544.386385</ele>
        <time>2021-11-21T11:27:23.468Z</time>
      </trkpt>
      <trkpt lat="47.391072" lon="7.814743">
        <ele>543.183778</ele>
        <time>2021-11-21T11:27:29.336Z</time>
      </trkpt>
      <trkpt lat="47.391330" lon="7.814611">
        <ele>542.394588</ele>
        <time>2021-11-21T11:27:33.373Z</time>
      </trkpt>
      <trkpt lat="47.391510" lon="7.814535">
        <ele>541.853479</ele>
        <time>2021-11-21T11:27:36.367Z</time>
      </trkpt>
      <trkpt lat="47.391815" lon="7.814430">
        <ele>540.948280</ele>
        <time>2021-11-21T11:27:41.836Z</time>
      </trkpt>
      <trkpt lat="47.391873" lon="7.814418">
        <ele>540.779000</ele>
        <time>2021-11-21T11:27:42.760Z</time>
      </trkpt>
      <trkpt lat="47.391965" lon="7.814402">
        <ele>540.511246</ele>
        <time>2021-11-21T11:27:44.337Z</time>
      </trkpt>
      <trkpt lat="47.392009" lon="7.814397">
        <ele>540.383693</ele>
        <time>2021-11-21T11:27:45.287Z</time>
      </trkpt>
      <trkpt lat="47.392247" lon="7.814378">
        <ele>540.074399</ele>
        <time>2021-11-21T11:27:49.484Z</time>
      </trkpt>
      <trkpt lat="47.392571" lon="7.814403">
        <ele>540.392994</ele>
        <time>2021-11-21T11:27:55.284Z</time>
      </trkpt>
      <trkpt lat="47.392674" lon="7.814421">
        <ele>540.494843</ele>
        <time>2021-11-21T11:27:56.995Z</time>
      </trkpt>
      <trkpt lat="47.392812" lon="7.814454">
        <ele>540.632120</ele>
        <time>2021-11-21T11:28:00.348Z</time>
      </trkpt>
      <trkpt lat="47.394138" lon="7.814860">
        <ele>541.728808</ele>
        <time>2021-11-21T11:28:38.532Z</time>
      </trkpt>
      <trkpt lat="47.394617" lon="7.815011">
        <ele>541.694427</ele>
        <time>2021-11-21T11:28:52.488Z</time>
      </trkpt>
      <trkpt lat="47.395284" lon="7.815226">
        <ele>541.646504</ele>
        <time>2021-11-21T11:29:06.449Z</time>
      </trkpt>
      <trkpt lat="47.395894" lon="7.815362">
        <ele>540.600151</ele>
        <time>2021-11-21T11:29:15.585Z</time>
      </trkpt>
      <trkpt lat="47.396481" lon="7.815220">
        <ele>537.747773</ele>
        <time>2021-11-21T11:29:23.667Z</time>
      </trkpt>
      <trkpt lat="47.396655" lon="7.815127">
        <ele>536.860445</ele>
        <time>2021-11-21T11:29:26.154Z</time>
      </trkpt>
      <trkpt lat="47.396819" lon="7.815041">
        <ele>536.025925</ele>
        <time>2021-11-21T11:29:28.451Z</time>
      </trkpt>
      <trkpt lat="47.397420" lon="7.814610">
        <ele>532.820419</ele>
        <time>2021-11-21T11:29:37.282Z</time>
      </trkpt>
      <trkpt lat="47.397971" lon="7.814039">
        <ele>529.557844</ele>
        <time>2021-11-21T11:29:46.193Z</time>
      </trkpt>
      <trkpt lat="47.398378" lon="7.813502">
        <ele>526.912630</ele>
        <time>2021-11-21T11:29:53.683Z</time>
      </trkpt>
      <trkpt lat="47.398873" lon="7.812642">
        <ele>523.300838</ele>
        <time>2021-11-21T11:30:04.447Z</time>
      </trkpt>
      <trkpt lat="47.399003" lon="7.812335">
        <ele>522.215577</ele>
        <time>2021-11-21T11:30:07.927Z</time>
      </trkpt>
      <trkpt lat="47.399034" lon="7.812265">
        <ele>521.964882</ele>
        <time>2021-11-21T11:30:08.676Z</time>
      </trkpt>
      <trkpt lat="47.399530" lon="7.811091">
        <ele>517.817407</ele>
        <time>2021-11-21T11:30:21.659Z</time>
      </trkpt>
      <trkpt lat="47.399771" lon="7.810732">
        <ele>516.300595</ele>
        <time>2021-11-21T11:30:26.266Z</time>
      </trkpt>
      <trkpt lat="47.400026" lon="7.810485">
        <ele>514.705613</ele>
        <time>2021-11-21T11:30:30.329Z</time>
      </trkpt>
      <trkpt lat="47.400552" lon="7.810295">
        <ele>511.873168</ele>
        <time>2021-11-21T11:30:37.645Z</time>
      </trkpt>
      <trkpt lat="47.401421" lon="7.810310">
        <ele>507.327294</ele>
        <time>2021-11-21T11:30:49.218Z</time>
      </trkpt>
      <trkpt lat="47.402137" lon="7.810207">
        <ele>503.876302</ele>
        <time>2021-11-21T11:30:58.861Z</time>
      </trkpt>
      <trkpt lat="47.402761" lon="7.810009">
        <ele>500.849879</ele>
        <time>2021-11-21T11:31:07.539Z</time>
      </trkpt>
      <trkpt lat="47.403065" lon="7.809891">
        <ele>499.359420</ele>
        <time>2021-11-21T11:31:11.918Z</time>
      </trkpt>
      <trkpt lat="47.403266" lon="7.809816">
        <ele>498.376370</ele>
        <time>2021-11-21T11:31:14.826Z</time>
      </trkpt>
      <trkpt lat="47.403310" lon="7.809800">
        <ele>498.233837</ele>
        <time>2021-11-21T11:31:15.468Z</time>
      </trkpt>
      <trkpt lat="47.403507" lon="7.809728">
        <ele>497.600306</ele>
        <time>2021-11-21T11:31:18.347Z</time>
      </trkpt>
      <trkpt lat="47.403732" lon="7.809654">
        <ele>496.880709</ele>
        <time>2021-11-21T11:31:21.631Z</time>
      </trkpt>
      <trkpt lat="47.403833" lon="7.809618">
        <ele>496.556363</ele>
        <time>2021-11-21T11:31:23.155Z</time>
      </trkpt>
      <trkpt lat="47.404082" lon="7.809543">
        <ele>495.763046</ele>
        <time>2021-11-21T11:31:26.771Z</time>
      </trkpt>
      <trkpt lat="47.404543" lon="7.809480">
        <ele>494.317755</ele>
        <time>2021-11-21T11:31:33.773Z</time>
      </trkpt>
      <trkpt lat="47.404882" lon="7.809460">
        <ele>493.258622</ele>
        <time>2021-11-21T11:31:38.860Z</time>
      </trkpt>
      <trkpt lat="47.405269" lon="7.809435">
        <ele>492.188652</ele>
        <time>2021-11-21T11:31:44.745Z</time>
      </trkpt>
      <trkpt lat="47.405362" lon="7.809433">
        <ele>491.955358</ele>
        <time>2021-11-21T11:31:46.337Z</time>
      </trkpt>
      <trkpt lat="47.405651" lon="7.809411">
        <ele>491.229508</ele>
        <time>2021-11-21T11:31:50.674Z</time>
      </trkpt>
      <trkpt lat="47.405740" lon="7.809402">
        <ele>491.005750</ele>
        <time>2021-11-21T11:31:52.468Z</time>
      </trkpt>
      <trkpt lat="47.405843" lon="7.809380">
        <ele>490.744713</ele>
        <time>2021-11-21T11:31:53.976Z</time>
      </trkpt>
      <trkpt lat="47.405944" lon="7.809350">
        <ele>490.486310</ele>
        <time>2021-11-21T11:31:55.525Z</time>
      </trkpt>
      <trkpt lat="47.406093" lon="7.809301">
        <ele>490.103433</ele>
        <time>2021-11-21T11:31:58.010Z</time>
      </trkpt>
      <trkpt lat="47.406259" lon="7.809218">
        <ele>489.663866</ele>
        <time>2021-11-21T11:32:00.508Z</time>
      </trkpt>
      <trkpt lat="47.406932" lon="7.808849">
        <ele>487.837664</ele>
        <time>2021-11-21T11:32:11.280Z</time>
      </trkpt>
      <trkpt lat="47.407303" lon="7.808718">
        <ele>486.816857</ele>
        <time>2021-11-21T11:32:17.167Z</time>
      </trkpt>
      <trkpt lat="47.407661" lon="7.808646">
        <ele>485.849962</ele>
        <time>2021-11-21T11:32:22.429Z</time>
      </trkpt>
      <trkpt lat="47.408203" lon="7.808546">
        <ele>484.388225</ele>
        <time>2021-11-21T11:32:30.631Z</time>
      </trkpt>
      <trkpt lat="47.408773" lon="7.808493">
        <ele>482.948230</ele>
        <time>2021-11-21T11:32:39.325Z</time>
      </trkpt>
      <trkpt lat="47.408899" lon="7.808522">
        <ele>482.659587</ele>
        <time>2021-11-21T11:32:41.215Z</time>
      </trkpt>
      <trkpt lat="47.408924" lon="7.808529">
        <ele>482.601992</ele>
        <time>2021-11-21T11:32:41.628Z</time>
      </trkpt>
      <trkpt lat="47.409009" lon="7.808554">
        <ele>482.405818</ele>
        <time>2021-11-21T11:32:42.893Z</time>
      </trkpt>
      <trkpt lat="47.409739" lon="7.809061">
        <ele>480.580027</ele>
        <time>2021-11-21T11:32:55.446Z</time>
      </trkpt>
      <trkpt lat="47.409973" lon="7.809245">
        <ele>479.980036</ele>
        <time>2021-11-21T11:32:59.531Z</time>
      </trkpt>
      <trkpt lat="47.410057" lon="7.809308">
        <ele>479.766811</ele>
        <time>2021-11-21T11:33:01.059Z</time>
      </trkpt>
      <trkpt lat="47.410267" lon="7.809486">
        <ele>479.230674</ele>
        <time>2021-11-21T11:33:04.765Z</time>
      </trkpt>
      <trkpt lat="47.410407" lon="7.809617">
        <ele>478.886634</ele>
        <time>2021-11-21T11:33:07.414Z</time>
      </trkpt>
      <trkpt lat="47.410574" lon="7.809784">
        <ele>478.467979</ele>
        <time>2021-11-21T11:33:10.641Z</time>
      </trkpt>
      <trkpt lat="47.410795" lon="7.810008">
        <ele>477.911579</ele>
        <time>2021-11-21T11:33:14.926Z</time>
      </trkpt>
      <trkpt lat="47.411038" lon="7.810167">
        <ele>477.359820</ele>
        <time>2021-11-21T11:33:19.192Z</time>
      </trkpt>
      <trkpt lat="47.411512" lon="7.810306">
        <ele>476.356522</ele>
        <time>2021-11-21T11:33:26.647Z</time>
      </trkpt>
      <trkpt lat="47.412719" lon="7.810865">
        <ele>473.993131</ele>
        <time>2021-11-21T11:33:46.276Z</time>
      </trkpt>
      <trkpt lat="47.412829" lon="7.810950">
        <ele>473.771101</ele>
        <time>2021-11-21T11:33:48.267Z</time>
      </trkpt>
      <trkpt lat="47.413209" lon="7.811148">
        <ele>473.050392</ele>
        <time>2021-11-21T11:33:54.938Z</time>
      </trkpt>
      <trkpt lat="47.413295" lon="7.811180">
        <ele>472.891765</ele>
        <time>2021-11-21T11:33:56.434Z</time>
      </trkpt>
      <trkpt lat="47.413351" lon="7.811196">
        <ele>472.789744</ele>
        <time>2021-11-21T11:33:57.295Z</time>
      </trkpt>
      <trkpt lat="47.413454" lon="7.811217">
        <ele>472.603766</ele>
        <time>2021-11-21T11:33:59.114Z</time>
      </trkpt>
      <trkpt lat="47.413652" lon="7.811232">
        <ele>472.330370</ele>
        <time>2021-11-21T11:34:02.555Z</time>
      </trkpt>
      <trkpt lat="47.413716" lon="7.811229">
        <ele>472.273469</ele>
        <time>2021-11-21T11:34:03.536Z</time>
      </trkpt>
      <trkpt lat="47.413799" lon="7.811208">
        <ele>472.198638</ele>
        <time>2021-11-21T11:34:05.106Z</time>
      </trkpt>
      <trkpt lat="47.413959" lon="7.811165">
        <ele>472.054124</ele>
        <time>2021-11-21T11:34:07.975Z</time>
      </trkpt>
      <trkpt lat="47.414237" lon="7.811081">
        <ele>471.801971</ele>
        <time>2021-11-21T11:34:12.731Z</time>
      </trkpt>
      <trkpt lat="47.414706" lon="7.810912">
        <ele>471.372988</ele>
        <time>2021-11-21T11:34:21.335Z</time>
      </trkpt>
      <trkpt lat="47.415390" lon="7.810500">
        <ele>470.696076</ele>
        <time>2021-11-21T11:34:34.926Z</time>
      </trkpt>
      <trkpt lat="47.415633" lon="7.810382">
        <ele>470.419968</ele>
        <time>2021-11-21T11:34:39.438Z</time>
      </trkpt>
      <trkpt lat="47.415923" lon="7.810254">
        <ele>470.093259</ele>
        <time>2021-11-21T11:34:44.993Z</time>
      </trkpt>
      <trkpt lat="47.415983" lon="7.810241">
        <ele>470.027799</ele>
        <time>2021-11-21T11:34:45.899Z</time>
      </trkpt>
      <trkpt lat="47.416026" lon="7.810233">
        <ele>469.981015</ele>
        <time>2021-11-21T11:34:46.640Z</time>
      </trkpt>
      <trkpt lat="47.416349" lon="7.810346">
        <ele>469.622712</ele>
        <time>2021-11-21T11:34:52.242Z</time>
      </trkpt>
      <trkpt lat="47.416432" lon="7.810407">
        <ele>469.522648</ele>
        <time>2021-11-21T11:34:53.923Z</time>
      </trkpt>
      <trkpt lat="47.416598" lon="7.810554">
        <ele>469.313750</ele>
        <time>2021-11-21T11:34:57.393Z</time>
      </trkpt>
      <trkpt lat="47.416690" lon="7.810617">
        <ele>469.204295</ele>
        <time>2021-11-21T11:34:58.866Z</time>
      </trkpt>
      <trkpt lat="47.417067" lon="7.810695">
        <ele>468.829074</ele>
        <time>2021-11-21T11:35:05.262Z</time>
      </trkpt>
      <trkpt lat="47.417675" lon="7.810419">
        <ele>468.459708</ele>
        <time>2021-11-21T11:35:16.356Z</time>
      </trkpt>
      <trkpt lat="47.417743" lon="7.810418">
        <ele>468.420216</ele>
        <time>2021-11-21T11:35:17.319Z</time>
      </trkpt>
      <trkpt lat="47.417828" lon="7.810432">
        <ele>468.370548</ele>
        <time>2021-11-21T11:35:18.751Z</time>
      </trkpt>
      <trkpt lat="47.418377" lon="7.810720">
        <ele>468.032237</ele>
        <time>2021-11-21T11:35:28.330Z</time>
      </trkpt>
      <trkpt lat="47.418762" lon="7.810815">
        <ele>467.977373</ele>
        <time>2021-11-21T11:35:37.307Z</time>
      </trkpt>
      <trkpt lat="47.419015" lon="7.810884">
        <ele>469.076431</ele>
        <time>2021-11-21T11:35:45.118Z</time>
      </trkpt>
      <trkpt lat="47.419069" lon="7.810903">
        <ele>469.313565</ele>
        <time>2021-11-21T11:35:46.831Z</time>
      </trkpt>
      <trkpt lat="47.419134" lon="7.810926">
        <ele>469.599091</ele>
        <time>2021-11-21T11:35:48.216Z</time>
      </trkpt>
      <trkpt lat="47.419155" lon="7.810934">
        <ele>469.691735</ele>
        <time>2021-11-21T11:35:48.599Z</time>
      </trkpt>
      <trkpt lat="47.419414" lon="7.811078">
        <ele>470.873879</ele>
        <time>2021-11-21T11:36:01.633Z</time>
      </trkpt>
      <trkpt lat="47.419508" lon="7.811160">
        <ele>471.340178</ele>
        <time>2021-11-21T11:36:04.955Z</time>
      </trkpt>
      <trkpt lat="47.419632" lon="7.811270">
        <ele>471.958001</ele>
        <time>2021-11-21T11:36:12.651Z</time>
      </trkpt>
      <trkpt lat="47.419766" lon="7.811395">
        <ele>472.634936</ele>
        <time>2021-11-21T11:36:19.160Z</time>
      </trkpt>
      <trkpt lat="47.420135" lon="7.811734">
        <ele>474.491025</ele>
        <time>2021-11-21T11:36:36.313Z</time>
      </trkpt>
      <trkpt lat="47.420458" lon="7.811986">
        <ele>475.765066</ele>
        <time>2021-11-21T11:36:51.025Z</time>
      </trkpt>
      <trkpt lat="47.420607" lon="7.812071">
        <ele>476.086636</ele>
        <time>2021-11-21T11:36:59.301Z</time>
      </trkpt>
      <trkpt lat="47.420767" lon="7.812138">
        <ele>476.421462</ele>
        <time>2021-11-21T11:37:04.945Z</time>
      </trkpt>
      <trkpt lat="47.420870" lon="7.812170">
        <ele>476.633375</ele>
        <time>2021-11-21T11:37:09.655Z</time>
      </trkpt>
      <trkpt lat="47.421065" lon="7.812200">
        <ele>477.028111</ele>
        <time>2021-11-21T11:37:17.641Z</time>
      </trkpt>
      <trkpt lat="47.421441" lon="7.812208">
        <ele>477.785231</ele>
        <time>2021-11-21T11:37:30.205Z</time>
      </trkpt>
      <trkpt lat="47.421893" lon="7.812157">
        <ele>478.697940</ele>
        <time>2021-11-21T11:37:38.286Z</time>
      </trkpt>
      <trkpt lat="47.422116" lon="7.812093">
        <ele>479.081389</ele>
        <time>2021-11-21T11:37:42.322Z</time>
      </trkpt>
      <trkpt lat="47.422397" lon="7.812011">
        <ele>477.884462</ele>
        <time>2021-11-21T11:37:46.121Z</time>
      </trkpt>
      <trkpt lat="47.422720" lon="7.811867">
        <ele>476.474624</ele>
        <time>2021-11-21T11:37:50.661Z</time>
      </trkpt>
      <trkpt lat="47.422978" lon="7.811734">
        <ele>475.332784</ele>
        <time>2021-11-21T11:37:54.356Z</time>
      </trkpt>
      <trkpt lat="47.423172" lon="7.811608">
        <ele>474.447267</ele>
        <time>2021-11-21T11:37:57.291Z</time>
      </trkpt>
      <trkpt lat="47.423767" lon="7.811175">
        <ele>471.675805</ele>
        <time>2021-11-21T11:38:06.322Z</time>
      </trkpt>
      <trkpt lat="47.423941" lon="7.811048">
        <ele>471.067595</ele>
        <time>2021-11-21T11:38:09.014Z</time>
      </trkpt>
      <trkpt lat="47.424697" lon="7.810643">
        <ele>468.615432</ele>
        <time>2021-11-21T11:38:20.980Z</time>
      </trkpt>
      <trkpt lat="47.424871" lon="7.810565">
        <ele>468.060957</ele>
        <time>2021-11-21T11:38:23.623Z</time>
      </trkpt>
      <trkpt lat="47.425184" lon="7.810445">
        <ele>467.074883</ele>
        <time>2021-11-21T11:38:29.081Z</time>
      </trkpt>
      <trkpt lat="47.426541" lon="7.810106">
        <ele>460.969482</ele>
        <time>2021-11-21T11:38:49.091Z</time>
      </trkpt>
      <trkpt lat="47.427284" lon="7.809847">
        <ele>457.191971</ele>
        <time>2021-11-21T11:38:58.879Z</time>
      </trkpt>
      <trkpt lat="47.427626" lon="7.809699">
        <ele>454.514022</ele>
        <time>2021-11-21T11:39:03.360Z</time>
      </trkpt>
      <trkpt lat="47.428078" lon="7.809508">
        <ele>450.981250</ele>
        <time>2021-11-21T11:39:09.238Z</time>
      </trkpt>
      <trkpt lat="47.428531" lon="7.809311">
        <ele>447.432766</ele>
        <time>2021-11-21T11:39:15.179Z</time>
      </trkpt>
      <trkpt lat="47.428816" lon="7.809184">
        <ele>445.195838</ele>
        <time>2021-11-21T11:39:18.932Z</time>
      </trkpt>
      <trkpt lat="47.429678" lon="7.808980">
        <ele>440.959110</ele>
        <time>2021-11-21T11:39:30.392Z</time>
      </trkpt>
      <trkpt lat="47.430471" lon="7.809009">
        <ele>437.624243</ele>
        <time>2021-11-21T11:39:42.018Z</time>
      </trkpt>
      <trkpt lat="47.430630" lon="7.809037">
        <ele>436.951065</ele>
        <time>2021-11-21T11:39:44.583Z</time>
      </trkpt>
      <trkpt lat="47.430797" lon="7.809083">
        <ele>436.287966</ele>
        <time>2021-11-21T11:39:47.181Z</time>
      </trkpt>
      <trkpt lat="47.431419" lon="7.809325">
        <ele>434.827195</ele>
        <time>2021-11-21T11:39:57.179Z</time>
      </trkpt>
      <trkpt lat="47.432022" lon="7.809706">
        <ele>433.337834</ele>
        <time>2021-11-21T11:40:07.279Z</time>
      </trkpt>
      <trkpt lat="47.432174" lon="7.809836">
        <ele>432.939004</ele>
        <time>2021-11-21T11:40:09.944Z</time>
      </trkpt>
      <trkpt lat="47.432538" lon="7.810123">
        <ele>432.022563</ele>
        <time>2021-11-21T11:40:16.381Z</time>
      </trkpt>
      <trkpt lat="47.432554" lon="7.810136">
        <ele>431.984355</ele>
        <time>2021-11-21T11:40:16.619Z</time>
      </trkpt>
      <trkpt lat="47.432928" lon="7.810342">
        <ele>431.149117</ele>
        <time>2021-11-21T11:40:22.897Z</time>
      </trkpt>
      <trkpt lat="47.433316" lon="7.810451">
        <ele>430.322612</ele>
        <time>2021-11-21T11:40:29.099Z</time>
      </trkpt>
      <trkpt lat="47.433643" lon="7.810504">
        <ele>429.634194</ele>
        <time>2021-11-21T11:40:34.140Z</time>
      </trkpt>
      <trkpt lat="47.434093" lon="7.810572">
        <ele>428.687565</ele>
        <time>2021-11-21T11:40:41.265Z</time>
      </trkpt>
      <trkpt lat="47.434221" lon="7.810592">
        <ele>428.430251</ele>
        <time>2021-11-21T11:40:43.374Z</time>
      </trkpt>
      <trkpt lat="47.434532" lon="7.810638">
        <ele>427.873778</ele>
        <time>2021-11-21T11:40:48.408Z</time>
      </trkpt>
      <trkpt lat="47.434890" lon="7.810694">
        <ele>427.232833</ele>
        <time>2021-11-21T11:40:54.216Z</time>
      </trkpt>
      <trkpt lat="47.435107" lon="7.810718">
        <ele>426.845404</ele>
        <time>2021-11-21T11:40:57.682Z</time>
      </trkpt>
      <trkpt lat="47.435676" lon="7.810622">
        <ele>425.825774</ele>
        <time>2021-11-21T11:41:07.071Z</time>
      </trkpt>
      <trkpt lat="47.436034" lon="7.810517">
        <ele>425.172481</ele>
        <time>2021-11-21T11:41:12.898Z</time>
      </trkpt>
      <trkpt lat="47.436286" lon="7.810439">
        <ele>424.700852</ele>
        <time>2021-11-21T11:41:16.894Z</time>
      </trkpt>
      <trkpt lat="47.436714" lon="7.810307">
        <ele>423.899952</ele>
        <time>2021-11-21T11:41:23.819Z</time>
      </trkpt>
      <trkpt lat="47.436754" lon="7.810295">
        <ele>423.825186</ele>
        <time>2021-11-21T11:41:24.440Z</time>
      </trkpt>
      <trkpt lat="47.436910" lon="7.810231">
        <ele>423.528622</ele>
        <time>2021-11-21T11:41:27.014Z</time>
      </trkpt>
      <trkpt lat="47.436971" lon="7.810198">
        <ele>423.409635</ele>
        <time>2021-11-21T11:41:28.026Z</time>
      </trkpt>
      <trkpt lat="47.437405" lon="7.809871">
        <ele>422.517332</ele>
        <time>2021-11-21T11:41:35.836Z</time>
      </trkpt>
      <trkpt lat="47.437530" lon="7.809761">
        <ele>422.250860</ele>
        <time>2021-11-21T11:41:38.170Z</time>
      </trkpt>
      <trkpt lat="47.437880" lon="7.809448">
        <ele>422.069928</ele>
        <time>2021-11-21T11:41:44.671Z</time>
      </trkpt>
      <trkpt lat="47.438351" lon="7.809132">
        <ele>422.198979</ele>
        <time>2021-11-21T11:41:53.660Z</time>
      </trkpt>
      <trkpt lat="47.438917" lon="7.808920">
        <ele>422.344662</ele>
        <time>2021-11-21T11:42:06.855Z</time>
      </trkpt>
      <trkpt lat="47.438992" lon="7.808901">
        <ele>422.363648</ele>
        <time>2021-11-21T11:42:09.166Z</time>
      </trkpt>
      <trkpt lat="47.439053" lon="7.808885">
        <ele>422.379105</ele>
        <time>2021-11-21T11:42:10.838Z</time>
      </trkpt>
      <trkpt lat="47.439160" lon="7.808856">
        <ele>422.406247</ele>
        <time>2021-11-21T11:42:13.388Z</time>
      </trkpt>
      <trkpt lat="47.439256" lon="7.808836">
        <ele>422.430436</ele>
        <time>2021-11-21T11:42:16.400Z</time>
      </trkpt>
      <trkpt lat="47.439561" lon="7.808777">
        <ele>423.173010</ele>
        <time>2021-11-21T11:42:25.539Z</time>
      </trkpt>
      <trkpt lat="47.439717" lon="7.808754">
        <ele>423.672120</ele>
        <time>2021-11-21T11:42:31.502Z</time>
      </trkpt>
      <trkpt lat="47.440417" lon="7.808777">
        <ele>425.901212</ele>
        <time>2021-11-21T11:42:56.637Z</time>
      </trkpt>
      <trkpt lat="47.442177" lon="7.809333">
        <ele>429.511446</ele>
        <time>2021-11-21T11:43:54.791Z</time>
      </trkpt>
      <trkpt lat="47.442683" lon="7.809428">
        <ele>430.138904</ele>
        <time>2021-11-21T11:44:03.771Z</time>
      </trkpt>
      <trkpt lat="47.442919" lon="7.809465">
        <ele>430.236198</ele>
        <time>2021-11-21T11:44:07.490Z</time>
      </trkpt>
      <trkpt lat="47.443441" lon="7.809553">
        <ele>427.847585</ele>
        <time>2021-11-21T11:44:15.891Z</time>
      </trkpt>
      <trkpt lat="47.443720" lon="7.809596">
        <ele>426.572258</ele>
        <time>2021-11-21T11:44:19.830Z</time>
      </trkpt>
      <trkpt lat="47.443991" lon="7.809623">
        <ele>425.337381</ele>
        <time>2021-11-21T11:44:23.390Z</time>
      </trkpt>
      <trkpt lat="47.444386" lon="7.809626">
        <ele>423.541517</ele>
        <time>2021-11-21T11:44:28.506Z</time>
      </trkpt>
      <trkpt lat="47.445054" lon="7.809404">
        <ele>419.769217</ele>
        <time>2021-11-21T11:44:37.281Z</time>
      </trkpt>
      <trkpt lat="47.445120" lon="7.809369">
        <ele>419.332541</ele>
        <time>2021-11-21T11:44:38.185Z</time>
      </trkpt>
      <trkpt lat="47.445298" lon="7.809256">
        <ele>418.126126</ele>
        <time>2021-11-21T11:44:39.957Z</time>
      </trkpt>
      <trkpt lat="47.445880" lon="7.808843">
        <ele>414.105703</ele>
        <time>2021-11-21T11:44:45.972Z</time>
      </trkpt>
      <trkpt lat="47.446066" lon="7.808703">
        <ele>412.805875</ele>
        <time>2021-11-21T11:44:47.857Z</time>
      </trkpt>
      <trkpt lat="47.446096" lon="7.808680">
        <ele>412.595418</ele>
        <time>2021-11-21T11:44:48.191Z</time>
      </trkpt>
      <trkpt lat="47.446142" lon="7.808642">
        <ele>412.267259</ele>
        <time>2021-11-21T11:44:48.672Z</time>
      </trkpt>
      <trkpt lat="47.446375" lon="7.808453">
        <ele>410.720078</ele>
        <time>2021-11-21T11:44:51.057Z</time>
      </trkpt>
      <trkpt lat="47.446473" lon="7.808376">
        <ele>410.216299</ele>
        <time>2021-11-21T11:44:52.052Z</time>
      </trkpt>
      <trkpt lat="47.446662" lon="7.808234">
        <ele>409.253928</ele>
        <time>2021-11-21T11:44:53.959Z</time>
      </trkpt>
      <trkpt lat="47.447314" lon="7.807756">
        <ele>405.950344</ele>
        <time>2021-11-21T11:45:00.848Z</time>
      </trkpt>
      <trkpt lat="47.447388" lon="7.807704">
        <ele>405.578416</ele>
        <time>2021-11-21T11:45:01.609Z</time>
      </trkpt>
      <trkpt lat="47.447457" lon="7.807654">
        <ele>405.229600</ele>
        <time>2021-11-21T11:45:02.457Z</time>
      </trkpt>
      <trkpt lat="47.447633" lon="7.807562">
        <ele>404.382190</ele>
        <time>2021-11-21T11:45:04.503Z</time>
      </trkpt>
      <trkpt lat="47.447668" lon="7.807553">
        <ele>404.220922</ele>
        <time>2021-11-21T11:45:04.867Z</time>
      </trkpt>
      <trkpt lat="47.447689" lon="7.807548">
        <ele>404.124364</ele>
        <time>2021-11-21T11:45:05.056Z</time>
      </trkpt>
      <trkpt lat="47.447914" lon="7.807549">
        <ele>403.102963</ele>
        <time>2021-11-21T11:45:07.575Z</time>
      </trkpt>
      <trkpt lat="47.448245" lon="7.807740">
        <ele>402.192680</ele>
        <time>2021-11-21T11:45:11.301Z</time>
      </trkpt>
      <trkpt lat="47.448284" lon="7.807767">
        <ele>402.098552</ele>
        <time>2021-11-21T11:45:11.715Z</time>
      </trkpt>
      <trkpt lat="47.448442" lon="7.807881">
        <ele>401.714268</ele>
        <time>2021-11-21T11:45:13.524Z</time>
      </trkpt>
      <trkpt lat="47.448807" lon="7.808072">
        <ele>400.867949</ele>
        <time>2021-11-21T11:45:17.654Z</time>
      </trkpt>
      <trkpt lat="47.448903" lon="7.808078">
        <ele>400.657919</ele>
        <time>2021-11-21T11:45:18.801Z</time>
      </trkpt>
      <trkpt lat="47.449015" lon="7.808053">
        <ele>400.410330</ele>
        <time>2021-11-21T11:45:19.986Z</time>
      </trkpt>
      <trkpt lat="47.449267" lon="7.807971">
        <ele>399.846316</ele>
        <time>2021-11-21T11:45:22.842Z</time>
      </trkpt>
      <trkpt lat="47.449353" lon="7.807942">
        <ele>399.653507</ele>
        <time>2021-11-21T11:45:23.756Z</time>
      </trkpt>
      <trkpt lat="47.449829" lon="7.807782">
        <ele>398.686836</ele>
        <time>2021-11-21T11:45:29.410Z</time>
      </trkpt>
      <trkpt lat="47.449896" lon="7.807771">
        <ele>398.584675</ele>
        <time>2021-11-21T11:45:30.198Z</time>
      </trkpt>
      <trkpt lat="47.450005" lon="7.807761">
        <ele>398.419170</ele>
        <time>2021-11-21T11:45:31.557Z</time>
      </trkpt>
      <trkpt lat="47.451415" lon="7.807774">
        <ele>396.282299</ele>
        <time>2021-11-21T11:45:47.771Z</time>
      </trkpt>
      <trkpt lat="47.451791" lon="7.807759">
        <ele>395.675413</ele>
        <time>2021-11-21T11:45:52.103Z</time>
      </trkpt>
      <trkpt lat="47.451923" lon="7.807754">
        <ele>395.459795</ele>
        <time>2021-11-21T11:45:53.625Z</time>
      </trkpt>
      <trkpt lat="47.452253" lon="7.807773">
        <ele>394.920519</ele>
        <time>2021-11-21T11:45:57.416Z</time>
      </trkpt>
      <trkpt lat="47.452456" lon="7.807753">
        <ele>394.588299</ele>
        <time>2021-11-21T11:45:59.726Z</time>
      </trkpt>
      <trkpt lat="47.452556" lon="7.807739">
        <ele>394.424276</ele>
        <time>2021-11-21T11:46:00.794Z</time>
      </trkpt>
      <trkpt lat="47.452649" lon="7.807724">
        <ele>394.271513</ele>
        <time>2021-11-21T11:46:01.857Z</time>
      </trkpt>
      <trkpt lat="47.452830" lon="7.807686">
        <ele>393.972988</ele>
        <time>2021-11-21T11:46:03.923Z</time>
      </trkpt>
      <trkpt lat="47.453183" lon="7.807608">
        <ele>393.390165</ele>
        <time>2021-11-21T11:46:07.807Z</time>
      </trkpt>
      <trkpt lat="47.453371" lon="7.807571">
        <ele>393.100690</ele>
        <time>2021-11-21T11:46:09.924Z</time>
      </trkpt>
      <trkpt lat="47.453677" lon="7.807487">
        <ele>392.652821</ele>
        <time>2021-11-21T11:46:13.651Z</time>
      </trkpt>
      <trkpt lat="47.453815" lon="7.807438">
        <ele>392.448590</ele>
        <time>2021-11-21T11:46:15.404Z</time>
      </trkpt>
      <trkpt lat="47.453901" lon="7.807402">
        <ele>392.319970</ele>
        <time>2021-11-21T11:46:16.504Z</time>
      </trkpt>
      <trkpt lat="47.453985" lon="7.807368">
        <ele>392.194645</ele>
        <time>2021-11-21T11:46:17.495Z</time>
      </trkpt>
      <trkpt lat="47.454310" lon="7.807191">
        <ele>391.696252</ele>
        <time>2021-11-21T11:46:21.747Z</time>
      </trkpt>
      <trkpt lat="47.454428" lon="7.807128">
        <ele>391.515718</ele>
        <time>2021-11-21T11:46:23.224Z</time>
      </trkpt>
      <trkpt lat="47.454559" lon="7.807067">
        <ele>391.318080</ele>
        <time>2021-11-21T11:46:25.015Z</time>
      </trkpt>
      <trkpt lat="47.455379" lon="7.806783">
        <ele>389.884679</ele>
        <time>2021-11-21T11:46:34.372Z</time>
      </trkpt>
      <trkpt lat="47.456100" lon="7.806718">
        <ele>388.431413</ele>
        <time>2021-11-21T11:46:42.267Z</time>
      </trkpt>
      <trkpt lat="47.456331" lon="7.806727">
        <ele>387.966505</ele>
        <time>2021-11-21T11:46:44.788Z</time>
      </trkpt>
      <trkpt lat="47.456502" lon="7.806745">
        <ele>387.621601</ele>
        <time>2021-11-21T11:46:46.607Z</time>
      </trkpt>
      <trkpt lat="47.456988" lon="7.806840">
        <ele>386.638788</ele>
        <time>2021-11-21T11:46:51.970Z</time>
      </trkpt>
      <trkpt lat="47.457291" lon="7.806917">
        <ele>386.025505</ele>
        <time>2021-11-21T11:46:55.261Z</time>
      </trkpt>
      <trkpt lat="47.457326" lon="7.806926">
        <ele>385.954639</ele>
        <time>2021-11-21T11:46:55.663Z</time>
      </trkpt>
      <trkpt lat="47.457732" lon="7.807037">
        <ele>385.131028</ele>
        <time>2021-11-21T11:47:00.103Z</time>
      </trkpt>
      <trkpt lat="47.458181" lon="7.807191">
        <ele>384.211593</ele>
        <time>2021-11-21T11:47:05.164Z</time>
      </trkpt>
      <trkpt lat="47.458237" lon="7.807215">
        <ele>384.095289</ele>
        <time>2021-11-21T11:47:05.796Z</time>
      </trkpt>
      <trkpt lat="47.458342" lon="7.807254">
        <ele>383.879331</ele>
        <time>2021-11-21T11:47:07.000Z</time>
      </trkpt>
      <trkpt lat="47.458678" lon="7.807409">
        <ele>383.258984</ele>
        <time>2021-11-21T11:47:10.994Z</time>
      </trkpt>
      <trkpt lat="47.459007" lon="7.807577">
        <ele>382.768405</ele>
        <time>2021-11-21T11:47:15.098Z</time>
      </trkpt>
      <trkpt lat="47.459282" lon="7.807707">
        <ele>382.361481</ele>
        <time>2021-11-21T11:47:18.649Z</time>
      </trkpt>
      <trkpt lat="47.459423" lon="7.807775">
        <ele>382.152446</ele>
        <time>2021-11-21T11:47:20.417Z</time>
      </trkpt>
      <trkpt lat="47.459865" lon="7.807952">
        <ele>381.507024</ele>
        <time>2021-11-21T11:47:25.670Z</time>
      </trkpt>
      <trkpt lat="47.460078" lon="7.808023">
        <ele>381.199274</ele>
        <time>2021-11-21T11:47:28.235Z</time>
      </trkpt>
      <trkpt lat="47.460298" lon="7.808103">
        <ele>380.877843</ele>
        <time>2021-11-21T11:47:30.845Z</time>
      </trkpt>
      <trkpt lat="47.460439" lon="7.808155">
        <ele>380.662407</ele>
        <time>2021-11-21T11:47:32.525Z</time>
      </trkpt>
      <trkpt lat="47.460827" lon="7.808276">
        <ele>380.074541</ele>
        <time>2021-11-21T11:47:37.099Z</time>
      </trkpt>
      <trkpt lat="47.460870" lon="7.808289">
        <ele>380.009474</ele>
        <time>2021-11-21T11:47:37.570Z</time>
      </trkpt>
      <trkpt lat="47.460938" lon="7.808308">
        <ele>379.906880</ele>
        <time>2021-11-21T11:47:38.414Z</time>
      </trkpt>
      <trkpt lat="47.461296" lon="7.808372">
        <ele>379.372273</ele>
        <time>2021-11-21T11:47:42.625Z</time>
      </trkpt>
      <trkpt lat="47.461822" lon="7.808433">
        <ele>378.590073</ele>
        <time>2021-11-21T11:47:48.615Z</time>
      </trkpt>
      <trkpt lat="47.461997" lon="7.808450">
        <ele>378.330072</ele>
        <time>2021-11-21T11:47:50.584Z</time>
      </trkpt>
      <trkpt lat="47.462052" lon="7.808470">
        <ele>378.248117</ele>
        <time>2021-11-21T11:47:51.278Z</time>
      </trkpt>
      <trkpt lat="47.462087" lon="7.808494">
        <ele>378.205208</ele>
        <time>2021-11-21T11:47:51.758Z</time>
      </trkpt>
      <trkpt lat="47.462185" lon="7.808547">
        <ele>378.089147</ele>
        <time>2021-11-21T11:47:52.891Z</time>
      </trkpt>
      <trkpt lat="47.462879" lon="7.809121">
        <ele>377.204740</ele>
        <time>2021-11-21T11:48:02.400Z</time>
      </trkpt>
      <trkpt lat="47.462918" lon="7.809150">
        <ele>377.156188</ele>
        <time>2021-11-21T11:48:02.863Z</time>
      </trkpt>
      <trkpt lat="47.463007" lon="7.809215">
        <ele>377.045786</ele>
        <time>2021-11-21T11:48:04.156Z</time>
      </trkpt>
      <trkpt lat="47.463122" lon="7.809317">
        <ele>376.896640</ele>
        <time>2021-11-21T11:48:06.379Z</time>
      </trkpt>
      <trkpt lat="47.463347" lon="7.809533">
        <ele>376.598288</ele>
        <time>2021-11-21T11:48:11.151Z</time>
      </trkpt>
      <trkpt lat="47.463403" lon="7.809601">
        <ele>376.517700</ele>
        <time>2021-11-21T11:48:12.313Z</time>
      </trkpt>
      <trkpt lat="47.463603" lon="7.809961">
        <ele>376.236987</ele>
        <time>2021-11-21T11:48:18.070Z</time>
      </trkpt>
      <trkpt lat="47.463616" lon="7.809990">
        <ele>376.231956</ele>
        <time>2021-11-21T11:48:18.480Z</time>
      </trkpt>
      <trkpt lat="47.463652" lon="7.810060">
        <ele>376.219242</ele>
        <time>2021-11-21T11:48:19.600Z</time>
      </trkpt>
      <trkpt lat="47.463689" lon="7.810134">
        <ele>376.205936</ele>
        <time>2021-11-21T11:48:21.041Z</time>
      </trkpt>
      <trkpt lat="47.463753" lon="7.810251">
        <ele>376.184180</ele>
        <time>2021-11-21T11:48:22.750Z</time>
      </trkpt>
      <trkpt lat="47.463831" lon="7.810395">
        <ele>376.157505</ele>
        <time>2021-11-21T11:48:25.074Z</time>
      </trkpt>
      <trkpt lat="47.463886" lon="7.810514">
        <ele>376.136666</ele>
        <time>2021-11-21T11:48:26.917Z</time>
      </trkpt>
      <trkpt lat="47.463897" lon="7.810575">
        <ele>376.127540</ele>
        <time>2021-11-21T11:48:27.930Z</time>
      </trkpt>
      <trkpt lat="47.464200" lon="7.810621">
        <ele>376.062409</ele>
        <time>2021-11-21T11:48:31.812Z</time>
      </trkpt>
      <trkpt lat="47.464340" lon="7.810632">
        <ele>376.032430</ele>
        <time>2021-11-21T11:48:34.129Z</time>
      </trkpt>
      <trkpt lat="47.464364" lon="7.810630">
        <ele>376.027290</ele>
        <time>2021-11-21T11:48:34.389Z</time>
      </trkpt>
      <trkpt lat="47.464364" lon="7.810630">
        <ele>376.027290</ele>
        <time>2021-11-21T11:48:34.391Z</time>
      </trkpt>
      <trkpt lat="47.464364" lon="7.810630">
        <ele>376.027290</ele>
        <time>2021-11-21T11:48:34.423Z</time>
      </trkpt>
      <trkpt lat="47.464370" lon="7.810752">
        <ele>376.009607</ele>
        <time>2021-11-21T11:48:36.229Z</time>
      </trkpt>
      <trkpt lat="47.464325" lon="7.810936">
        <ele>375.981321</ele>
        <time>2021-11-21T11:48:38.794Z</time>
      </trkpt>
      <trkpt lat="47.464316" lon="7.810976">
        <ele>375.975227</ele>
        <time>2021-11-21T11:48:39.573Z</time>
      </trkpt>
      <trkpt lat="47.464174" lon="7.811536">
        <ele>375.888766</ele>
        <time>2021-11-21T11:48:48.002Z</time>
      </trkpt>
      <trkpt lat="47.463958" lon="7.812269">
        <ele>376.022144</ele>
        <time>2021-11-21T11:48:59.292Z</time>
      </trkpt>
      <trkpt lat="47.463905" lon="7.812397">
        <ele>376.056843</ele>
        <time>2021-11-21T11:49:01.414Z</time>
      </trkpt>
      <trkpt lat="47.463671" lon="7.812852">
        <ele>376.189004</ele>
        <time>2021-11-21T11:49:10.191Z</time>
      </trkpt>
      <trkpt lat="47.463585" lon="7.813014">
        <ele>376.236621</ele>
        <time>2021-11-21T11:49:13.373Z</time>
      </trkpt>
      <trkpt lat="47.463516" lon="7.813197">
        <ele>376.285061</ele>
        <time>2021-11-21T11:49:16.525Z</time>
      </trkpt>
      <trkpt lat="47.463323" lon="7.813790">
        <ele>376.437209</ele>
        <time>2021-11-21T11:49:25.925Z</time>
      </trkpt>
      <trkpt lat="47.463209" lon="7.814244">
        <ele>376.506989</ele>
        <time>2021-11-21T11:49:32.822Z</time>
      </trkpt>
      <trkpt lat="47.462902" lon="7.815377">
        <ele>376.606507</ele>
        <time>2021-11-21T11:49:50.026Z</time>
      </trkpt>
      <trkpt lat="47.462863" lon="7.815440">
        <ele>376.613472</ele>
        <time>2021-11-21T11:49:51.398Z</time>
      </trkpt>
      <trkpt lat="47.462867" lon="7.815468">
        <ele>376.615805</ele>
        <time>2021-11-21T11:49:51.660Z</time>
      </trkpt>
      <trkpt lat="47.462865" lon="7.815524">
        <ele>376.620377</ele>
        <time>2021-11-21T11:49:52.269Z</time>
      </trkpt>
      <trkpt lat="47.462859" lon="7.815548">
        <ele>376.622464</ele>
        <time>2021-11-21T11:49:52.504Z</time>
      </trkpt>
      <trkpt lat="47.462785" lon="7.815763">
        <ele>376.642134</ele>
        <time>2021-11-21T11:49:54.803Z</time>
      </trkpt>
      <trkpt lat="47.462434" lon="7.816598">
        <ele>376.762762</ele>
        <time>2021-11-21T11:50:04.777Z</time>
      </trkpt>
      <trkpt lat="47.462262" lon="7.817447">
        <ele>376.971774</ele>
        <time>2021-11-21T11:50:13.765Z</time>
      </trkpt>
      <trkpt lat="47.462122" lon="7.818441">
        <ele>377.211219</ele>
        <time>2021-11-21T11:50:25.085Z</time>
      </trkpt>
      <trkpt lat="47.462012" lon="7.818948">
        <ele>377.351369</ele>
        <time>2021-11-21T11:50:31.554Z</time>
      </trkpt>
      <trkpt lat="47.461960" lon="7.819120">
        <ele>377.472255</ele>
        <time>2021-11-21T11:50:33.849Z</time>
      </trkpt>
      <trkpt lat="47.461962" lon="7.819234">
        <ele>377.545422</ele>
        <time>2021-11-21T11:50:35.694Z</time>
      </trkpt>
      <trkpt lat="47.461852" lon="7.819816">
        <ele>377.933151</ele>
        <time>2021-11-21T11:50:45.324Z</time>
      </trkpt>
      <trkpt lat="47.461829" lon="7.819984">
        <ele>378.043128</ele>
        <time>2021-11-21T11:50:48.302Z</time>
      </trkpt>
      <trkpt lat="47.461826" lon="7.820279">
        <ele>378.232422</ele>
        <time>2021-11-21T11:50:53.094Z</time>
      </trkpt>
      <trkpt lat="47.461730" lon="7.820282">
        <ele>378.323547</ele>
        <time>2021-11-21T11:50:54.906Z</time>
      </trkpt>
      <trkpt lat="47.461748" lon="7.820387">
        <ele>378.393047</ele>
        <time>2021-11-21T11:50:56.453Z</time>
      </trkpt>
      <trkpt lat="47.461780" lon="7.820577">
        <ele>378.518677</ele>
        <time>2021-11-21T11:50:58.898Z</time>
      </trkpt>
      <trkpt lat="47.461966" lon="7.821681">
        <ele>379.172840</ele>
        <time>2021-11-21T11:51:13.439Z</time>
      </trkpt>
      <trkpt lat="47.461985" lon="7.821867">
        <ele>379.250653</ele>
        <time>2021-11-21T11:51:15.830Z</time>
      </trkpt>
      <trkpt lat="47.461990" lon="7.821930">
        <ele>379.276893</ele>
        <time>2021-11-21T11:51:16.808Z</time>
      </trkpt>
      <trkpt lat="47.462122" lon="7.824085">
        <ele>380.162356</ele>
        <time>2021-11-21T11:51:41.476Z</time>
      </trkpt>
      <trkpt lat="47.462104" lon="7.824385">
        <ele>380.253888</ele>
        <time>2021-11-21T11:51:44.622Z</time>
      </trkpt>
      <trkpt lat="47.462075" lon="7.824560">
        <ele>380.308647</ele>
        <time>2021-11-21T11:51:46.510Z</time>
      </trkpt>
      <trkpt lat="47.462041" lon="7.824554">
        <ele>380.324039</ele>
        <time>2021-11-21T11:51:47.098Z</time>
      </trkpt>
      <trkpt lat="47.461981" lon="7.824592">
        <ele>380.353379</ele>
        <time>2021-11-21T11:51:48.082Z</time>
      </trkpt>
      <trkpt lat="47.461961" lon="7.824632">
        <ele>380.368498</ele>
        <time>2021-11-21T11:51:48.717Z</time>
      </trkpt>
      <trkpt lat="47.461951" lon="7.824677">
        <ele>380.382894</ele>
        <time>2021-11-21T11:51:49.104Z</time>
      </trkpt>
      <trkpt lat="47.461983" lon="7.824803">
        <ele>380.423800</ele>
        <time>2021-11-21T11:51:50.713Z</time>
      </trkpt>
      <trkpt lat="47.462009" lon="7.824828">
        <ele>380.437740</ele>
        <time>2021-11-21T11:51:51.148Z</time>
      </trkpt>
      <trkpt lat="47.462048" lon="7.824839">
        <ele>380.455587</ele>
        <time>2021-11-21T11:51:51.728Z</time>
      </trkpt>
      <trkpt lat="47.462087" lon="7.824826">
        <ele>380.473558</ele>
        <time>2021-11-21T11:51:52.422Z</time>
      </trkpt>
      <trkpt lat="47.462119" lon="7.824792">
        <ele>380.491270</ele>
        <time>2021-11-21T11:51:53.064Z</time>
      </trkpt>
      <trkpt lat="47.462172" lon="7.824876">
        <ele>380.526188</ele>
        <time>2021-11-21T11:51:54.361Z</time>
      </trkpt>
      <trkpt lat="47.462220" lon="7.824965">
        <ele>380.560788</ele>
        <time>2021-11-21T11:51:55.515Z</time>
      </trkpt>
      <trkpt lat="47.462266" lon="7.825058">
        <ele>380.595809</ele>
        <time>2021-11-21T11:51:56.904Z</time>
      </trkpt>
      <trkpt lat="47.462323" lon="7.825177">
        <ele>380.640131</ele>
        <time>2021-11-21T11:51:58.557Z</time>
      </trkpt>
      <trkpt lat="47.462301" lon="7.825212">
        <ele>380.654655</ele>
        <time>2021-11-21T11:51:59.091Z</time>
      </trkpt>
      <trkpt lat="47.462295" lon="7.825350">
        <ele>380.696681</ele>
        <time>2021-11-21T11:52:00.708Z</time>
      </trkpt>
      <trkpt lat="47.462312" lon="7.825390">
        <ele>380.711040</ele>
        <time>2021-11-21T11:52:01.133Z</time>
      </trkpt>
      <trkpt lat="47.462244" lon="7.825463">
        <ele>380.748810</ele>
        <time>2021-11-21T11:52:02.754Z</time>
      </trkpt>
      <trkpt lat="47.462057" lon="7.825761">
        <ele>380.872375</ele>
        <time>2021-11-21T11:52:07.267Z</time>
      </trkpt>
      <trkpt lat="47.461963" lon="7.826038">
        <ele>381.009341</ele>
        <time>2021-11-21T11:52:10.982Z</time>
      </trkpt>
      <trkpt lat="47.461900" lon="7.826316">
        <ele>381.269257</ele>
        <time>2021-11-21T11:52:14.366Z</time>
      </trkpt>
      <trkpt lat="47.461850" lon="7.826816">
        <ele>381.717318</ele>
        <time>2021-11-21T11:52:19.932Z</time>
      </trkpt>
      <trkpt lat="47.461804" lon="7.827389">
        <ele>382.228838</ele>
        <time>2021-11-21T11:52:28.093Z</time>
      </trkpt>
      <trkpt lat="47.461552" lon="7.829232">
        <ele>384.012776</ele>
        <time>2021-11-21T11:52:56.219Z</time>
      </trkpt>
      <trkpt lat="47.461536" lon="7.829345">
        <ele>384.135326</ele>
        <time>2021-11-21T11:52:58.107Z</time>
      </trkpt>
      <trkpt lat="47.461536" lon="7.829347">
        <ele>384.137449</ele>
        <time>2021-11-21T11:52:58.269Z</time>
      </trkpt>
      <trkpt lat="47.461525" lon="7.829524">
        <ele>384.326124</ele>
        <time>2021-11-21T11:53:00.877Z</time>
      </trkpt>
      <trkpt lat="47.461539" lon="7.829782">
        <ele>384.600868</ele>
        <time>2021-11-21T11:53:04.174Z</time>
      </trkpt>
      <trkpt lat="47.461548" lon="7.829918">
        <ele>384.745920</ele>
        <time>2021-11-21T11:53:06.575Z</time>
      </trkpt>
      <trkpt lat="47.461585" lon="7.830158">
        <ele>385.007216</ele>
        <time>2021-11-21T11:53:09.878Z</time>
      </trkpt>
      <trkpt lat="47.461787" lon="7.831158">
        <ele>386.115064</ele>
        <time>2021-11-21T11:53:24.121Z</time>
      </trkpt>
      <trkpt lat="47.461918" lon="7.831668">
        <ele>386.478085</ele>
        <time>2021-11-21T11:53:31.460Z</time>
      </trkpt>
      <trkpt lat="47.462048" lon="7.832204">
        <ele>386.852415</ele>
        <time>2021-11-21T11:53:38.497Z</time>
      </trkpt>
      <trkpt lat="47.462080" lon="7.832335">
        <ele>386.943978</ele>
        <time>2021-11-21T11:53:40.126Z</time>
      </trkpt>
      <trkpt lat="47.462179" lon="7.832744">
        <ele>387.229548</ele>
        <time>2021-11-21T11:53:45.326Z</time>
      </trkpt>
      <trkpt lat="47.462217" lon="7.832953">
        <ele>387.371817</ele>
        <time>2021-11-21T11:53:48.170Z</time>
      </trkpt>
      <trkpt lat="47.462285" lon="7.833721">
        <ele>387.880351</ele>
        <time>2021-11-21T11:53:57.677Z</time>
      </trkpt>
      <trkpt lat="47.462296" lon="7.833933">
        <ele>388.004399</ele>
        <time>2021-11-21T11:54:00.625Z</time>
      </trkpt>
      <trkpt lat="47.462317" lon="7.834216">
        <ele>388.170497</ele>
        <time>2021-11-21T11:54:04.135Z</time>
      </trkpt>
      <trkpt lat="47.462357" lon="7.834782">
        <ele>388.502509</ele>
        <time>2021-11-21T11:54:10.897Z</time>
      </trkpt>
      <trkpt lat="47.462375" lon="7.834910">
        <ele>388.578784</ele>
        <time>2021-11-21T11:54:12.681Z</time>
      </trkpt>
      <trkpt lat="47.462388" lon="7.834991">
        <ele>388.627354</ele>
        <time>2021-11-21T11:54:13.711Z</time>
      </trkpt>
      <trkpt lat="47.462586" lon="7.835900">
        <ele>389.184522</ele>
        <time>2021-11-21T11:54:24.859Z</time>
      </trkpt>
      <trkpt lat="47.462666" lon="7.836201">
        <ele>389.373211</ele>
        <time>2021-11-21T11:54:28.970Z</time>
      </trkpt>
      <trkpt lat="47.462700" lon="7.836337">
        <ele>389.470027</ele>
        <time>2021-11-21T11:54:30.843Z</time>
      </trkpt>
      <trkpt lat="47.462730" lon="7.836472">
        <ele>389.586424</ele>
        <time>2021-11-21T11:54:32.565Z</time>
      </trkpt>
      <trkpt lat="47.462748" lon="7.836556">
        <ele>389.658600</ele>
        <time>2021-11-21T11:54:33.453Z</time>
      </trkpt>
      <trkpt lat="47.462851" lon="7.837404">
        <ele>390.364300</ele>
        <time>2021-11-21T11:54:46.065Z</time>
      </trkpt>
      <trkpt lat="47.462856" lon="7.837506">
        <ele>390.448065</ele>
        <time>2021-11-21T11:54:47.956Z</time>
      </trkpt>
      <trkpt lat="47.462865" lon="7.837711">
        <ele>390.616330</ele>
        <time>2021-11-21T11:54:50.365Z</time>
      </trkpt>
      <trkpt lat="47.462869" lon="7.837866">
        <ele>390.743379</ele>
        <time>2021-11-21T11:54:52.321Z</time>
      </trkpt>
      <trkpt lat="47.462871" lon="7.837954">
        <ele>390.815499</ele>
        <time>2021-11-21T11:54:53.850Z</time>
      </trkpt>
      <trkpt lat="47.462873" lon="7.838016">
        <ele>390.866340</ele>
        <time>2021-11-21T11:54:54.892Z</time>
      </trkpt>
      <trkpt lat="47.462883" lon="7.838488">
        <ele>391.253134</ele>
        <time>2021-11-21T11:55:01.026Z</time>
      </trkpt>
      <trkpt lat="47.462936" lon="7.838934">
        <ele>391.611589</ele>
        <time>2021-11-21T11:55:06.368Z</time>
      </trkpt>
      <trkpt lat="47.462967" lon="7.839047">
        <ele>391.639879</ele>
        <time>2021-11-21T11:55:08.066Z</time>
      </trkpt>
      <trkpt lat="47.462982" lon="7.839106">
        <ele>391.654502</ele>
        <time>2021-11-21T11:55:09.004Z</time>
      </trkpt>
      <trkpt lat="47.463043" lon="7.839292">
        <ele>391.702461</ele>
        <time>2021-11-21T11:55:10.821Z</time>
      </trkpt>
      <trkpt lat="47.463133" lon="7.839561">
        <ele>391.772089</ele>
        <time>2021-11-21T11:55:14.727Z</time>
      </trkpt>
      <trkpt lat="47.463287" lon="7.840028">
        <ele>391.892627</ele>
        <time>2021-11-21T11:55:20.762Z</time>
      </trkpt>
      <trkpt lat="47.463588" lon="7.840904">
        <ele>392.120588</ele>
        <time>2021-11-21T11:55:32.056Z</time>
      </trkpt>
      <trkpt lat="47.463616" lon="7.840992">
        <ele>392.143150</ele>
        <time>2021-11-21T11:55:33.135Z</time>
      </trkpt>
      <trkpt lat="47.463685" lon="7.841203">
        <ele>392.197524</ele>
        <time>2021-11-21T11:55:35.078Z</time>
      </trkpt>
      <trkpt lat="47.463874" lon="7.841863">
        <ele>392.058970</ele>
        <time>2021-11-21T11:55:41.366Z</time>
      </trkpt>
      <trkpt lat="47.463922" lon="7.842123">
        <ele>391.985302</ele>
        <time>2021-11-21T11:55:43.350Z</time>
      </trkpt>
      <trkpt lat="47.463971" lon="7.842355">
        <ele>391.918867</ele>
        <time>2021-11-21T11:55:45.913Z</time>
      </trkpt>
      <trkpt lat="47.464053" lon="7.842690">
        <ele>391.821485</ele>
        <time>2021-11-21T11:55:48.714Z</time>
      </trkpt>
      <trkpt lat="47.464075" lon="7.842774">
        <ele>391.796862</ele>
        <time>2021-11-21T11:55:49.912Z</time>
      </trkpt>
      <trkpt lat="47.464165" lon="7.843130">
        <ele>391.692976</ele>
        <time>2021-11-21T11:55:53.037Z</time>
      </trkpt>
      <trkpt lat="47.464176" lon="7.843178">
        <ele>391.679123</ele>
        <time>2021-11-21T11:55:53.522Z</time>
      </trkpt>
      <trkpt lat="47.464234" lon="7.843434">
        <ele>391.605326</ele>
        <time>2021-11-21T11:55:56.586Z</time>
      </trkpt>
      <trkpt lat="47.464354" lon="7.843960">
        <ele>391.570128</ele>
        <time>2021-11-21T11:56:02.602Z</time>
      </trkpt>
      <trkpt lat="47.464386" lon="7.844088">
        <ele>391.633751</ele>
        <time>2021-11-21T11:56:03.945Z</time>
      </trkpt>
      <trkpt lat="47.464433" lon="7.844273">
        <ele>391.725886</ele>
        <time>2021-11-21T11:56:06.429Z</time>
      </trkpt>
      <trkpt lat="47.464585" lon="7.844988">
        <ele>392.075308</ele>
        <time>2021-11-21T11:56:14.942Z</time>
      </trkpt>
      <trkpt lat="47.464737" lon="7.846119">
        <ele>392.612893</ele>
        <time>2021-11-21T11:56:29.051Z</time>
      </trkpt>
      <trkpt lat="47.464771" lon="7.847028">
        <ele>393.282063</ele>
        <time>2021-11-21T11:56:41.161Z</time>
      </trkpt>
      <trkpt lat="47.464784" lon="7.847333">
        <ele>393.540645</ele>
        <time>2021-11-21T11:56:45.141Z</time>
      </trkpt>
      <trkpt lat="47.464820" lon="7.847644">
        <ele>393.807621</ele>
        <time>2021-11-21T11:56:49.412Z</time>
      </trkpt>
      <trkpt lat="47.464850" lon="7.847870">
        <ele>394.002497</ele>
        <time>2021-11-21T11:56:52.328Z</time>
      </trkpt>
      <trkpt lat="47.464909" lon="7.848219">
        <ele>394.306889</ele>
        <time>2021-11-21T11:56:57.395Z</time>
      </trkpt>
      <trkpt lat="47.464952" lon="7.848443">
        <ele>394.503914</ele>
        <time>2021-11-21T11:57:00.583Z</time>
      </trkpt>
      <trkpt lat="47.465152" lon="7.849351">
        <ele>395.311079</ele>
        <time>2021-11-21T11:57:13.842Z</time>
      </trkpt>
      <trkpt lat="47.465348" lon="7.849875">
        <ele>395.816431</ele>
        <time>2021-11-21T11:57:22.067Z</time>
      </trkpt>
      <trkpt lat="47.465558" lon="7.850405">
        <ele>396.334832</ele>
        <time>2021-11-21T11:57:30.368Z</time>
      </trkpt>
      <trkpt lat="47.465620" lon="7.850585">
        <ele>396.505304</ele>
        <time>2021-11-21T11:57:32.970Z</time>
      </trkpt>
      <trkpt lat="47.465714" lon="7.850917">
        <ele>396.809042</ele>
        <time>2021-11-21T11:57:37.611Z</time>
      </trkpt>
      <trkpt lat="47.465829" lon="7.851383">
        <ele>397.227657</ele>
        <time>2021-11-21T11:57:43.972Z</time>
      </trkpt>
      <trkpt lat="47.465804" lon="7.851399">
        <ele>397.261639</ele>
        <time>2021-11-21T11:57:44.528Z</time>
      </trkpt>
      <trkpt lat="47.465765" lon="7.851501">
        <ele>397.360454</ele>
        <time>2021-11-21T11:57:46.008Z</time>
      </trkpt>
      <trkpt lat="47.465770" lon="7.851542">
        <ele>397.395586</ele>
        <time>2021-11-21T11:57:46.558Z</time>
      </trkpt>
      <trkpt lat="47.465781" lon="7.851575">
        <ele>397.426612</ele>
        <time>2021-11-21T11:57:47.039Z</time>
      </trkpt>
      <trkpt lat="47.465821" lon="7.851619">
        <ele>397.488790</ele>
        <time>2021-11-21T11:57:47.947Z</time>
      </trkpt>
      <trkpt lat="47.465846" lon="7.851625">
        <ele>397.520382</ele>
        <time>2021-11-21T11:57:48.427Z</time>
      </trkpt>
      <trkpt lat="47.465871" lon="7.851620">
        <ele>397.551849</ele>
        <time>2021-11-21T11:57:48.879Z</time>
      </trkpt>
      <trkpt lat="47.465906" lon="7.851776">
        <ele>397.690452</ele>
        <time>2021-11-21T11:57:51.104Z</time>
      </trkpt>
      <trkpt lat="47.466256" lon="7.853287">
        <ele>399.037319</ele>
        <time>2021-11-21T11:58:12.259Z</time>
      </trkpt>
      <trkpt lat="47.466331" lon="7.853936">
        <ele>399.628483</ele>
        <time>2021-11-21T11:58:21.785Z</time>
      </trkpt>
      <trkpt lat="47.466338" lon="7.854554">
        <ele>400.311712</ele>
        <time>2021-11-21T11:58:30.352Z</time>
      </trkpt>
      <trkpt lat="47.466332" lon="7.854775">
        <ele>400.556201</ele>
        <time>2021-11-21T11:58:33.529Z</time>
      </trkpt>
      <trkpt lat="47.466324" lon="7.855062">
        <ele>400.873719</ele>
        <time>2021-11-21T11:58:37.793Z</time>
      </trkpt>
      <trkpt lat="47.466298" lon="7.855895">
        <ele>401.795493</ele>
        <time>2021-11-21T11:58:49.972Z</time>
      </trkpt>
      <trkpt lat="47.466295" lon="7.856234">
        <ele>402.170253</ele>
        <time>2021-11-21T11:58:55.206Z</time>
      </trkpt>
      <trkpt lat="47.466298" lon="7.856354">
        <ele>402.302991</ele>
        <time>2021-11-21T11:58:56.883Z</time>
      </trkpt>
      <trkpt lat="47.466271" lon="7.856363">
        <ele>402.348247</ele>
        <time>2021-11-21T11:58:57.485Z</time>
      </trkpt>
      <trkpt lat="47.466237" lon="7.856421">
        <ele>402.429737</ele>
        <time>2021-11-21T11:58:58.521Z</time>
      </trkpt>
      <trkpt lat="47.466235" lon="7.856461">
        <ele>402.464255</ele>
        <time>2021-11-21T11:58:59.038Z</time>
      </trkpt>
      <trkpt lat="47.466243" lon="7.856497">
        <ele>402.496867</ele>
        <time>2021-11-21T11:58:59.681Z</time>
      </trkpt>
      <trkpt lat="47.466284" lon="7.856540">
        <ele>402.560849</ele>
        <time>2021-11-21T11:59:00.834Z</time>
      </trkpt>
      <trkpt lat="47.466310" lon="7.856541">
        <ele>402.593959</ele>
        <time>2021-11-21T11:59:01.376Z</time>
      </trkpt>
      <trkpt lat="47.466322" lon="7.856655">
        <ele>402.693249</ele>
        <time>2021-11-21T11:59:03.151Z</time>
      </trkpt>
      <trkpt lat="47.466344" lon="7.856945">
        <ele>402.944389</ele>
        <time>2021-11-21T11:59:06.926Z</time>
      </trkpt>
      <trkpt lat="47.466347" lon="7.856973">
        <ele>402.968786</ele>
        <time>2021-11-21T11:59:07.593Z</time>
      </trkpt>
      <trkpt lat="47.466518" lon="7.858022">
        <ele>403.897426</ele>
        <time>2021-11-21T11:59:22.197Z</time>
      </trkpt>
      <trkpt lat="47.466576" lon="7.858236">
        <ele>404.095843</ele>
        <time>2021-11-21T11:59:25.119Z</time>
      </trkpt>
      <trkpt lat="47.466673" lon="7.858620">
        <ele>404.448628</ele>
        <time>2021-11-21T11:59:31.753Z</time>
      </trkpt>
      <trkpt lat="47.466824" lon="7.859137">
        <ele>404.875022</ele>
        <time>2021-11-21T11:59:41.112Z</time>
      </trkpt>
      <trkpt lat="47.466922" lon="7.859398">
        <ele>405.065608</ele>
        <time>2021-11-21T11:59:45.661Z</time>
      </trkpt>
      <trkpt lat="47.467047" lon="7.859682">
        <ele>405.281940</ele>
        <time>2021-11-21T11:59:51.256Z</time>
      </trkpt>
      <trkpt lat="47.467266" lon="7.860107">
        <ele>405.623070</ele>
        <time>2021-11-21T12:00:00.111Z</time>
      </trkpt>
      <trkpt lat="47.467944" lon="7.861300">
        <ele>406.728369</ele>
        <time>2021-11-21T12:00:24.829Z</time>
      </trkpt>
      <trkpt lat="47.468224" lon="7.861805">
        <ele>407.362459</ele>
        <time>2021-11-21T12:00:36.145Z</time>
      </trkpt>
      <trkpt lat="47.468543" lon="7.862357">
        <ele>408.067494</ele>
        <time>2021-11-21T12:00:48.833Z</time>
      </trkpt>
      <trkpt lat="47.468825" lon="7.862900">
        <ele>408.732262</ele>
        <time>2021-11-21T12:01:01.478Z</time>
      </trkpt>
      <trkpt lat="47.468859" lon="7.862978">
        <ele>408.822365</ele>
        <time>2021-11-21T12:01:03.278Z</time>
      </trkpt>
      <trkpt lat="47.468943" lon="7.863195">
        <ele>409.081600</ele>
        <time>2021-11-21T12:01:07.780Z</time>
      </trkpt>
      <trkpt lat="47.468986" lon="7.863323">
        <ele>409.250457</ele>
        <time>2021-11-21T12:01:10.448Z</time>
      </trkpt>
      <trkpt lat="47.469011" lon="7.863405">
        <ele>409.356724</ele>
        <time>2021-11-21T12:01:12.585Z</time>
      </trkpt>
      <trkpt lat="47.469305" lon="7.864692">
        <ele>410.961590</ele>
        <time>2021-11-21T12:01:37.738Z</time>
      </trkpt>
      <trkpt lat="47.469629" lon="7.865918">
        <ele>412.334766</ele>
        <time>2021-11-21T12:02:01.753Z</time>
      </trkpt>
      <trkpt lat="47.469710" lon="7.866208">
        <ele>412.529943</ele>
        <time>2021-11-21T12:02:06.733Z</time>
      </trkpt>
      <trkpt lat="47.469764" lon="7.866452">
        <ele>412.689643</ele>
        <time>2021-11-21T12:02:11.034Z</time>
      </trkpt>
      <trkpt lat="47.469808" lon="7.866690">
        <ele>412.843120</ele>
        <time>2021-11-21T12:02:14.889Z</time>
      </trkpt>
      <trkpt lat="47.469915" lon="7.867494">
        <ele>413.352822</ele>
        <time>2021-11-21T12:02:28.053Z</time>
      </trkpt>
      <trkpt lat="47.470127" lon="7.868484">
        <ele>413.999731</ele>
        <time>2021-11-21T12:02:43.449Z</time>
      </trkpt>
      <trkpt lat="47.470234" lon="7.868884">
        <ele>414.268515</ele>
        <time>2021-11-21T12:02:49.875Z</time>
      </trkpt>
      <trkpt lat="47.470309" lon="7.869201">
        <ele>414.478363</ele>
        <time>2021-11-21T12:02:55.245Z</time>
      </trkpt>
      <trkpt lat="47.470378" lon="7.869626">
        <ele>414.751461</ele>
        <time>2021-11-21T12:03:02.012Z</time>
      </trkpt>
      <trkpt lat="47.470397" lon="7.870147">
        <ele>415.077463</ele>
        <time>2021-11-21T12:03:10.746Z</time>
      </trkpt>
      <trkpt lat="47.470379" lon="7.870338">
        <ele>415.197957</ele>
        <time>2021-11-21T12:03:14.293Z</time>
      </trkpt>
      <trkpt lat="47.470350" lon="7.870570">
        <ele>415.345372</ele>
        <time>2021-11-21T12:03:17.211Z</time>
      </trkpt>
      <trkpt lat="47.470333" lon="7.870669">
        <ele>415.409193</ele>
        <time>2021-11-21T12:03:18.681Z</time>
      </trkpt>
      <trkpt lat="47.470316" lon="7.870753">
        <ele>415.476026</ele>
        <time>2021-11-21T12:03:20.191Z</time>
      </trkpt>
      <trkpt lat="47.470245" lon="7.871088">
        <ele>415.885291</ele>
        <time>2021-11-21T12:03:24.705Z</time>
      </trkpt>
      <trkpt lat="47.470217" lon="7.871214">
        <ele>416.039907</ele>
        <time>2021-11-21T12:03:26.735Z</time>
      </trkpt>
      <trkpt lat="47.470156" lon="7.871491">
        <ele>416.379519</ele>
        <time>2021-11-21T12:03:31.198Z</time>
      </trkpt>
      <trkpt lat="47.469969" lon="7.872276">
        <ele>417.349783</ele>
        <time>2021-11-21T12:03:43.554Z</time>
      </trkpt>
      <trkpt lat="47.469710" lon="7.873249">
        <ele>418.572382</ele>
        <time>2021-11-21T12:03:58.801Z</time>
      </trkpt>
      <trkpt lat="47.469682" lon="7.873326">
        <ele>418.695702</ele>
        <time>2021-11-21T12:04:00.579Z</time>
      </trkpt>
      <trkpt lat="47.469626" lon="7.873477">
        <ele>418.938624</ele>
        <time>2021-11-21T12:04:03.017Z</time>
      </trkpt>
      <trkpt lat="47.469489" lon="7.873809">
        <ele>419.487243</ele>
        <time>2021-11-21T12:04:09.045Z</time>
      </trkpt>
      <trkpt lat="47.469422" lon="7.873965">
        <ele>419.747925</ele>
        <time>2021-11-21T12:04:11.648Z</time>
      </trkpt>
      <trkpt lat="47.469224" lon="7.874328">
        <ele>420.405806</ele>
        <time>2021-11-21T12:04:18.925Z</time>
      </trkpt>
      <trkpt lat="47.469173" lon="7.874432">
        <ele>420.587025</ele>
        <time>2021-11-21T12:04:20.608Z</time>
      </trkpt>
      <trkpt lat="47.469136" lon="7.874516">
        <ele>420.728435</ele>
        <time>2021-11-21T12:04:22.103Z</time>
      </trkpt>
      <trkpt lat="47.469097" lon="7.874606">
        <ele>420.879218</ele>
        <time>2021-11-21T12:04:23.948Z</time>
      </trkpt>
      <trkpt lat="47.469068" lon="7.874689">
        <ele>421.010998</ele>
        <time>2021-11-21T12:04:25.794Z</time>
      </trkpt>
      <trkpt lat="47.469050" lon="7.874738">
        <ele>421.089656</ele>
        <time>2021-11-21T12:04:26.539Z</time>
      </trkpt>
      <trkpt lat="47.468989" lon="7.874967">
        <ele>421.436821</ele>
        <time>2021-11-21T12:04:30.139Z</time>
      </trkpt>
      <trkpt lat="47.468925" lon="7.875205">
        <ele>421.798094</ele>
        <time>2021-11-21T12:04:34.622Z</time>
      </trkpt>
      <trkpt lat="47.468806" lon="7.875696">
        <ele>422.913966</ele>
        <time>2021-11-21T12:04:42.461Z</time>
      </trkpt>
      <trkpt lat="47.468698" lon="7.876140">
        <ele>424.684188</ele>
        <time>2021-11-21T12:04:50.916Z</time>
      </trkpt>
      <trkpt lat="47.468639" lon="7.876439">
        <ele>425.852702</ele>
        <time>2021-11-21T12:04:57.029Z</time>
      </trkpt>
      <trkpt lat="47.468557" lon="7.876917">
        <ele>427.702769</ele>
        <time>2021-11-21T12:05:07.938Z</time>
      </trkpt>
      <trkpt lat="47.468377" lon="7.877826">
        <ele>431.256206</ele>
        <time>2021-11-21T12:05:37.643Z</time>
      </trkpt>
      <trkpt lat="47.468327" lon="7.877957">
        <ele>431.820582</ele>
        <time>2021-11-21T12:05:43.033Z</time>
      </trkpt>
      <trkpt lat="47.468308" lon="7.877998">
        <ele>432.007067</ele>
        <time>2021-11-21T12:05:46.208Z</time>
      </trkpt>
      <trkpt lat="47.468268" lon="7.878083">
        <ele>432.427183</ele>
        <time>2021-11-21T12:05:48.984Z</time>
      </trkpt>
      <trkpt lat="47.468104" lon="7.878354">
        <ele>434.186815</ele>
        <time>2021-11-21T12:05:59.587Z</time>
      </trkpt>
      <trkpt lat="47.468067" lon="7.878427">
        <ele>434.628216</ele>
        <time>2021-11-21T12:06:04.636Z</time>
      </trkpt>
      <trkpt lat="47.467908" lon="7.878819">
        <ele>436.839814</ele>
        <time>2021-11-21T12:06:17.812Z</time>
      </trkpt>
      <trkpt lat="47.467814" lon="7.879126">
        <ele>438.470267</ele>
        <time>2021-11-21T12:06:28.193Z</time>
      </trkpt>
      <trkpt lat="47.467758" lon="7.879308">
        <ele>439.437666</ele>
        <time>2021-11-21T12:06:35.309Z</time>
      </trkpt>
      <trkpt lat="47.467695" lon="7.879712">
        <ele>441.443473</ele>
        <time>2021-11-21T12:06:48.105Z</time>
      </trkpt>
      <trkpt lat="47.467712" lon="7.880819">
        <ele>445.202900</ele>
        <time>2021-11-21T12:07:17.252Z</time>
      </trkpt>
      <trkpt lat="47.467755" lon="7.881902">
        <ele>445.344818</ele>
        <time>2021-11-21T12:07:31.595Z</time>
      </trkpt>
      <trkpt lat="47.467789" lon="7.882188">
        <ele>445.382805</ele>
        <time>2021-11-21T12:07:33.846Z</time>
      </trkpt>
      <trkpt lat="47.467832" lon="7.882502">
        <ele>445.424716</ele>
        <time>2021-11-21T12:07:36.026Z</time>
      </trkpt>
      <trkpt lat="47.468085" lon="7.883534">
        <ele>444.530534</ele>
        <time>2021-11-21T12:07:43.416Z</time>
      </trkpt>
      <trkpt lat="47.468175" lon="7.884477">
        <ele>442.561519</ele>
        <time>2021-11-21T12:07:49.793Z</time>
      </trkpt>
      <trkpt lat="47.468175" lon="7.884487">
        <ele>442.540844</ele>
        <time>2021-11-21T12:07:49.848Z</time>
      </trkpt>
      <trkpt lat="47.468170" lon="7.884753">
        <ele>441.990669</ele>
        <time>2021-11-21T12:07:51.696Z</time>
      </trkpt>
      <trkpt lat="47.468160" lon="7.885131">
        <ele>441.208546</ele>
        <time>2021-11-21T12:07:54.367Z</time>
      </trkpt>
      <trkpt lat="47.468160" lon="7.885412">
        <ele>440.627571</ele>
        <time>2021-11-21T12:07:56.476Z</time>
      </trkpt>
      <trkpt lat="47.468174" lon="7.885724">
        <ele>440.001657</ele>
        <time>2021-11-21T12:07:58.702Z</time>
      </trkpt>
      <trkpt lat="47.468250" lon="7.886308">
        <ele>439.809603</ele>
        <time>2021-11-21T12:08:03.225Z</time>
      </trkpt>
      <trkpt lat="47.468546" lon="7.888014">
        <ele>439.240830</ele>
        <time>2021-11-21T12:08:20.373Z</time>
      </trkpt>
      <trkpt lat="47.468718" lon="7.888938">
        <ele>439.561913</ele>
        <time>2021-11-21T12:08:31.720Z</time>
      </trkpt>
      <trkpt lat="47.468951" lon="7.890216">
        <ele>440.388701</ele>
        <time>2021-11-21T12:08:48.701Z</time>
      </trkpt>
      <trkpt lat="47.469288" lon="7.891996">
        <ele>441.556713</ele>
        <time>2021-11-21T12:09:12.914Z</time>
      </trkpt>
      <trkpt lat="47.469496" lon="7.893085">
        <ele>442.276444</ele>
        <time>2021-11-21T12:09:26.979Z</time>
      </trkpt>
      <trkpt lat="47.469658" lon="7.894567">
        <ele>443.105767</ele>
        <time>2021-11-21T12:09:44.442Z</time>
      </trkpt>
      <trkpt lat="47.469691" lon="7.894970">
        <ele>443.319617</ele>
        <time>2021-11-21T12:09:49.005Z</time>
      </trkpt>
      <trkpt lat="47.469714" lon="7.895204">
        <ele>443.444184</ele>
        <time>2021-11-21T12:09:51.654Z</time>
      </trkpt>
      <trkpt lat="47.469728" lon="7.895384">
        <ele>443.539632</ele>
        <time>2021-11-21T12:09:53.657Z</time>
      </trkpt>
      <trkpt lat="47.469734" lon="7.895575">
        <ele>443.640359</ele>
        <time>2021-11-21T12:09:56.058Z</time>
      </trkpt>
      <trkpt lat="47.469747" lon="7.895922">
        <ele>443.823437</ele>
        <time>2021-11-21T12:10:00.121Z</time>
      </trkpt>
      <trkpt lat="47.469738" lon="7.896220">
        <ele>444.166517</ele>
        <time>2021-11-21T12:10:04.602Z</time>
      </trkpt>
      <trkpt lat="47.469692" lon="7.896826">
        <ele>445.249566</ele>
        <time>2021-11-21T12:10:13.748Z</time>
      </trkpt>
      <trkpt lat="47.469678" lon="7.896938">
        <ele>445.451855</ele>
        <time>2021-11-21T12:10:15.312Z</time>
      </trkpt>
      <trkpt lat="47.469652" lon="7.897139">
        <ele>445.815318</ele>
        <time>2021-11-21T12:10:18.726Z</time>
      </trkpt>
      <trkpt lat="47.469598" lon="7.897405">
        <ele>446.308591</ele>
        <time>2021-11-21T12:10:23.204Z</time>
      </trkpt>
      <trkpt lat="47.469534" lon="7.897638">
        <ele>446.755269</ele>
        <time>2021-11-21T12:10:27.473Z</time>
      </trkpt>
      <trkpt lat="47.469806" lon="7.897795">
        <ele>447.522385</ele>
        <time>2021-11-21T12:10:34.719Z</time>
      </trkpt>
      <trkpt lat="47.469999" lon="7.897879">
        <ele>448.050957</ele>
        <time>2021-11-21T12:10:40.392Z</time>
      </trkpt>
      <trkpt lat="47.471002" lon="7.898222">
        <ele>452.689096</ele>
        <time>2021-11-21T12:11:15.523Z</time>
      </trkpt>
      <trkpt lat="47.471597" lon="7.898344">
        <ele>455.701332</ele>
        <time>2021-11-21T12:11:37.631Z</time>
      </trkpt>
      <trkpt lat="47.471825" lon="7.898370">
        <ele>456.848063</ele>
        <time>2021-11-21T12:11:45.588Z</time>
      </trkpt>
      <trkpt lat="47.471910" lon="7.898392">
        <ele>457.280782</ele>
        <time>2021-11-21T12:11:48.971Z</time>
      </trkpt>
      <trkpt lat="47.473317" lon="7.898945">
        <ele>464.636767</ele>
        <time>2021-11-21T12:12:41.613Z</time>
      </trkpt>
      <trkpt lat="47.473931" lon="7.899567">
        <ele>468.364140</ele>
        <time>2021-11-21T12:13:04.886Z</time>
      </trkpt>
      <trkpt lat="47.474087" lon="7.899774">
        <ele>469.401567</ele>
        <time>2021-11-21T12:13:12.406Z</time>
      </trkpt>
      <trkpt lat="47.474186" lon="7.899915">
        <ele>470.081884</ele>
        <time>2021-11-21T12:13:17.063Z</time>
      </trkpt>
      <trkpt lat="47.474336" lon="7.900125">
        <ele>471.104264</ele>
        <time>2021-11-21T12:13:24.342Z</time>
      </trkpt>
      <trkpt lat="47.474617" lon="7.900560">
        <ele>473.117738</ele>
        <time>2021-11-21T12:13:38.450Z</time>
      </trkpt>
      <trkpt lat="47.474888" lon="7.900841">
        <ele>474.756065</ele>
        <time>2021-11-21T12:13:49.777Z</time>
      </trkpt>
      <trkpt lat="47.475163" lon="7.901034">
        <ele>476.372522</ele>
        <time>2021-11-21T12:14:00.754Z</time>
      </trkpt>
      <trkpt lat="47.475300" lon="7.901112">
        <ele>477.227921</ele>
        <time>2021-11-21T12:14:06.766Z</time>
      </trkpt>
      <trkpt lat="47.476364" lon="7.901870">
        <ele>484.109406</ele>
        <time>2021-11-21T12:14:51.431Z</time>
      </trkpt>
      <trkpt lat="47.476536" lon="7.901977">
        <ele>485.196679</ele>
        <time>2021-11-21T12:14:59.091Z</time>
      </trkpt>
      <trkpt lat="47.476982" lon="7.902234">
        <ele>488.149515</ele>
        <time>2021-11-21T12:15:18.065Z</time>
      </trkpt>
      <trkpt lat="47.478118" lon="7.903075">
        <ele>496.202996</ele>
        <time>2021-11-21T12:16:10.710Z</time>
      </trkpt>
      <trkpt lat="47.478182" lon="7.903109">
        <ele>496.634117</ele>
        <time>2021-11-21T12:16:14.049Z</time>
      </trkpt>
      <trkpt lat="47.478367" lon="7.903166">
        <ele>497.782074</ele>
        <time>2021-11-21T12:16:21.119Z</time>
      </trkpt>
      <trkpt lat="47.480980" lon="7.903461">
        <ele>512.110036</ele>
        <time>2021-11-21T12:17:53.531Z</time>
      </trkpt>
      <trkpt lat="47.481478" lon="7.903693">
        <ele>515.145754</ele>
        <time>2021-11-21T12:18:13.187Z</time>
      </trkpt>
      <trkpt lat="47.481588" lon="7.903776">
        <ele>515.863702</ele>
        <time>2021-11-21T12:18:18.129Z</time>
      </trkpt>
      <trkpt lat="47.481709" lon="7.903892">
        <ele>516.702009</ele>
        <time>2021-11-21T12:18:24.289Z</time>
      </trkpt>
      <trkpt lat="47.481882" lon="7.904067">
        <ele>517.970689</ele>
        <time>2021-11-21T12:18:33.144Z</time>
      </trkpt>
      <trkpt lat="47.481957" lon="7.904143">
        <ele>518.563883</ele>
        <time>2021-11-21T12:18:37.687Z</time>
      </trkpt>
      <trkpt lat="47.482157" lon="7.904346">
        <ele>520.146562</ele>
        <time>2021-11-21T12:18:48.621Z</time>
      </trkpt>
      <trkpt lat="47.482433" lon="7.904538">
        <ele>522.136759</ele>
        <time>2021-11-21T12:19:02.527Z</time>
      </trkpt>
      <trkpt lat="47.483101" lon="7.904680">
        <ele>526.540655</ele>
        <time>2021-11-21T12:19:33.581Z</time>
      </trkpt>
      <trkpt lat="47.483329" lon="7.904705">
        <ele>528.032585</ele>
        <time>2021-11-21T12:19:41.901Z</time>
      </trkpt>
      <trkpt lat="47.483385" lon="7.904708">
        <ele>528.398262</ele>
        <time>2021-11-21T12:19:44.297Z</time>
      </trkpt>
      <trkpt lat="47.484005" lon="7.904793">
        <ele>529.492204</ele>
        <time>2021-11-21T12:20:00.576Z</time>
      </trkpt>
      <trkpt lat="47.484064" lon="7.904808">
        <ele>529.521944</ele>
        <time>2021-11-21T12:20:01.672Z</time>
      </trkpt>
      <trkpt lat="47.484124" lon="7.904824">
        <ele>529.552231</ele>
        <time>2021-11-21T12:20:03.065Z</time>
      </trkpt>
      <trkpt lat="47.484248" lon="7.904856">
        <ele>529.614763</ele>
        <time>2021-11-21T12:20:05.624Z</time>
      </trkpt>
      <trkpt lat="47.484481" lon="7.904947">
        <ele>529.734479</ele>
        <time>2021-11-21T12:20:09.993Z</time>
      </trkpt>
      <trkpt lat="47.484713" lon="7.905133">
        <ele>529.865563</ele>
        <time>2021-11-21T12:20:14.615Z</time>
      </trkpt>
      <trkpt lat="47.484936" lon="7.905289">
        <ele>529.988103</ele>
        <time>2021-11-21T12:20:17.327Z</time>
      </trkpt>
      <trkpt lat="47.485049" lon="7.905336">
        <ele>530.046415</ele>
        <time>2021-11-21T12:20:18.632Z</time>
      </trkpt>
      <trkpt lat="47.485073" lon="7.905345">
        <ele>530.058715</ele>
        <time>2021-11-21T12:20:18.843Z</time>
      </trkpt>
      <trkpt lat="47.485331" lon="7.905337">
        <ele>529.637873</ele>
        <time>2021-11-21T12:20:21.530Z</time>
      </trkpt>
      <trkpt lat="47.485593" lon="7.905145">
        <ele>528.043453</ele>
        <time>2021-11-21T12:20:24.437Z</time>
      </trkpt>
      <trkpt lat="47.486049" lon="7.904262">
        <ele>523.947913</ele>
        <time>2021-11-21T12:20:31.293Z</time>
      </trkpt>
      <trkpt lat="47.486247" lon="7.904043">
        <ele>522.599835</ele>
        <time>2021-11-21T12:20:33.484Z</time>
      </trkpt>
      <trkpt lat="47.486480" lon="7.904016">
        <ele>521.325285</ele>
        <time>2021-11-21T12:20:35.651Z</time>
      </trkpt>
      <trkpt lat="47.486688" lon="7.904238">
        <ele>519.928690</ele>
        <time>2021-11-21T12:20:38.063Z</time>
      </trkpt>
      <trkpt lat="47.486721" lon="7.904326">
        <ele>519.559613</ele>
        <time>2021-11-21T12:20:38.666Z</time>
      </trkpt>
      <trkpt lat="47.486755" lon="7.904487">
        <ele>518.941030</ele>
        <time>2021-11-21T12:20:39.685Z</time>
      </trkpt>
      <trkpt lat="47.486724" lon="7.905485">
        <ele>515.277270</ele>
        <time>2021-11-21T12:20:45.848Z</time>
      </trkpt>
      <trkpt lat="47.486769" lon="7.905976">
        <ele>513.460175</ele>
        <time>2021-11-21T12:20:48.935Z</time>
      </trkpt>
      <trkpt lat="47.486969" lon="7.906583">
        <ele>510.983664</ele>
        <time>2021-11-21T12:20:53.227Z</time>
      </trkpt>
      <trkpt lat="47.487197" lon="7.906946">
        <ele>509.742364</ele>
        <time>2021-11-21T12:20:56.778Z</time>
      </trkpt>
      <trkpt lat="47.487378" lon="7.907191">
        <ele>508.957006</ele>
        <time>2021-11-21T12:20:59.356Z</time>
      </trkpt>
      <trkpt lat="47.487587" lon="7.907459">
        <ele>508.071597</ele>
        <time>2021-11-21T12:21:02.226Z</time>
      </trkpt>
      <trkpt lat="47.487763" lon="7.907711">
        <ele>507.287524</ele>
        <time>2021-11-21T12:21:04.745Z</time>
      </trkpt>
      <trkpt lat="47.488080" lon="7.908344">
        <ele>505.582946</ele>
        <time>2021-11-21T12:21:10.104Z</time>
      </trkpt>
      <trkpt lat="47.488185" lon="7.908663">
        <ele>504.815270</ele>
        <time>2021-11-21T12:21:12.635Z</time>
      </trkpt>
      <trkpt lat="47.488241" lon="7.908835">
        <ele>504.323742</ele>
        <time>2021-11-21T12:21:13.892Z</time>
      </trkpt>
      <trkpt lat="47.488366" lon="7.909318">
        <ele>502.990858</ele>
        <time>2021-11-21T12:21:17.496Z</time>
      </trkpt>
      <trkpt lat="47.488699" lon="7.910498">
        <ele>499.695410</ele>
        <time>2021-11-21T12:21:26.018Z</time>
      </trkpt>
      <trkpt lat="47.488908" lon="7.911009">
        <ele>498.156112</ele>
        <time>2021-11-21T12:21:29.854Z</time>
      </trkpt>
      <trkpt lat="47.489040" lon="7.911300">
        <ele>497.318524</ele>
        <time>2021-11-21T12:21:32.066Z</time>
      </trkpt>
      <trkpt lat="47.489216" lon="7.911685">
        <ele>496.232901</ele>
        <time>2021-11-21T12:21:35.155Z</time>
      </trkpt>
      <trkpt lat="47.489607" lon="7.912646">
        <ele>493.612999</ele>
        <time>2021-11-21T12:21:42.668Z</time>
      </trkpt>
      <trkpt lat="47.489843" lon="7.913398">
        <ele>491.695951</ele>
        <time>2021-11-21T12:21:48.540Z</time>
      </trkpt>
      <trkpt lat="47.489922" lon="7.913738">
        <ele>491.128203</ele>
        <time>2021-11-21T12:21:51.250Z</time>
      </trkpt>
      <trkpt lat="47.489951" lon="7.913893">
        <ele>490.874235</ele>
        <time>2021-11-21T12:21:52.443Z</time>
      </trkpt>
      <trkpt lat="47.489987" lon="7.914083">
        <ele>490.562635</ele>
        <time>2021-11-21T12:21:53.915Z</time>
      </trkpt>
      <trkpt lat="47.490283" lon="7.915612">
        <ele>488.051071</ele>
        <time>2021-11-21T12:22:05.458Z</time>
      </trkpt>
      <trkpt lat="47.490429" lon="7.916164">
        <ele>486.958326</ele>
        <time>2021-11-21T12:22:09.705Z</time>
      </trkpt>
      <trkpt lat="47.490607" lon="7.916690">
        <ele>485.681364</ele>
        <time>2021-11-21T12:22:13.915Z</time>
      </trkpt>
      <trkpt lat="47.490822" lon="7.917158">
        <ele>484.452937</ele>
        <time>2021-11-21T12:22:17.831Z</time>
      </trkpt>
      <trkpt lat="47.491324" lon="7.917985">
        <ele>482.039821</ele>
        <time>2021-11-21T12:22:25.282Z</time>
      </trkpt>
      <trkpt lat="47.492227" lon="7.918989">
        <ele>476.991780</ele>
        <time>2021-11-21T12:22:36.133Z</time>
      </trkpt>
      <trkpt lat="47.492584" lon="7.919482">
        <ele>474.757182</ele>
        <time>2021-11-21T12:22:40.739Z</time>
      </trkpt>
      <trkpt lat="47.492813" lon="7.919900">
        <ele>473.115989</ele>
        <time>2021-11-21T12:22:44.165Z</time>
      </trkpt>
      <trkpt lat="47.493132" lon="7.920716">
        <ele>470.355581</ele>
        <time>2021-11-21T12:22:50.221Z</time>
      </trkpt>
      <trkpt lat="47.493236" lon="7.921091">
        <ele>469.168659</ele>
        <time>2021-11-21T12:22:52.845Z</time>
      </trkpt>
      <trkpt lat="47.493307" lon="7.921373">
        <ele>468.287482</ele>
        <time>2021-11-21T12:22:54.821Z</time>
      </trkpt>
      <trkpt lat="47.493397" lon="7.921760">
        <ele>467.089081</ele>
        <time>2021-11-21T12:22:57.526Z</time>
      </trkpt>
      <trkpt lat="47.493708" lon="7.923049">
        <ele>463.658475</ele>
        <time>2021-11-21T12:23:06.716Z</time>
      </trkpt>
      <trkpt lat="47.494034" lon="7.924101">
        <ele>461.008212</ele>
        <time>2021-11-21T12:23:14.655Z</time>
      </trkpt>
      <trkpt lat="47.494438" lon="7.925289">
        <ele>457.775706</ele>
        <time>2021-11-21T12:23:23.733Z</time>
      </trkpt>
      <trkpt lat="47.494515" lon="7.925509">
        <ele>457.144861</ele>
        <time>2021-11-21T12:23:25.344Z</time>
      </trkpt>
      <trkpt lat="47.494945" lon="7.926765">
        <ele>453.559821</ele>
        <time>2021-11-21T12:23:34.725Z</time>
      </trkpt>
      <trkpt lat="47.495031" lon="7.927006">
        <ele>452.865882</ele>
        <time>2021-11-21T12:23:36.445Z</time>
      </trkpt>
      <trkpt lat="47.495268" lon="7.927740">
        <ele>451.097052</ele>
        <time>2021-11-21T12:23:41.816Z</time>
      </trkpt>
      <trkpt lat="47.495455" lon="7.928595">
        <ele>449.144717</ele>
        <time>2021-11-21T12:23:47.949Z</time>
      </trkpt>
      <trkpt lat="47.495530" lon="7.929063">
        <ele>448.099807</ele>
        <time>2021-11-21T12:23:51.257Z</time>
      </trkpt>
      <trkpt lat="47.495562" lon="7.929221">
        <ele>447.741472</ele>
        <time>2021-11-21T12:23:52.502Z</time>
      </trkpt>
      <trkpt lat="47.495622" lon="7.929400">
        <ele>447.307381</ele>
        <time>2021-11-21T12:23:54.010Z</time>
      </trkpt>
      <trkpt lat="47.495801" lon="7.929891">
        <ele>446.592379</ele>
        <time>2021-11-21T12:23:58.149Z</time>
      </trkpt>
      <trkpt lat="47.495985" lon="7.930428">
        <ele>445.949833</ele>
        <time>2021-11-21T12:24:02.541Z</time>
      </trkpt>
      <trkpt lat="47.496051" lon="7.930607">
        <ele>445.732218</ele>
        <time>2021-11-21T12:24:04.132Z</time>
      </trkpt>
      <trkpt lat="47.496117" lon="7.930763">
        <ele>445.535797</ele>
        <time>2021-11-21T12:24:05.519Z</time>
      </trkpt>
      <trkpt lat="47.496162" lon="7.930842">
        <ele>445.425528</ele>
        <time>2021-11-21T12:24:06.390Z</time>
      </trkpt>
      <trkpt lat="47.496205" lon="7.930904">
        <ele>445.330710</ele>
        <time>2021-11-21T12:24:07.015Z</time>
      </trkpt>
      <trkpt lat="47.496424" lon="7.931075">
        <ele>444.939622</ele>
        <time>2021-11-21T12:24:10.373Z</time>
      </trkpt>
      <trkpt lat="47.496998" lon="7.931330">
        <ele>443.960329</ele>
        <time>2021-11-21T12:24:17.948Z</time>
      </trkpt>
      <trkpt lat="47.497104" lon="7.931414">
        <ele>443.744347</ele>
        <time>2021-11-21T12:24:19.363Z</time>
      </trkpt>
      <trkpt lat="47.497221" lon="7.931528">
        <ele>443.492728</ele>
        <time>2021-11-21T12:24:21.015Z</time>
      </trkpt>
      <trkpt lat="47.497430" lon="7.931757">
        <ele>443.025624</ele>
        <time>2021-11-21T12:24:23.859Z</time>
      </trkpt>
      <trkpt lat="47.497676" lon="7.932013">
        <ele>442.485444</ele>
        <time>2021-11-21T12:24:27.019Z</time>
      </trkpt>
      <trkpt lat="47.497907" lon="7.932254">
        <ele>441.977776</ele>
        <time>2021-11-21T12:24:30.114Z</time>
      </trkpt>
      <trkpt lat="47.498068" lon="7.932426">
        <ele>441.621107</ele>
        <time>2021-11-21T12:24:32.251Z</time>
      </trkpt>
      <trkpt lat="47.498138" lon="7.932522">
        <ele>441.449688</ele>
        <time>2021-11-21T12:24:33.254Z</time>
      </trkpt>
      <trkpt lat="47.498196" lon="7.932613">
        <ele>441.297861</ele>
        <time>2021-11-21T12:24:34.163Z</time>
      </trkpt>
      <trkpt lat="47.498391" lon="7.932972">
        <ele>440.800710</ele>
        <time>2021-11-21T12:24:37.671Z</time>
      </trkpt>
      <trkpt lat="47.498431" lon="7.932995">
        <ele>440.741859</ele>
        <time>2021-11-21T12:24:38.160Z</time>
      </trkpt>
      <trkpt lat="47.498481" lon="7.933011">
        <ele>440.671703</ele>
        <time>2021-11-21T12:24:38.713Z</time>
      </trkpt>
      <trkpt lat="47.498925" lon="7.932781">
        <ele>440.026572</ele>
        <time>2021-11-21T12:24:44.311Z</time>
      </trkpt>
      <trkpt lat="47.498997" lon="7.932758">
        <ele>439.925556</ele>
        <time>2021-11-21T12:24:45.106Z</time>
      </trkpt>
      <trkpt lat="47.499088" lon="7.932741">
        <ele>439.799765</ele>
        <time>2021-11-21T12:24:46.301Z</time>
      </trkpt>
      <trkpt lat="47.499354" lon="7.932769">
        <ele>439.434043</ele>
        <time>2021-11-21T12:24:49.436Z</time>
      </trkpt>
      <trkpt lat="47.499421" lon="7.932805">
        <ele>439.336290</ele>
        <time>2021-11-21T12:24:50.302Z</time>
      </trkpt>
      <trkpt lat="47.499538" lon="7.932868">
        <ele>439.165545</ele>
        <time>2021-11-21T12:24:51.708Z</time>
      </trkpt>
      <trkpt lat="47.499822" lon="7.933272">
        <ele>438.625346</ele>
        <time>2021-11-21T12:24:56.257Z</time>
      </trkpt>
      <trkpt lat="47.499993" lon="7.933864">
        <ele>438.368954</ele>
        <time>2021-11-21T12:25:01.734Z</time>
      </trkpt>
      <trkpt lat="47.500034" lon="7.933965">
        <ele>438.333325</ele>
        <time>2021-11-21T12:25:02.622Z</time>
      </trkpt>
      <trkpt lat="47.500007" lon="7.933994">
        <ele>438.318395</ele>
        <time>2021-11-21T12:25:03.109Z</time>
      </trkpt>
      <trkpt lat="47.499971" lon="7.934127">
        <ele>438.275072</ele>
        <time>2021-11-21T12:25:04.830Z</time>
      </trkpt>
      <trkpt lat="47.499976" lon="7.934175">
        <ele>438.260386</ele>
        <time>2021-11-21T12:25:05.513Z</time>
      </trkpt>
      <trkpt lat="47.499991" lon="7.934221">
        <ele>438.244942</ele>
        <time>2021-11-21T12:25:05.908Z</time>
      </trkpt>
      <trkpt lat="47.500077" lon="7.934300">
        <ele>438.199642</ele>
        <time>2021-11-21T12:25:07.094Z</time>
      </trkpt>
      <trkpt lat="47.500111" lon="7.934299">
        <ele>438.184421</ele>
        <time>2021-11-21T12:25:07.636Z</time>
      </trkpt>
      <trkpt lat="47.500150" lon="7.934279">
        <ele>438.165948</ele>
        <time>2021-11-21T12:25:08.182Z</time>
      </trkpt>
      <trkpt lat="47.500213" lon="7.934131">
        <ele>438.113055</ele>
        <time>2021-11-21T12:25:10.525Z</time>
      </trkpt>
      <trkpt lat="47.500208" lon="7.934071">
        <ele>438.094776</ele>
        <time>2021-11-21T12:25:11.294Z</time>
      </trkpt>
      <trkpt lat="47.500275" lon="7.934029">
        <ele>438.062211</ele>
        <time>2021-11-21T12:25:12.155Z</time>
      </trkpt>
      <trkpt lat="47.500352" lon="7.933976">
        <ele>438.024204</ele>
        <time>2021-11-21T12:25:13.364Z</time>
      </trkpt>
      <trkpt lat="47.500386" lon="7.933937">
        <ele>438.004953</ele>
        <time>2021-11-21T12:25:14.010Z</time>
      </trkpt>
      <trkpt lat="47.500435" lon="7.933872">
        <ele>437.975504</ele>
        <time>2021-11-21T12:25:15.125Z</time>
      </trkpt>
      <trkpt lat="47.500843" lon="7.933102">
        <ele>437.646642</ele>
        <time>2021-11-21T12:25:24.336Z</time>
      </trkpt>
      <trkpt lat="47.500990" lon="7.932950">
        <ele>437.512508</ele>
        <time>2021-11-21T12:25:26.947Z</time>
      </trkpt>
      <trkpt lat="47.501075" lon="7.932885">
        <ele>437.440941</ele>
        <time>2021-11-21T12:25:27.955Z</time>
      </trkpt>
      <trkpt lat="47.501463" lon="7.932668">
        <ele>437.130676</ele>
        <time>2021-11-21T12:25:32.959Z</time>
      </trkpt>
      <trkpt lat="47.501794" lon="7.932466">
        <ele>436.862858</ele>
        <time>2021-11-21T12:25:37.631Z</time>
      </trkpt>
      <trkpt lat="47.501901" lon="7.932351">
        <ele>436.763945</ele>
        <time>2021-11-21T12:25:39.775Z</time>
      </trkpt>
      <trkpt lat="47.502023" lon="7.932158">
        <ele>436.630375</ele>
        <time>2021-11-21T12:25:41.794Z</time>
      </trkpt>
      <trkpt lat="47.502400" lon="7.931256">
        <ele>436.061758</ele>
        <time>2021-11-21T12:25:50.766Z</time>
      </trkpt>
      <trkpt lat="47.502613" lon="7.930856">
        <ele>435.775322</ele>
        <time>2021-11-21T12:25:54.851Z</time>
      </trkpt>
      <trkpt lat="47.502761" lon="7.930610">
        <ele>435.590067</ele>
        <time>2021-11-21T12:25:57.755Z</time>
      </trkpt>
      <trkpt lat="47.503014" lon="7.930220">
        <ele>435.285988</ele>
        <time>2021-11-21T12:26:02.477Z</time>
      </trkpt>
      <trkpt lat="47.503485" lon="7.929688">
        <ele>434.736819</ele>
        <time>2021-11-21T12:26:10.260Z</time>
      </trkpt>
      <trkpt lat="47.503528" lon="7.929650">
        <ele>434.670085</ele>
        <time>2021-11-21T12:26:10.744Z</time>
      </trkpt>
      <trkpt lat="47.503598" lon="7.929585">
        <ele>434.559974</ele>
        <time>2021-11-21T12:26:12.198Z</time>
      </trkpt>
      <trkpt lat="47.503815" lon="7.929426">
        <ele>434.237326</ele>
        <time>2021-11-21T12:26:14.885Z</time>
      </trkpt>
      <trkpt lat="47.504005" lon="7.929312">
        <ele>433.964135</ele>
        <time>2021-11-21T12:26:18.113Z</time>
      </trkpt>
      <trkpt lat="47.504650" lon="7.928941">
        <ele>433.042039</ele>
        <time>2021-11-21T12:26:25.832Z</time>
      </trkpt>
      <trkpt lat="47.504724" lon="7.928871">
        <ele>432.925016</ele>
        <time>2021-11-21T12:26:26.797Z</time>
      </trkpt>
      <trkpt lat="47.504799" lon="7.928777">
        <ele>432.794065</ele>
        <time>2021-11-21T12:26:27.693Z</time>
      </trkpt>
      <trkpt lat="47.505253" lon="7.928170">
        <ele>432.337781</ele>
        <time>2021-11-21T12:26:35.774Z</time>
      </trkpt>
      <trkpt lat="47.505814" lon="7.927657">
        <ele>432.077105</ele>
        <time>2021-11-21T12:26:43.848Z</time>
      </trkpt>
      <trkpt lat="47.505868" lon="7.927611">
        <ele>432.052475</ele>
        <time>2021-11-21T12:26:44.586Z</time>
      </trkpt>
      <trkpt lat="47.505881" lon="7.927601">
        <ele>432.046684</ele>
        <time>2021-11-21T12:26:44.763Z</time>
      </trkpt>
      <trkpt lat="47.505858" lon="7.927551">
        <ele>432.030530</ele>
        <time>2021-11-21T12:26:45.167Z</time>
      </trkpt>
      <trkpt lat="47.505748" lon="7.927310">
        <ele>431.952858</ele>
        <time>2021-11-21T12:26:47.923Z</time>
      </trkpt>
      <trkpt lat="47.505690" lon="7.927200">
        <ele>431.915593</ele>
        <time>2021-11-21T12:26:49.088Z</time>
      </trkpt>
      <trkpt lat="47.505699" lon="7.926906">
        <ele>431.837001</ele>
        <time>2021-11-21T12:26:53.593Z</time>
      </trkpt>
      <trkpt lat="47.505768" lon="7.926636">
        <ele>431.849374</ele>
        <time>2021-11-21T12:26:56.676Z</time>
      </trkpt>
      <trkpt lat="47.506019" lon="7.926055">
        <ele>432.569604</ele>
        <time>2021-11-21T12:27:07.481Z</time>
      </trkpt>
      <trkpt lat="47.506562" lon="7.924949">
        <ele>433.997467</ele>
        <time>2021-11-21T12:27:30.751Z</time>
      </trkpt>
      <trkpt lat="47.507191" lon="7.924066">
        <ele>433.563965</ele>
        <time>2021-11-21T12:27:43.560Z</time>
      </trkpt>
      <trkpt lat="47.507226" lon="7.923898">
        <ele>433.329433</ele>
        <time>2021-11-21T12:27:45.585Z</time>
      </trkpt>
      <trkpt lat="47.507337" lon="7.923777">
        <ele>433.057205</ele>
        <time>2021-11-21T12:27:47.015Z</time>
      </trkpt>
      <trkpt lat="47.507715" lon="7.923412">
        <ele>432.165944</ele>
        <time>2021-11-21T12:27:52.588Z</time>
      </trkpt>
      <trkpt lat="47.507823" lon="7.923307">
        <ele>431.910777</ele>
        <time>2021-11-21T12:27:53.797Z</time>
      </trkpt>
      <trkpt lat="47.507876" lon="7.923234">
        <ele>431.767813</ele>
        <time>2021-11-21T12:27:54.563Z</time>
      </trkpt>
      <trkpt lat="47.507956" lon="7.923075">
        <ele>431.503334</ele>
        <time>2021-11-21T12:27:55.853Z</time>
      </trkpt>
      <trkpt lat="47.507981" lon="7.923001">
        <ele>431.392960</ele>
        <time>2021-11-21T12:27:56.379Z</time>
      </trkpt>
      <trkpt lat="47.508064" lon="7.922687">
        <ele>430.860762</ele>
        <time>2021-11-21T12:27:58.505Z</time>
      </trkpt>
      <trkpt lat="47.508128" lon="7.922441">
        <ele>430.053291</ele>
        <time>2021-11-21T12:28:00.164Z</time>
      </trkpt>
      <trkpt lat="47.508141" lon="7.922350">
        <ele>429.768386</ele>
        <time>2021-11-21T12:28:00.721Z</time>
      </trkpt>
      <trkpt lat="47.508171" lon="7.922196">
        <ele>429.277449</ele>
        <time>2021-11-21T12:28:01.891Z</time>
      </trkpt>
      <trkpt lat="47.508175" lon="7.922172">
        <ele>429.201731</ele>
        <time>2021-11-21T12:28:02.032Z</time>
      </trkpt>
      <trkpt lat="47.508248" lon="7.921916">
        <ele>428.350579</ele>
        <time>2021-11-21T12:28:03.797Z</time>
      </trkpt>
      <trkpt lat="47.508464" lon="7.921688">
        <ele>427.147622</ele>
        <time>2021-11-21T12:28:06.450Z</time>
      </trkpt>
      <trkpt lat="47.508585" lon="7.921587">
        <ele>426.517727</ele>
        <time>2021-11-21T12:28:07.688Z</time>
      </trkpt>
      <trkpt lat="47.508613" lon="7.921495">
        <ele>426.208644</ele>
        <time>2021-11-21T12:28:08.773Z</time>
      </trkpt>
      <trkpt lat="47.509138" lon="7.920939">
        <ele>423.281537</ele>
        <time>2021-11-21T12:28:15.116Z</time>
      </trkpt>
      <trkpt lat="47.509370" lon="7.920707">
        <ele>422.167097</ele>
        <time>2021-11-21T12:28:17.819Z</time>
      </trkpt>
      <trkpt lat="47.509586" lon="7.920497">
        <ele>421.212036</ele>
        <time>2021-11-21T12:28:20.312Z</time>
      </trkpt>
      <trkpt lat="47.509746" lon="7.920320">
        <ele>420.473839</ele>
        <time>2021-11-21T12:28:22.115Z</time>
      </trkpt>
      <trkpt lat="47.509809" lon="7.920155">
        <ele>420.000673</ele>
        <time>2021-11-21T12:28:23.453Z</time>
      </trkpt>
      <trkpt lat="47.509811" lon="7.920040">
        <ele>419.713488</ele>
        <time>2021-11-21T12:28:24.359Z</time>
      </trkpt>
      <trkpt lat="47.509902" lon="7.920009">
        <ele>419.368374</ele>
        <time>2021-11-21T12:28:25.602Z</time>
      </trkpt>
      <trkpt lat="47.510551" lon="7.919925">
        <ele>416.960597</ele>
        <time>2021-11-21T12:28:35.285Z</time>
      </trkpt>
      <trkpt lat="47.510627" lon="7.919935">
        <ele>416.678603</ele>
        <time>2021-11-21T12:28:36.311Z</time>
      </trkpt>
      <trkpt lat="47.510704" lon="7.919944">
        <ele>416.393134</ele>
        <time>2021-11-21T12:28:37.484Z</time>
      </trkpt>
      <trkpt lat="47.511375" lon="7.920079">
        <ele>414.064497</ele>
        <time>2021-11-21T12:28:47.312Z</time>
      </trkpt>
      <trkpt lat="47.511632" lon="7.920105">
        <ele>413.184113</ele>
        <time>2021-11-21T12:28:51.071Z</time>
      </trkpt>
      <trkpt lat="47.511883" lon="7.920133">
        <ele>412.323851</ele>
        <time>2021-11-21T12:28:54.629Z</time>
      </trkpt>
      <trkpt lat="47.511964" lon="7.919989">
        <ele>411.891263</ele>
        <time>2021-11-21T12:28:55.858Z</time>
      </trkpt>
      <trkpt lat="47.512085" lon="7.919732">
        <ele>411.168098</ele>
        <time>2021-11-21T12:28:57.924Z</time>
      </trkpt>
      <trkpt lat="47.512255" lon="7.919538">
        <ele>410.434536</ele>
        <time>2021-11-21T12:29:00.065Z</time>
      </trkpt>
      <trkpt lat="47.512664" lon="7.919306">
        <ele>409.288672</ele>
        <time>2021-11-21T12:29:04.532Z</time>
      </trkpt>
      <trkpt lat="47.512938" lon="7.919052">
        <ele>408.530661</ele>
        <time>2021-11-21T12:29:07.918Z</time>
      </trkpt>
      <trkpt lat="47.513058" lon="7.918896">
        <ele>408.156216</ele>
        <time>2021-11-21T12:29:09.642Z</time>
      </trkpt>
      <trkpt lat="47.513160" lon="7.918764">
        <ele>407.838565</ele>
        <time>2021-11-21T12:29:11.119Z</time>
      </trkpt>
      <trkpt lat="47.513378" lon="7.918393">
        <ele>407.059781</ele>
        <time>2021-11-21T12:29:14.782Z</time>
      </trkpt>
      <trkpt lat="47.514255" lon="7.917714">
        <ele>405.233580</ele>
        <time>2021-11-21T12:29:25.856Z</time>
      </trkpt>
      <trkpt lat="47.514561" lon="7.917409">
        <ele>404.757630</ele>
        <time>2021-11-21T12:29:30.168Z</time>
      </trkpt>
      <trkpt lat="47.514635" lon="7.917349">
        <ele>404.648772</ele>
        <time>2021-11-21T12:29:31.111Z</time>
      </trkpt>
      <trkpt lat="47.515014" lon="7.917030">
        <ele>404.086270</ele>
        <time>2021-11-21T12:29:36.475Z</time>
      </trkpt>
      <trkpt lat="47.516391" lon="7.915243">
        <ele>402.270305</ele>
        <time>2021-11-21T12:29:59.177Z</time>
      </trkpt>
      <trkpt lat="47.516544" lon="7.914936">
        <ele>402.039125</ele>
        <time>2021-11-21T12:30:02.348Z</time>
      </trkpt>
      <trkpt lat="47.516569" lon="7.914864">
        <ele>401.990071</ele>
        <time>2021-11-21T12:30:03.127Z</time>
      </trkpt>
      <trkpt lat="47.516590" lon="7.914840">
        <ele>401.966271</ele>
        <time>2021-11-21T12:30:03.443Z</time>
      </trkpt>
      <trkpt lat="47.516626" lon="7.914830">
        <ele>401.933410</ele>
        <time>2021-11-21T12:30:03.922Z</time>
      </trkpt>
      <trkpt lat="47.516662" lon="7.914835">
        <ele>401.900733</ele>
        <time>2021-11-21T12:30:04.356Z</time>
      </trkpt>
      <trkpt lat="47.516748" lon="7.914873">
        <ele>401.814016</ele>
        <time>2021-11-21T12:30:05.432Z</time>
      </trkpt>
      <trkpt lat="47.516806" lon="7.914896">
        <ele>401.756001</ele>
        <time>2021-11-21T12:30:06.137Z</time>
      </trkpt>
      <trkpt lat="47.517140" lon="7.915259">
        <ele>401.355678</ele>
        <time>2021-11-21T12:30:11.300Z</time>
      </trkpt>
      <trkpt lat="47.517281" lon="7.915238">
        <ele>401.218753</ele>
        <time>2021-11-21T12:30:13.108Z</time>
      </trkpt>
      <trkpt lat="47.517688" lon="7.914418">
        <ele>400.554696</ele>
        <time>2021-11-21T12:30:21.480Z</time>
      </trkpt>
      <trkpt lat="47.519421" lon="7.912098">
        <ele>398.095541</ele>
        <time>2021-11-21T12:30:49.799Z</time>
      </trkpt>
      <trkpt lat="47.519720" lon="7.911522">
        <ele>397.623632</ele>
        <time>2021-11-21T12:30:55.679Z</time>
      </trkpt>
      <trkpt lat="47.519891" lon="7.911129">
        <ele>397.319956</ele>
        <time>2021-11-21T12:30:59.475Z</time>
      </trkpt>
      <trkpt lat="47.519997" lon="7.910833">
        <ele>397.102325</ele>
        <time>2021-11-21T12:31:02.119Z</time>
      </trkpt>
      <trkpt lat="47.520493" lon="7.908683">
        <ele>396.388469</ele>
        <time>2021-11-21T12:31:22.375Z</time>
      </trkpt>
      <trkpt lat="47.520738" lon="7.907839">
        <ele>396.314733</ele>
        <time>2021-11-21T12:31:32.881Z</time>
      </trkpt>
      <trkpt lat="47.520733" lon="7.907655">
        <ele>396.299952</ele>
        <time>2021-11-21T12:31:34.490Z</time>
      </trkpt>
      <trkpt lat="47.520551" lon="7.907422">
        <ele>396.212316</ele>
        <time>2021-11-21T12:31:38.541Z</time>
      </trkpt>
      <trkpt lat="47.520506" lon="7.907236">
        <ele>396.109465</ele>
        <time>2021-11-21T12:31:40.221Z</time>
      </trkpt>
      <trkpt lat="47.520515" lon="7.907103">
        <ele>396.039883</ele>
        <time>2021-11-21T12:31:41.983Z</time>
      </trkpt>
      <trkpt lat="47.520528" lon="7.906930">
        <ele>395.949270</ele>
        <time>2021-11-21T12:31:43.673Z</time>
      </trkpt>
      <trkpt lat="47.520566" lon="7.906668">
        <ele>395.809772</ele>
        <time>2021-11-21T12:31:45.951Z</time>
      </trkpt>
      <trkpt lat="47.520678" lon="7.906050">
        <ele>395.476680</ele>
        <time>2021-11-21T12:31:51.855Z</time>
      </trkpt>
      <trkpt lat="47.520989" lon="7.905130">
        <ele>394.941113</ele>
        <time>2021-11-21T12:32:00.220Z</time>
      </trkpt>
      <trkpt lat="47.521297" lon="7.904312">
        <ele>393.085355</ele>
        <time>2021-11-21T12:32:06.973Z</time>
      </trkpt>
      <trkpt lat="47.521572" lon="7.903776">
        <ele>391.650443</ele>
        <time>2021-11-21T12:32:11.586Z</time>
      </trkpt>
      <trkpt lat="47.521657" lon="7.903609">
        <ele>391.204669</ele>
        <time>2021-11-21T12:32:13.029Z</time>
      </trkpt>
      <trkpt lat="47.521792" lon="7.903347">
        <ele>390.502172</ele>
        <time>2021-11-21T12:32:15.128Z</time>
      </trkpt>
      <trkpt lat="47.522013" lon="7.902637">
        <ele>388.722839</ele>
        <time>2021-11-21T12:32:20.321Z</time>
      </trkpt>
      <trkpt lat="47.522038" lon="7.902562">
        <ele>388.491956</ele>
        <time>2021-11-21T12:32:20.838Z</time>
      </trkpt>
      <trkpt lat="47.522065" lon="7.902526">
        <ele>388.343440</ele>
        <time>2021-11-21T12:32:21.168Z</time>
      </trkpt>
      <trkpt lat="47.522132" lon="7.902476">
        <ele>388.036750</ele>
        <time>2021-11-21T12:32:21.905Z</time>
      </trkpt>
      <trkpt lat="47.522260" lon="7.902356">
        <ele>387.417478</ele>
        <time>2021-11-21T12:32:23.412Z</time>
      </trkpt>
      <trkpt lat="47.522554" lon="7.901999">
        <ele>385.863301</ele>
        <time>2021-11-21T12:32:27.062Z</time>
      </trkpt>
      <trkpt lat="47.522688" lon="7.901843">
        <ele>385.166540</ele>
        <time>2021-11-21T12:32:28.642Z</time>
      </trkpt>
      <trkpt lat="47.523036" lon="7.901580">
        <ele>383.569466</ele>
        <time>2021-11-21T12:32:32.423Z</time>
      </trkpt>
      <trkpt lat="47.523340" lon="7.901197">
        <ele>381.937913</ele>
        <time>2021-11-21T12:32:36.383Z</time>
      </trkpt>
      <trkpt lat="47.523433" lon="7.901043">
        <ele>381.701259</ele>
        <time>2021-11-21T12:32:37.773Z</time>
      </trkpt>
      <trkpt lat="47.523567" lon="7.900820">
        <ele>381.429086</ele>
        <time>2021-11-21T12:32:39.873Z</time>
      </trkpt>
      <trkpt lat="47.523620" lon="7.900698">
        <ele>381.296818</ele>
        <time>2021-11-21T12:32:40.974Z</time>
      </trkpt>
      <trkpt lat="47.523648" lon="7.900606">
        <ele>381.204808</ele>
        <time>2021-11-21T12:32:41.659Z</time>
      </trkpt>
      <trkpt lat="47.523739" lon="7.900557">
        <ele>381.074067</ele>
        <time>2021-11-21T12:32:42.715Z</time>
      </trkpt>
      <trkpt lat="47.523878" lon="7.900445">
        <ele>380.860403</ele>
        <time>2021-11-21T12:32:44.681Z</time>
      </trkpt>
      <trkpt lat="47.523957" lon="7.900371">
        <ele>380.734188</ele>
        <time>2021-11-21T12:32:45.713Z</time>
      </trkpt>
      <trkpt lat="47.523989" lon="7.900340">
        <ele>380.682557</ele>
        <time>2021-11-21T12:32:46.178Z</time>
      </trkpt>
      <trkpt lat="47.523945" lon="7.900256">
        <ele>380.585626</ele>
        <time>2021-11-21T12:32:47.256Z</time>
      </trkpt>
      <trkpt lat="47.523890" lon="7.900131">
        <ele>380.449595</ele>
        <time>2021-11-21T12:32:48.671Z</time>
      </trkpt>
      <trkpt lat="47.523861" lon="7.900049">
        <ele>380.365196</ele>
        <time>2021-11-21T12:32:49.567Z</time>
      </trkpt>
      <trkpt lat="47.523896" lon="7.900001">
        <ele>380.300786</ele>
        <time>2021-11-21T12:32:50.124Z</time>
      </trkpt>
      <trkpt lat="47.524309" lon="7.899115">
        <ele>379.437715</ele>
        <time>2021-11-21T12:32:59.948Z</time>
      </trkpt>
      <trkpt lat="47.524360" lon="7.898951">
        <ele>379.438356</ele>
        <time>2021-11-21T12:33:01.652Z</time>
      </trkpt>
      <trkpt lat="47.524617" lon="7.898216">
        <ele>379.441295</ele>
        <time>2021-11-21T12:33:10.861Z</time>
      </trkpt>
      <trkpt lat="47.524834" lon="7.897636">
        <ele>379.443650</ele>
        <time>2021-11-21T12:33:18.050Z</time>
      </trkpt>
      <trkpt lat="47.525518" lon="7.896336">
        <ele>378.497568</ele>
        <time>2021-11-21T12:33:34.136Z</time>
      </trkpt>
      <trkpt lat="47.525590" lon="7.896117">
        <ele>378.203165</ele>
        <time>2021-11-21T12:33:35.774Z</time>
      </trkpt>
      <trkpt lat="47.525622" lon="7.895944">
        <ele>377.986364</ele>
        <time>2021-11-21T12:33:37.901Z</time>
      </trkpt>
      <trkpt lat="47.525631" lon="7.895583">
        <ele>377.549740</ele>
        <time>2021-11-21T12:33:40.289Z</time>
      </trkpt>
      <trkpt lat="47.525631" lon="7.895442">
        <ele>377.379319</ele>
        <time>2021-11-21T12:33:42.026Z</time>
      </trkpt>
      <trkpt lat="47.525603" lon="7.895265">
        <ele>377.159594</ele>
        <time>2021-11-21T12:33:43.373Z</time>
      </trkpt>
      <trkpt lat="47.525725" lon="7.895110">
        <ele>376.871874</ele>
        <time>2021-11-21T12:33:44.895Z</time>
      </trkpt>
      <trkpt lat="47.526257" lon="7.894278">
        <ele>375.091480</ele>
        <time>2021-11-21T12:33:53.091Z</time>
      </trkpt>
      <trkpt lat="47.526335" lon="7.893960">
        <ele>374.464114</ele>
        <time>2021-11-21T12:33:55.424Z</time>
      </trkpt>
      <trkpt lat="47.526401" lon="7.893964">
        <ele>374.282721</ele>
        <time>2021-11-21T12:33:56.060Z</time>
      </trkpt>
      <trkpt lat="47.526451" lon="7.893983">
        <ele>374.140968</ele>
        <time>2021-11-21T12:33:56.792Z</time>
      </trkpt>
      <trkpt lat="47.526504" lon="7.894030">
        <ele>373.971327</ele>
        <time>2021-11-21T12:33:57.462Z</time>
      </trkpt>
      <trkpt lat="47.526709" lon="7.893617">
        <ele>373.020856</ele>
        <time>2021-11-21T12:34:00.888Z</time>
      </trkpt>
      <trkpt lat="47.527011" lon="7.893061">
        <ele>371.697720</ele>
        <time>2021-11-21T12:34:05.892Z</time>
      </trkpt>
      <trkpt lat="47.527498" lon="7.892650">
        <ele>370.746288</ele>
        <time>2021-11-21T12:34:11.966Z</time>
      </trkpt>
      <trkpt lat="47.528003" lon="7.892732">
        <ele>370.077184</ele>
        <time>2021-11-21T12:34:18.216Z</time>
      </trkpt>
      <trkpt lat="47.528331" lon="7.892682">
        <ele>369.642905</ele>
        <time>2021-11-21T12:34:22.484Z</time>
      </trkpt>
      <trkpt lat="47.529235" lon="7.892158">
        <ele>368.476405</ele>
        <time>2021-11-21T12:34:34.203Z</time>
      </trkpt>
      <trkpt lat="47.529695" lon="7.891638">
        <ele>367.868200</ele>
        <time>2021-11-21T12:34:41.257Z</time>
      </trkpt>
      <trkpt lat="47.529714" lon="7.891609">
        <ele>367.839525</ele>
        <time>2021-11-21T12:34:41.519Z</time>
      </trkpt>
      <trkpt lat="47.529972" lon="7.891210">
        <ele>367.447477</ele>
        <time>2021-11-21T12:34:45.946Z</time>
      </trkpt>
      <trkpt lat="47.530275" lon="7.890761">
        <ele>367.033894</ele>
        <time>2021-11-21T12:34:51.260Z</time>
      </trkpt>
      <trkpt lat="47.530322" lon="7.890690">
        <ele>367.045360</ele>
        <time>2021-11-21T12:34:52.075Z</time>
      </trkpt>
      <trkpt lat="47.530606" lon="7.890373">
        <ele>367.106099</ele>
        <time>2021-11-21T12:34:56.785Z</time>
      </trkpt>
      <trkpt lat="47.531076" lon="7.890029">
        <ele>367.195641</ele>
        <time>2021-11-21T12:35:04.510Z</time>
      </trkpt>
      <trkpt lat="47.531265" lon="7.889937">
        <ele>367.229620</ele>
        <time>2021-11-21T12:35:07.551Z</time>
      </trkpt>
      <trkpt lat="47.531560" lon="7.889776">
        <ele>367.283317</ele>
        <time>2021-11-21T12:35:13.229Z</time>
      </trkpt>
      <trkpt lat="47.531843" lon="7.889349">
        <ele>367.495132</ele>
        <time>2021-11-21T12:35:20.765Z</time>
      </trkpt>
      <trkpt lat="47.532011" lon="7.888896">
        <ele>368.074371</ele>
        <time>2021-11-21T12:35:27.961Z</time>
      </trkpt>
      <trkpt lat="47.532288" lon="7.887728">
        <ele>369.461788</ele>
        <time>2021-11-21T12:35:46.840Z</time>
      </trkpt>
      <trkpt lat="47.532505" lon="7.887120">
        <ele>370.232535</ele>
        <time>2021-11-21T12:35:57.127Z</time>
      </trkpt>
      <trkpt lat="47.532650" lon="7.885569">
        <ele>371.818001</ele>
        <time>2021-11-21T12:36:19.889Z</time>
      </trkpt>
      <trkpt lat="47.532658" lon="7.884989">
        <ele>372.402056</ele>
        <time>2021-11-21T12:36:28.076Z</time>
      </trkpt>
      <trkpt lat="47.532670" lon="7.884773">
        <ele>372.620256</ele>
        <time>2021-11-21T12:36:31.379Z</time>
      </trkpt>
      <trkpt lat="47.532699" lon="7.884224">
        <ele>372.991113</ele>
        <time>2021-11-21T12:36:38.494Z</time>
      </trkpt>
      <trkpt lat="47.532713" lon="7.884122">
        <ele>372.983484</ele>
        <time>2021-11-21T12:36:39.658Z</time>
      </trkpt>
      <trkpt lat="47.532859" lon="7.883508">
        <ele>372.935767</ele>
        <time>2021-11-21T12:36:47.269Z</time>
      </trkpt>
      <trkpt lat="47.533014" lon="7.882949">
        <ele>372.891471</ele>
        <time>2021-11-21T12:36:53.489Z</time>
      </trkpt>
      <trkpt lat="47.533374" lon="7.881639">
        <ele>372.325957</ele>
        <time>2021-11-21T12:37:05.201Z</time>
      </trkpt>
      <trkpt lat="47.533606" lon="7.880961">
        <ele>371.014969</ele>
        <time>2021-11-21T12:37:10.996Z</time>
      </trkpt>
      <trkpt lat="47.533892" lon="7.880353">
        <ele>369.736910</ele>
        <time>2021-11-21T12:37:16.313Z</time>
      </trkpt>
      <trkpt lat="47.534616" lon="7.879490">
        <ele>366.490267</ele>
        <time>2021-11-21T12:37:25.483Z</time>
      </trkpt>
      <trkpt lat="47.534908" lon="7.878975">
        <ele>364.140590</ele>
        <time>2021-11-21T12:37:29.685Z</time>
      </trkpt>
      <trkpt lat="47.534946" lon="7.878790">
        <ele>363.464978</ele>
        <time>2021-11-21T12:37:30.960Z</time>
      </trkpt>
      <trkpt lat="47.534825" lon="7.878414">
        <ele>362.009694</ele>
        <time>2021-11-21T12:37:33.487Z</time>
      </trkpt>
      <trkpt lat="47.534778" lon="7.878270">
        <ele>361.450874</ele>
        <time>2021-11-21T12:37:34.638Z</time>
      </trkpt>
      <trkpt lat="47.534855" lon="7.878090">
        <ele>360.706371</ele>
        <time>2021-11-21T12:37:35.889Z</time>
      </trkpt>
      <trkpt lat="47.535088" lon="7.877742">
        <ele>358.994011</ele>
        <time>2021-11-21T12:37:38.984Z</time>
      </trkpt>
      <trkpt lat="47.535322" lon="7.877590">
        <ele>357.810003</ele>
        <time>2021-11-21T12:37:41.481Z</time>
      </trkpt>
      <trkpt lat="47.535551" lon="7.877487">
        <ele>356.710286</ele>
        <time>2021-11-21T12:37:43.636Z</time>
      </trkpt>
      <trkpt lat="47.535635" lon="7.877484">
        <ele>356.324188</ele>
        <time>2021-11-21T12:37:44.573Z</time>
      </trkpt>
      <trkpt lat="47.535770" lon="7.877432">
        <ele>355.683221</ele>
        <time>2021-11-21T12:37:45.825Z</time>
      </trkpt>
      <trkpt lat="47.535851" lon="7.877319">
        <ele>355.171926</ele>
        <time>2021-11-21T12:37:46.855Z</time>
      </trkpt>
      <trkpt lat="47.536444" lon="7.876177">
        <ele>350.702459</ele>
        <time>2021-11-21T12:37:56.234Z</time>
      </trkpt>
      <trkpt lat="47.536632" lon="7.875912">
        <ele>350.213603</ele>
        <time>2021-11-21T12:37:58.883Z</time>
      </trkpt>
      <trkpt lat="47.536757" lon="7.875759">
        <ele>349.932162</ele>
        <time>2021-11-21T12:38:00.830Z</time>
      </trkpt>
      <trkpt lat="47.536921" lon="7.875537">
        <ele>349.546563</ele>
        <time>2021-11-21T12:38:03.397Z</time>
      </trkpt>
      <trkpt lat="47.537182" lon="7.875293">
        <ele>349.010888</ele>
        <time>2021-11-21T12:38:07.106Z</time>
      </trkpt>
      <trkpt lat="47.537261" lon="7.875237">
        <ele>348.858882</ele>
        <time>2021-11-21T12:38:08.068Z</time>
      </trkpt>
      <trkpt lat="47.537716" lon="7.874966">
        <ele>348.007724</ele>
        <time>2021-11-21T12:38:13.957Z</time>
      </trkpt>
      <trkpt lat="47.538278" lon="7.874319">
        <ele>347.072818</ele>
        <time>2021-11-21T12:38:22.431Z</time>
      </trkpt>
      <trkpt lat="47.539222" lon="7.873416">
        <ele>345.907383</ele>
        <time>2021-11-21T12:38:36.878Z</time>
      </trkpt>
      <trkpt lat="47.539678" lon="7.872430">
        <ele>345.653545</ele>
        <time>2021-11-21T12:38:45.959Z</time>
      </trkpt>
      <trkpt lat="47.539841" lon="7.872151">
        <ele>345.653545</ele>
        <time>2021-11-21T12:38:48.736Z</time>
      </trkpt>
      <trkpt lat="47.539930" lon="7.872041">
        <ele>345.653545</ele>
        <time>2021-11-21T12:38:49.930Z</time>
      </trkpt>
      <trkpt lat="47.540034" lon="7.871970">
        <ele>345.653545</ele>
        <time>2021-11-21T12:38:51.197Z</time>
      </trkpt>
      <trkpt lat="47.540216" lon="7.871851">
        <ele>345.653545</ele>
        <time>2021-11-21T12:38:53.340Z</time>
      </trkpt>
      <trkpt lat="47.540265" lon="7.871808">
        <ele>345.653545</ele>
        <time>2021-11-21T12:38:53.944Z</time>
      </trkpt>
      <trkpt lat="47.540463" lon="7.871584">
        <ele>345.653545</ele>
        <time>2021-11-21T12:38:56.722Z</time>
      </trkpt>
      <trkpt lat="47.540693" lon="7.871390">
        <ele>345.653545</ele>
        <time>2021-11-21T12:38:59.566Z</time>
      </trkpt>
      <trkpt lat="47.540894" lon="7.871220">
        <ele>345.653545</ele>
        <time>2021-11-21T12:39:02.037Z</time>
      </trkpt>
      <trkpt lat="47.540933" lon="7.871187">
        <ele>345.653545</ele>
        <time>2021-11-21T12:39:02.510Z</time>
      </trkpt>
      <trkpt lat="47.541366" lon="7.870828">
        <ele>345.653545</ele>
        <time>2021-11-21T12:39:07.946Z</time>
      </trkpt>
      <trkpt lat="47.541410" lon="7.870791">
        <ele>345.653545</ele>
        <time>2021-11-21T12:39:08.501Z</time>
      </trkpt>
      <trkpt lat="47.541417" lon="7.870786">
        <ele>345.653545</ele>
        <time>2021-11-21T12:39:08.574Z</time>
      </trkpt>
    </trkseg>
  </trk>
</gpx>